GFSSW_850_thetae_000.txt.gz
Theta_e
313 313 313 313 313 314 314 314 314 314 315 316 316 315 315 315 315 315 316 321 320 318 318 331 336 337 332 331 332 338 345 352 346 345 342 341 339 340 342 344 342 338 352 358 356
313 313 313 313 313 313 313 314 314 314 315 316 317 317 316 316 316 316 323 320 321 316 319 326 332 333 331 331 332 337 346 340 342 341 340 338 339 338 342 340 336 333 352 356 355
313 313 313 313 313 313 313 313 314 314 315 316 317 318 319 317 323 331 326 324 319 317 322 326 331 330 328 330 334 339 344 344 343 341 338 338 337 339 342 345 341 334 349 356 354
314 314 314 314 314 314 314 314 314 315 315 316 316 319 320 319 334 335 326 321 320 317 329 330 328 327 328 331 334 339 338 341 340 340 338 338 337 337 337 341 340 339 353 355 354
314 314 315 315 315 315 315 315 314 315 316 316 316 318 320 332 330 324 328 321 318 320 328 327 327 326 328 330 335 337 339 338 339 339 339 337 336 337 342 342 349 353 354 354 353
313 313 314 314 314 315 315 315 315 315 316 316 317 318 321 334 328 321 329 321 319 327 327 326 326 326 328 331 333 335 338 339 337 338 337 337 338 337 337 341 347 352 352 352 352
312 313 313 313 313 314 315 316 316 316 316 316 317 317 326 330 329 325 329 326 325 329 326 325 326 328 328 332 333 333 335 339 339 337 338 335 341 338 332 335 344 349 350 350 352
312 312 312 312 313 313 314 315 316 316 316 316 317 318 330 329 327 327 327 328 329 327 326 327 327 329 332 333 335 338 337 339 338 338 337 336 341 338 337 338 345 346 348 349 351
312 313 313 313 312 313 314 315 315 316 317 317 321 330 330 328 326 326 329 329 327 325 325 328 331 332 333 335 336 337 338 337 339 340 336 336 343 344 341 340 346 346 347 348 350
312 313 313 314 314 313 314 315 317 322 321 318 319 330 331 330 328 327 328 329 327 325 326 328 329 333 333 335 339 335 338 340 341 339 336 335 335 344 340 341 342 346 347 348 349
313 314 314 314 314 313 314 322 329 334 328 329 330 324 328 331 329 329 327 327 327 326 327 327 329 331 332 334 335 335 336 336 341 338 336 335 335 338 340 340 338 345 347 348 348
313 314 314 314 314 314 317 325 321 319 321 322 323 324 324 329 331 328 327 326 328 329 327 328 327 329 331 332 332 334 334 335 336 336 336 336 335 338 340 335 336 339 345 347 348
311 313 314 315 315 317 320 320 319 320 322 322 323 324 323 324 328 330 327 326 329 330 330 329 329 329 328 329 329 331 333 334 335 334 337 336 336 336 338 332 335 337 344 344 346
308 310 312 315 315 320 319 321 318 320 323 324 325 324 323 323 324 325 328 328 330 331 331 331 331 329 327 327 328 328 332 332 332 333 334 335 337 340 339 339 337 338 341 342 344
307 308 309 313 314 318 320 319 318 321 326 326 325 323 323 323 325 324 329 328 330 332 330 332 330 328 328 327 327 327 331 332 332 332 332 333 333 340 342 340 337 335 337 341 344
307 307 309 313 315 315 318 317 319 323 324 326 325 325 325 323 324 325 328 330 330 331 331 330 330 329 328 329 329 328 329 332 332 330 331 333 333 339 340 342 338 337 340 344 354
307 307 307 309 317 317 317 317 322 324 325 325 326 325 325 325 325 325 325 329 331 331 331 332 330 330 329 328 329 329 330 332 332 332 333 336 334 340 342 342 340 342 342 351 356
307 307 307 308 312 316 317 319 323 325 324 326 325 326 325 326 326 325 326 328 330 331 332 333 333 330 330 328 329 330 330 332 336 336 337 343 343 345 344 341 339 340 343 352 353
307 310 315 309 310 316 317 320 322 325 326 325 325 324 324 325 326 326 327 328 330 331 334 332 332 333 331 330 329 329 330 331 332 333 336 342 341 339 339 342 343 343 343 350 352
307 312 316 317 316 315 318 319 321 322 324 323 323 323 323 325 326 326 328 329 329 330 331 332 333 332 331 332 331 329 330 332 330 334 336 338 339 343 347 344 345 345 343 349 354
311 319 317 317 316 316 318 319 320 320 321 321 322 323 324 324 327 326 327 329 329 330 331 331 332 331 331 330 330 330 328 331 332 333 334 337 344 345 342 342 343 346 345 348 354
314 319 319 318 317 317 319 319 319 321 321 321 321 321 322 324 326 327 327 328 329 329 330 330 330 331 332 330 330 330 331 331 334 340 336 337 346 340 342 340 341 343 348 350 352
315 317 319 319 319 318 318 319 320 320 321 321 320 321 322 323 325 327 328 328 329 329 330 331 330 331 333 332 331 330 330 331 334 339 340 337 337 341 338 341 345 347 350 351 352
316 318 317 319 318 319 321 322 321 320 321 321 321 321 321 323 324 325 328 328 328 329 333 332 335 333 332 334 335 333 332 330 333 336 334 333 345 342 343 345 342 348 350 354 353
317 318 319 321 319 319 320 322 324 322 321 320 321 321 322 323 323 324 327 330 328 327 330 333 341 335 332 334 335 335 334 332 330 333 332 335 338 344 343 340 335 345 356 356 354
316 317 318 319 320 323 321 320 324 325 322 322 320 322 322 325 325 326 326 329 330 330 332 334 339 337 336 334 333 334 334 332 330 329 331 331 342 337 334 332 332 337 353 353 352
313 313 315 317 319 321 323 324 322 323 324 321 324 322 322 324 324 325 325 330 331 332 335 337 338 343 338 334 333 336 333 335 332 331 332 340 342 338 339 339 335 351 350 350 349

GFSSW_850_thetae_003.txt.gz
Theta_e
313 313 313 313 313 313 314 314 314 314 315 316 316 316 315 315 315 315 316 318 321 319 318 323 327 334 336 332 331 332 340 346 348 346 342 341 340 343 341 344 344 347 337 351 356
313 313 313 313 313 314 314 314 314 314 315 316 316 317 317 317 316 317 320 319 321 320 317 328 332 334 333 330 331 331 337 340 341 340 342 340 340 339 340 337 336 352 355 358 356
314 314 314 314 314 314 314 314 314 315 315 316 316 318 319 318 326 332 324 323 321 319 317 324 328 331 330 328 329 332 344 340 338 339 341 338 340 338 342 342 337 342 358 357 355
314 314 314 314 314 314 315 315 315 315 315 316 316 317 319 319 336 333 325 322 320 318 326 327 329 329 326 325 328 330 337 342 343 342 342 336 337 343 339 342 339 342 357 355 353
313 313 313 314 314 314 315 315 315 315 316 316 316 317 319 327 332 331 323 324 319 318 329 330 329 327 324 325 327 330 335 337 340 339 338 337 337 342 342 344 339 344 357 356 355
312 312 313 313 313 314 314 315 315 316 316 316 317 317 319 334 329 328 324 327 320 319 327 328 326 326 326 326 327 332 333 333 338 338 337 336 336 335 343 347 341 351 356 355 354
312 312 312 312 313 313 313 314 315 316 316 316 317 317 318 325 328 328 323 327 324 323 328 326 326 326 327 328 330 333 333 331 334 337 337 337 338 335 338 346 349 351 355 355 352
312 312 313 313 313 313 313 314 314 315 316 316 317 318 320 331 328 327 324 326 326 328 327 326 326 327 328 331 333 331 332 334 337 337 337 335 334 338 336 338 340 353 354 354 351
312 313 314 314 314 314 313 314 314 315 317 317 319 336 330 330 328 327 327 328 329 328 326 326 328 331 333 331 329 331 333 339 338 336 337 336 336 342 340 337 341 343 351 352 350
313 313 314 314 315 315 313 315 322 321 324 321 319 326 327 331 330 327 327 329 327 325 325 326 329 328 328 328 330 333 338 340 338 340 335 336 337 341 339 338 341 345 345 344 349
313 314 314 315 315 315 317 324 324 331 321 331 327 321 326 329 328 328 326 329 327 325 324 327 325 325 327 328 330 330 331 340 339 339 336 337 336 343 339 341 338 337 332 338 350
311 313 314 315 314 315 315 321 320 318 319 319 321 323 327 328 330 328 326 328 327 326 325 324 323 325 329 329 329 328 328 330 333 337 336 334 336 341 340 336 335 336 335 337 346
308 309 312 314 314 319 321 320 321 319 320 321 321 322 324 324 330 330 328 326 327 327 327 324 325 327 327 326 326 325 326 327 330 330 332 335 336 340 338 334 333 339 339 344 339
306 307 308 310 313 319 320 320 318 319 320 323 322 323 323 324 324 328 327 325 326 327 328 328 328 329 328 326 325 322 325 326 329 329 328 331 329 342 338 334 335 336 335 339 344
307 307 307 309 313 317 318 319 317 319 326 327 324 325 325 324 324 324 327 326 326 327 329 329 330 329 329 327 326 323 325 325 331 328 327 329 328 341 339 338 338 336 335 333 343
306 307 307 308 311 315 317 317 318 321 325 325 324 323 323 323 323 324 326 327 327 328 328 330 330 328 326 327 326 327 327 327 330 327 325 326 330 338 339 339 338 337 335 336 340
307 306 307 307 313 317 317 317 318 322 324 323 323 323 322 322 322 323 328 328 328 329 329 330 329 329 329 328 326 327 326 325 328 329 328 339 338 336 336 338 338 337 337 348 358
307 307 308 308 309 314 316 317 321 323 321 323 323 324 324 323 323 323 323 328 328 328 328 329 330 330 328 327 326 327 325 326 331 334 335 338 340 346 336 338 338 353 356 356 357
306 307 309 311 309 315 317 318 320 322 324 323 323 323 323 324 323 324 322 323 323 326 327 330 332 332 330 328 326 326 329 326 327 328 329 337 338 336 340 342 340 355 352 349 347
306 309 309 316 314 314 317 318 319 320 320 321 322 323 323 323 321 322 324 324 325 326 327 327 330 331 332 329 327 326 327 327 326 328 331 338 344 343 341 337 345 348 352 346 348
308 318 320 318 316 315 316 317 318 318 319 321 321 321 322 323 322 322 325 326 327 327 327 327 327 329 330 331 330 329 327 326 326 327 327 339 343 338 339 342 343 341 352 351 352
311 318 317 317 317 316 316 317 317 318 318 319 321 320 320 321 321 323 325 326 327 328 327 327 330 330 330 329 329 328 327 326 327 330 334 338 343 337 337 336 337 340 343 352 350
311 317 318 317 318 317 316 316 317 318 319 319 321 321 320 319 322 326 327 327 327 328 330 332 326 328 328 329 329 328 328 329 331 332 331 336 342 338 340 339 333 332 336 348 350
312 320 318 319 319 319 319 319 319 318 318 319 320 321 320 319 320 325 324 327 327 331 329 331 334 326 327 334 334 334 332 328 328 329 328 329 342 339 337 335 334 333 331 337 347
315 320 317 321 320 321 321 319 319 321 323 320 321 321 320 320 320 322 323 323 325 328 328 330 334 336 334 334 331 334 333 334 331 328 332 330 341 339 340 335 335 342 333 342 349
314 314 314 316 318 320 321 324 323 320 322 323 321 320 320 321 324 324 324 325 330 328 329 330 335 337 337 336 335 335 335 336 334 330 328 335 340 340 336 339 343 338 334 335 350
309 310 312 314 316 317 320 321 322 322 319 322 323 320 319 320 327 327 327 326 330 336 334 334 332 339 336 337 337 335 337 339 338 335 333 337 336 336 336 340 349 341 346 352 349

GFSSW_850_thetae_006.txt.gz
Theta_e
313 313 313 313 313 313 313 314 314 314 315 315 316 317 317 316 315 315 316 317 319 318 318 321 317 334 335 334 331 330 338 344 345 346 345 344 345 344 343 343 344 340 342 350 353
314 313 313 313 314 314 314 314 314 314 315 315 316 317 318 318 317 319 321 318 320 320 318 325 332 334 335 332 330 329 333 340 341 343 340 341 342 341 340 343 341 349 349 354 353
314 314 314 314 314 314 314 314 314 315 315 316 316 316 318 318 327 333 323 322 320 319 318 328 328 329 332 329 328 330 336 337 337 339 340 340 339 338 339 337 341 350 355 354 353
313 313 313 313 314 314 314 315 315 315 315 316 316 316 318 319 335 331 324 322 320 318 322 326 326 327 325 324 325 326 330 334 337 339 341 340 339 340 339 340 338 349 356 355 353
312 312 312 313 313 313 314 314 315 315 315 316 316 317 318 323 323 332 322 324 320 318 326 328 329 329 324 323 325 325 326 332 334 339 339 339 340 341 342 341 339 356 358 355 354
312 312 312 312 312 313 313 314 314 315 315 316 316 317 318 329 330 328 325 324 321 318 329 329 327 326 325 324 324 326 329 331 335 335 336 335 338 341 342 340 349 357 356 354 353
312 312 312 312 312 313 313 313 314 314 315 316 316 317 317 319 328 328 323 325 325 319 325 326 326 325 325 325 329 332 330 329 334 336 335 336 336 331 341 338 353 355 355 354 353
311 312 313 313 314 314 313 313 314 314 315 316 316 317 318 328 329 328 324 326 326 327 326 326 326 326 326 330 332 331 329 333 334 335 336 335 335 335 342 344 348 349 347 350 350
312 312 313 314 315 315 315 313 314 315 315 318 317 327 324 329 329 328 327 324 328 328 327 325 325 328 330 329 326 325 330 336 334 334 336 335 335 337 341 346 338 338 337 340 348
312 313 313 314 315 314 315 320 324 326 324 323 319 324 321 328 329 329 327 328 328 326 325 324 326 325 323 324 328 330 337 336 336 335 335 335 334 333 339 342 338 336 336 341 347
311 313 314 314 314 314 316 322 321 326 320 322 324 320 322 328 329 328 326 328 328 325 322 324 323 323 323 324 328 328 328 334 335 335 336 334 335 337 343 344 340 335 333 341 341
308 310 313 314 314 314 319 320 320 318 318 319 318 320 324 328 325 327 326 325 326 324 323 322 322 323 325 326 327 327 326 327 331 336 335 335 335 338 339 339 336 333 334 334 336
307 307 309 311 314 315 320 319 318 318 318 319 318 319 325 327 323 328 326 326 326 325 325 322 323 325 325 324 324 322 323 323 324 327 334 333 333 338 335 337 333 336 335 337 338
307 307 307 309 310 314 319 319 318 318 315 320 320 320 321 324 322 329 328 327 324 325 325 324 326 326 326 325 323 321 322 323 324 326 325 328 326 335 335 332 336 336 337 337 337
306 307 307 307 310 316 318 318 319 319 315 323 321 323 321 322 323 327 330 326 323 325 324 326 329 327 328 328 325 322 323 322 326 327 325 325 324 325 336 333 332 338 339 339 344
307 307 308 307 309 313 316 317 317 317 317 324 322 321 320 322 323 323 327 327 325 324 324 325 327 327 327 327 326 325 325 322 323 321 323 324 324 325 338 335 335 335 336 336 351
307 307 308 307 309 316 317 316 313 319 320 322 321 320 319 319 320 321 325 324 324 325 324 325 327 327 328 325 324 324 320 321 323 324 325 326 333 331 337 335 335 335 336 338 340
307 307 308 308 308 314 316 312 318 319 318 319 319 321 320 320 320 321 324 325 324 326 325 327 328 327 328 325 324 323 320 321 326 327 329 328 337 337 338 338 339 336 335 353 351
306 307 308 308 308 312 317 314 314 318 320 319 318 321 319 321 321 320 321 326 326 324 326 325 327 328 328 327 324 324 324 321 322 323 324 326 335 335 336 338 353 351 352 358 356
306 309 309 312 308 315 313 315 316 318 317 317 319 319 319 319 320 319 319 321 326 327 323 323 325 326 327 328 324 323 322 323 319 326 326 328 342 337 338 339 353 353 349 351 351
307 314 316 312 309 316 312 313 315 316 317 316 316 317 318 318 318 318 319 322 322 322 324 321 323 327 328 327 324 325 324 321 319 321 324 330 337 334 338 339 342 343 348 344 348
311 312 316 316 314 311 311 315 316 316 316 316 317 316 317 318 317 318 320 322 324 323 323 322 321 324 325 326 327 324 324 320 321 322 327 331 339 333 334 339 342 345 349 347 347
308 315 316 316 312 310 311 314 315 315 315 316 316 318 318 317 317 319 321 323 322 328 322 322 321 324 324 323 325 327 324 323 320 321 324 326 334 336 337 335 338 342 346 349 345
312 314 317 317 317 315 316 316 317 318 317 317 316 316 316 318 315 316 318 320 321 324 328 328 320 322 324 324 328 331 331 328 324 324 323 325 338 339 338 333 336 336 337 347 338
314 314 314 313 314 314 317 319 318 317 318 319 318 316 317 318 317 316 316 318 321 325 325 324 326 330 328 332 334 334 332 333 330 326 326 326 339 338 336 334 335 333 332 341 334
312 311 312 312 313 312 315 319 321 320 319 317 317 319 317 315 316 317 317 319 323 327 327 322 323 333 333 333 334 335 334 335 335 335 327 336 341 334 334 334 335 333 335 336 334
307 308 310 311 308 310 312 318 320 321 323 324 323 318 318 316 317 324 326 323 323 329 329 333 325 328 332 333 334 333 333 335 335 334 331 335 335 337 336 339 339 334 335 333 333

GFSSW_850_thetae_009.txt.gz
Theta_e
313 313 313 313 313 313 314 314 314 314 314 315 315 316 317 317 316 315 316 316 317 317 317 320 317 333 335 333 332 331 333 341 344 344 343 343 343 342 341 343 342 339 346 349 355
313 313 313 313 314 314 314 314 314 314 315 315 315 316 317 318 318 320 318 316 319 318 318 320 330 334 333 332 330 327 330 337 338 341 341 343 343 342 342 343 343 345 345 350 352
313 313 313 313 313 313 314 314 314 315 315 315 315 316 317 318 327 332 324 318 320 320 318 331 332 332 331 329 328 329 330 335 335 340 341 341 343 343 341 340 341 349 351 352 352
312 312 312 312 313 313 313 314 314 315 315 315 316 316 316 319 336 330 323 321 320 318 323 328 326 325 325 324 324 325 329 329 329 332 339 338 339 338 339 338 338 343 350 352 352
312 312 312 312 312 312 313 313 314 314 315 315 316 316 316 321 320 331 323 323 320 318 325 325 326 328 324 322 323 323 325 329 330 335 335 339 338 338 337 340 338 345 352 352 352
312 312 312 312 312 312 312 313 313 314 315 315 316 316 317 322 330 327 326 323 320 319 326 328 328 326 324 324 324 326 328 330 331 335 336 336 337 340 341 341 346 351 354 353 352
311 311 312 312 313 313 313 313 313 313 314 315 315 316 317 318 325 328 324 323 322 320 328 327 326 326 324 323 328 330 329 328 331 334 334 336 338 333 341 354 357 356 355 355 353
311 311 312 313 314 314 314 314 313 314 314 315 316 316 317 321 327 328 325 323 323 319 326 326 326 325 324 327 329 329 330 332 331 334 335 333 336 338 344 355 355 355 355 353 352
311 312 312 313 314 314 314 315 319 319 316 315 317 318 319 325 327 328 327 324 327 327 327 325 324 326 328 326 325 324 327 331 333 333 335 333 334 341 349 352 350 353 353 353 349
312 312 312 313 314 314 314 319 323 327 324 323 322 319 318 326 328 328 328 326 328 327 325 324 325 322 321 323 321 328 333 330 331 333 333 334 335 340 345 346 348 351 351 346 340
309 311 313 313 314 314 317 320 320 321 319 321 322 318 318 326 328 328 329 327 327 324 321 322 321 321 322 323 326 328 328 327 328 329 334 333 334 339 341 340 338 335 336 335 336
307 308 311 313 314 314 319 320 318 316 316 318 319 320 321 321 324 327 327 326 326 323 321 320 320 321 322 323 325 325 326 323 323 328 334 332 338 341 342 340 339 336 336 337 339
307 308 309 309 311 313 318 318 317 317 316 317 317 317 322 321 323 326 327 325 325 324 323 321 322 323 324 324 324 322 321 320 322 323 331 333 334 337 334 338 338 337 334 334 337
307 308 308 308 310 312 318 318 318 318 312 316 319 319 319 322 322 328 327 326 324 325 324 323 323 325 325 325 322 322 321 321 322 323 323 327 325 335 333 336 333 333 335 336 337
307 307 307 308 309 313 317 319 320 318 314 319 320 321 320 323 323 324 326 326 323 323 323 324 327 326 327 327 323 324 323 322 322 324 324 324 321 322 332 332 335 334 336 337 338
306 306 307 307 308 310 317 317 317 312 314 320 321 319 319 321 322 325 325 326 325 323 323 322 325 325 325 326 326 325 323 319 319 318 322 322 323 324 336 333 331 334 335 337 338
307 306 307 307 308 313 316 317 311 314 316 320 319 318 318 318 320 322 324 323 323 323 322 323 324 324 327 327 324 320 318 320 321 320 321 325 330 329 331 334 333 332 335 337 336
307 307 307 308 308 315 316 312 314 313 316 317 318 318 319 319 319 320 323 323 322 323 323 325 325 326 326 325 326 321 318 320 322 323 323 324 331 335 336 336 338 335 336 338 348
306 307 307 308 308 315 316 310 309 314 318 317 316 318 317 317 320 319 321 321 322 322 325 324 325 327 326 326 325 324 322 319 318 320 322 323 332 335 335 348 346 340 351 350 347
306 307 310 308 308 314 311 310 313 315 316 315 317 317 318 317 318 318 318 320 323 322 322 323 324 322 324 326 325 323 320 323 317 324 325 323 339 336 337 348 351 348 346 350 340
307 315 315 311 308 316 311 311 314 315 315 315 316 316 317 318 317 317 317 320 323 323 322 320 320 324 326 326 325 322 322 317 317 318 322 325 331 330 336 337 350 348 350 341 331
309 312 312 307 310 308 310 313 314 314 313 314 314 315 316 316 316 317 317 320 320 321 323 320 319 323 322 323 324 322 321 318 321 322 322 326 329 333 333 334 341 349 345 345 342
309 315 313 312 309 308 310 313 314 313 314 314 315 316 315 316 315 315 318 320 319 320 320 319 319 321 321 321 323 326 323 318 317 316 324 325 324 336 335 338 342 348 345 346 347
314 313 315 315 314 313 316 317 317 318 316 315 314 315 315 315 313 316 317 317 318 320 325 322 316 319 322 322 325 331 331 324 320 322 321 321 324 338 335 334 340 345 347 346 346
314 311 311 312 313 312 314 318 320 319 318 317 317 316 317 315 316 315 316 316 318 324 325 320 323 322 323 324 331 332 333 329 326 323 326 326 327 329 335 333 338 343 348 347 346
312 311 310 310 311 309 310 315 318 320 319 318 321 323 320 314 314 316 317 318 318 322 326 324 321 330 330 331 333 333 332 333 333 332 327 328 328 331 333 334 334 337 342 344 338
307 307 310 309 308 309 311 316 318 319 321 322 322 321 319 320 322 319 317 322 321 324 326 330 323 324 327 331 330 327 332 334 334 335 333 334 331 332 332 332 333 332 333 341 333

GFSSW_850_thetae_015.txt.gz
Theta_e
312 313 313 313 313 313 313 313 314 314 314 315 315 315 316 317 317 316 316 316 317 318 319 317 317 319 335 333 330 331 341 347 344 343 339 342 343 342 342 342 342 345 347 348 348
312 312 312 312 312 312 313 313 313 314 314 315 315 316 316 317 318 323 323 317 317 318 317 318 318 329 332 331 329 331 339 342 341 341 337 340 342 343 343 343 343 343 342 345 350
311 311 312 312 312 312 312 313 313 313 314 315 315 316 316 317 328 326 323 317 318 317 317 320 329 330 330 328 328 330 336 335 334 338 339 336 341 342 343 344 343 343 348 351 351
311 311 311 311 312 312 312 312 313 313 313 314 315 316 316 322 334 324 320 318 319 318 319 327 329 327 327 327 323 328 327 330 327 330 336 336 340 343 342 342 341 340 339 344 349
311 311 311 311 312 312 312 313 313 313 313 314 314 315 316 318 321 330 322 320 319 318 326 328 326 327 326 324 324 325 325 327 328 328 329 331 337 340 342 342 341 339 341 343 344
311 311 311 311 312 312 313 313 313 313 313 314 314 315 316 319 327 328 324 322 319 318 327 326 327 325 325 324 325 326 328 329 330 331 334 337 338 338 341 339 344 341 343 348 342
310 311 311 311 312 313 313 314 314 314 314 314 314 315 315 317 328 326 324 323 320 317 327 326 326 325 325 325 326 329 330 331 333 334 335 335 338 339 341 346 348 350 351 347 353
311 311 311 311 312 312 313 314 314 317 318 316 315 315 316 318 322 326 325 322 319 322 325 326 326 324 324 326 327 329 330 332 332 334 334 335 336 337 349 350 350 351 353 351 354
310 311 311 311 312 312 314 314 315 320 323 319 316 316 317 320 323 326 324 321 319 320 326 326 324 325 327 327 325 328 330 332 334 332 332 336 335 341 352 352 352 353 353 354 355
308 309 310 311 312 312 314 314 316 319 322 322 319 318 318 324 324 327 322 322 319 321 323 323 324 327 328 327 322 326 330 331 332 330 329 331 335 338 350 353 353 354 355 354 352
308 308 309 310 311 313 314 316 317 317 317 320 320 317 318 325 326 326 323 325 326 325 325 322 325 325 326 328 327 329 328 329 330 328 329 333 335 341 345 351 352 353 354 354 349
307 308 308 309 310 312 316 317 316 316 317 317 317 318 320 323 323 326 324 327 326 326 322 325 325 324 323 326 327 326 327 329 328 324 332 334 336 339 343 346 347 349 352 351 348
307 307 308 308 309 312 317 317 317 317 316 316 317 317 318 320 321 325 325 326 327 326 325 327 324 322 324 325 326 326 328 327 327 325 330 335 334 339 339 341 343 343 344 345 344
306 307 307 308 309 311 317 317 318 318 318 318 317 318 317 320 321 325 326 326 325 328 325 326 325 324 325 326 326 329 326 326 327 327 327 327 328 334 333 337 338 341 342 339 337
306 307 307 307 308 310 316 317 318 317 321 318 319 318 317 321 322 324 326 325 327 326 326 325 326 326 328 328 326 329 325 326 325 326 328 328 328 332 332 338 337 339 341 339 337
307 307 307 307 308 308 315 317 317 315 318 320 319 319 319 320 322 323 325 324 324 325 324 326 324 326 326 326 326 326 325 324 325 327 328 327 328 330 334 337 338 335 339 340 338
307 307 307 307 308 309 315 316 315 315 316 320 319 318 319 320 322 325 326 326 328 328 328 326 326 325 325 326 325 326 329 331 328 328 327 329 332 333 333 335 337 337 337 339 338
307 307 307 307 307 310 315 315 313 313 314 317 317 317 320 319 321 325 326 327 324 325 326 325 324 326 325 326 327 327 330 330 329 327 327 328 332 333 336 337 338 338 336 338 338
306 306 306 307 307 312 315 314 314 312 317 316 318 319 320 319 320 323 327 327 327 326 328 328 327 326 326 326 326 326 329 325 329 325 328 328 330 334 339 344 338 337 337 339 342
306 308 310 307 307 312 316 312 312 312 315 316 319 318 320 319 321 322 324 323 325 325 327 327 326 325 325 326 324 327 325 329 328 333 332 330 332 334 340 344 342 339 338 344 350
308 314 313 307 307 313 315 314 314 314 313 315 317 318 318 319 318 320 321 320 322 323 324 326 326 324 325 327 328 326 327 326 327 328 331 330 331 337 340 341 346 343 342 346 348
313 315 309 309 313 310 315 314 313 314 312 314 315 317 318 317 319 319 320 320 318 322 324 325 327 328 326 324 325 326 328 330 330 332 329 331 330 330 337 336 345 343 344 347 346
314 311 310 312 312 314 311 313 313 315 316 316 316 316 316 318 321 318 318 319 317 321 325 324 328 328 327 325 325 328 326 327 329 331 336 333 331 331 339 338 344 346 347 344 338
314 315 311 313 312 314 318 317 316 318 317 317 317 318 319 319 317 319 319 318 317 321 325 323 327 331 326 326 328 331 327 325 330 332 333 331 332 334 336 341 344 349 348 344 335
313 313 311 314 314 314 315 318 320 321 320 320 318 324 324 322 319 319 318 319 319 323 324 327 332 327 327 324 324 329 333 326 331 335 334 336 332 338 337 338 341 347 349 346 337
311 312 309 310 309 312 314 319 320 320 321 322 323 324 324 323 319 322 323 322 321 324 329 328 333 330 332 331 325 326 328 332 331 329 331 333 335 333 334 337 341 346 348 349 345
306 307 308 307 312 313 316 318 319 319 320 321 321 324 324 322 322 323 323 323 322 322 326 333 334 333 330 332 333 334 332 334 334 334 335 337 338 336 338 338 342 346 348 348 346

GFSSW_850_thetae_018.txt.gz
Theta_e
312 312 312 313 313 313 313 313 313 314 314 315 315 315 316 316 317 317 318 316 316 316 320 318 319 324 337 337 334 336 344 344 342 339 339 340 341 345 344 345 345 346 347 351 354
312 312 312 312 312 313 313 313 313 313 314 314 315 316 316 317 319 326 324 318 316 316 322 322 322 329 337 337 335 338 343 341 338 337 338 337 340 343 345 345 346 346 349 355 354
311 312 312 312 312 312 313 313 313 313 314 314 315 316 316 319 330 331 323 317 317 318 320 326 328 329 334 335 334 337 340 336 333 333 334 337 338 342 343 345 344 346 350 356 355
311 312 312 312 312 312 312 313 313 313 314 314 315 316 316 326 332 326 319 318 318 318 324 327 326 326 331 336 330 336 332 331 331 331 332 335 338 341 342 342 343 344 350 354 355
311 311 311 312 312 312 313 313 313 313 314 314 315 315 316 323 326 328 321 318 319 318 325 326 326 328 330 330 330 332 331 331 332 332 334 335 337 340 341 342 343 344 349 353 354
311 311 311 311 312 312 313 313 313 314 314 314 315 315 316 323 326 329 322 320 320 321 326 327 328 327 328 329 331 330 331 332 333 335 336 337 338 339 342 344 342 345 349 351 353
311 311 311 311 312 312 313 313 314 314 315 315 314 315 316 321 327 326 324 322 320 320 326 327 327 327 327 329 329 330 333 335 336 335 334 336 339 340 341 346 346 348 349 350 354
310 311 311 311 311 312 313 313 314 315 316 317 315 315 321 317 326 326 324 323 319 320 326 327 326 327 327 327 329 331 333 336 334 334 335 335 337 339 343 347 347 349 350 353 356
309 310 311 311 311 312 313 314 314 316 319 320 317 316 322 317 321 326 324 322 319 321 324 326 326 327 327 328 327 329 331 331 332 333 331 333 335 340 346 348 348 351 352 354 356
308 309 309 311 311 312 313 314 315 316 318 322 319 323 321 323 324 325 323 321 320 322 326 327 326 329 328 327 326 327 328 329 331 333 330 331 333 335 343 349 349 352 354 355 357
308 308 309 310 311 312 314 316 321 322 318 324 323 320 320 325 324 325 322 323 322 325 328 326 328 328 327 328 330 330 329 329 329 331 330 332 332 335 343 348 350 354 356 356 355
307 308 308 309 310 312 315 319 317 317 321 319 319 319 321 324 327 325 324 326 326 328 327 327 327 327 326 328 329 328 330 330 332 329 330 332 332 333 341 345 347 351 355 356 355
307 307 308 308 309 311 317 317 317 318 322 321 319 319 320 324 327 327 325 328 328 328 328 328 328 326 326 327 328 328 329 330 330 331 330 331 331 332 339 342 345 347 350 354 354
307 307 308 308 310 311 318 317 318 318 324 322 320 320 319 323 324 328 327 328 329 330 328 328 328 326 327 328 329 330 330 330 330 330 330 330 329 333 334 337 342 344 345 350 352
307 307 307 307 308 311 317 317 318 316 324 321 321 319 320 322 324 325 328 328 330 329 329 329 328 327 328 328 329 332 329 331 331 330 330 330 329 331 333 334 340 342 345 345 348
307 307 307 308 308 309 315 317 317 322 322 323 322 321 322 322 325 326 327 327 328 329 329 329 327 329 329 329 329 330 330 331 331 329 330 331 329 330 332 339 340 339 343 344 345
307 307 307 307 311 308 314 317 321 321 320 323 323 323 323 323 326 328 330 330 330 330 331 329 329 329 328 328 329 329 330 331 332 331 330 333 331 332 332 335 340 341 342 345 346
307 307 307 307 307 309 315 320 321 319 319 320 321 322 323 323 325 327 330 331 329 330 329 329 328 328 328 328 328 329 329 331 332 331 331 332 330 335 337 338 341 340 340 344 345
306 307 306 307 307 310 318 320 320 318 320 320 321 323 324 323 323 327 328 329 330 329 329 328 327 328 329 328 329 330 330 330 332 332 331 330 331 332 337 340 342 342 341 342 342
307 311 313 307 307 312 320 319 317 317 318 319 322 323 325 324 324 325 327 327 328 328 328 329 329 327 327 327 329 330 331 331 331 333 334 332 332 333 337 339 344 341 341 342 345
310 316 312 307 307 315 318 319 316 317 317 319 321 322 323 323 325 325 326 324 325 327 327 328 328 328 326 327 328 330 331 331 332 334 334 333 333 333 334 337 345 343 341 351 353
315 317 309 308 314 316 318 318 315 317 316 317 319 321 323 322 323 324 325 325 321 326 328 328 329 328 328 328 328 328 331 333 333 337 333 335 333 332 335 340 345 344 343 351 351
316 314 311 313 316 316 317 316 315 316 317 317 318 320 320 322 324 322 323 321 320 325 329 330 329 330 330 329 328 328 329 331 333 337 335 335 334 337 338 342 343 345 346 351 351
318 316 313 314 316 317 317 316 316 318 318 318 318 319 321 322 323 324 322 321 320 323 325 327 332 331 328 331 330 329 329 330 333 335 334 334 333 334 335 339 346 346 349 349 347
317 318 316 315 318 318 319 318 316 320 318 318 319 319 320 321 323 323 322 322 321 324 328 330 333 331 329 328 330 329 330 330 333 334 335 335 334 335 341 341 343 349 350 347 345
316 318 315 316 317 319 316 320 319 320 321 321 320 322 323 321 321 322 325 325 325 326 329 332 334 333 330 329 331 329 328 331 333 333 333 333 334 339 341 341 342 351 351 347 348
308 310 314 314 317 317 319 320 320 321 321 323 323 324 323 324 324 325 326 327 327 329 328 333 332 333 329 332 332 332 329 329 332 334 332 333 335 342 342 343 344 348 352 349 345

GFSSW_850_thetae_021.txt.gz
Theta_e
312 312 312 312 313 313 313 313 313 314 314 315 315 316 316 317 317 317 325 320 318 317 319 326 325 324 329 340 339 340 345 344 340 340 340 339 341 340 343 345 346 345 347 348 353
312 312 312 312 312 313 313 313 313 314 314 314 315 316 316 317 321 329 326 320 317 317 327 325 323 325 335 340 339 340 342 341 339 337 338 338 337 339 342 345 347 347 350 352 352
312 312 312 312 312 313 313 313 313 314 314 314 315 316 316 321 332 334 322 318 318 318 325 325 325 329 336 339 339 341 340 337 335 334 334 337 338 339 340 343 345 348 352 353 353
312 312 312 312 312 313 313 313 313 314 314 315 315 316 317 325 337 328 319 319 318 322 324 326 327 328 334 339 337 339 336 335 334 334 334 336 336 338 339 342 344 346 351 354 353
311 312 312 312 312 313 313 313 313 314 314 315 315 315 317 330 332 326 320 319 320 322 325 327 327 329 333 336 336 338 336 335 335 335 336 335 336 337 338 341 344 346 351 354 353
311 311 312 312 312 312 313 313 314 314 314 315 315 315 324 327 330 329 324 323 324 323 326 327 328 329 331 333 335 336 335 336 336 336 336 336 337 338 342 343 344 347 350 352 353
311 311 311 312 312 312 313 313 314 314 315 315 315 315 323 324 329 329 325 325 323 323 327 328 328 327 330 333 333 334 337 337 336 336 335 334 337 340 339 344 344 346 349 350 352
310 311 311 311 312 312 313 313 314 314 315 317 316 315 325 322 327 327 326 324 323 322 328 328 327 327 329 331 332 335 336 336 338 335 335 333 339 338 341 344 345 348 349 350 353
309 310 311 311 312 312 312 313 314 314 315 318 322 324 327 320 323 328 326 325 323 324 326 327 327 328 329 328 330 331 332 335 334 334 334 333 335 338 342 345 346 350 350 353 355
308 309 310 311 311 312 312 313 314 315 316 317 320 327 324 323 324 328 327 323 322 324 326 327 328 329 329 329 329 330 330 330 331 333 333 332 334 334 338 343 347 351 352 354 356
308 309 309 310 311 312 312 317 327 327 326 326 327 323 323 327 325 326 326 323 325 324 329 328 329 328 330 330 330 331 329 329 330 331 332 332 333 333 336 338 345 351 355 354 356
307 308 309 309 310 311 313 322 321 319 322 322 322 323 324 327 326 325 325 325 326 328 329 330 328 330 329 328 328 329 329 330 331 332 332 332 333 333 335 339 342 349 356 354 356
307 308 308 309 310 311 319 321 318 319 323 324 322 321 322 325 327 327 325 326 328 328 329 329 330 329 328 328 328 329 329 330 331 332 332 332 333 333 334 337 342 343 350 353 355
307 307 308 308 311 314 319 319 318 319 325 325 322 322 322 324 327 328 325 328 330 331 330 329 329 328 328 328 329 330 331 330 330 331 332 333 331 335 335 337 342 343 345 349 355
307 307 307 307 316 314 320 317 318 320 326 325 323 322 323 324 326 327 327 329 332 331 331 331 329 329 328 328 329 331 333 330 331 331 332 332 332 333 334 333 338 338 344 346 352
306 307 307 310 308 314 314 316 319 324 324 325 324 323 324 324 326 327 329 329 330 331 331 331 329 330 329 330 330 331 331 331 332 332 331 332 332 331 335 338 336 339 343 346 349
306 307 307 308 315 313 314 318 323 325 325 325 325 325 325 325 326 329 331 332 332 332 332 330 330 329 329 330 330 331 331 332 333 334 332 335 332 332 333 335 336 338 343 346 347
307 307 308 308 312 311 315 322 325 324 325 325 325 326 325 326 327 329 331 332 331 331 332 332 331 330 331 329 331 332 332 331 333 333 336 334 332 337 335 335 338 340 343 345 346
307 311 311 313 309 312 318 323 325 325 323 324 324 325 326 326 327 329 330 332 332 331 333 331 330 330 329 329 329 331 331 331 331 332 332 332 332 333 334 336 339 341 343 344 345
307 314 316 315 312 313 320 322 324 321 321 322 325 326 327 326 325 329 330 330 331 331 330 331 332 330 329 329 329 330 332 332 331 333 333 334 335 335 338 338 342 342 343 343 344
312 317 315 312 312 315 319 322 323 319 319 321 322 326 327 327 326 327 328 328 329 330 329 330 331 330 329 329 330 332 331 331 331 333 336 338 338 337 336 337 342 341 342 344 345
316 319 314 313 315 317 319 321 318 320 319 321 322 323 325 326 326 327 328 329 327 328 329 329 331 332 331 330 329 329 332 332 333 335 334 335 336 335 334 337 335 340 342 348 350
319 317 314 314 317 319 319 320 319 320 320 320 321 323 324 324 327 326 327 324 324 327 329 330 330 332 332 330 330 329 329 331 333 336 339 340 336 336 337 336 338 341 343 351 351
320 318 315 313 317 321 321 320 319 317 319 319 321 321 323 325 327 327 326 324 323 325 325 330 330 331 331 332 332 331 330 330 331 335 334 333 335 338 337 337 344 343 345 352 353
318 321 319 318 318 319 320 320 319 320 319 320 321 321 322 324 325 325 325 324 323 323 327 330 333 332 331 329 329 330 330 331 331 332 334 335 338 337 341 341 344 346 350 352 353
318 320 315 319 321 320 318 321 320 320 323 321 321 321 321 322 324 325 326 326 326 326 327 330 334 333 333 330 329 329 329 329 331 331 333 334 337 333 341 342 341 348 351 350 350
312 315 318 317 318 320 321 321 321 321 322 323 323 323 324 325 324 327 328 330 331 331 330 332 333 332 334 330 329 331 330 329 330 333 333 334 336 339 339 344 344 347 351 350 348

GFSSW_850_thetae_024.txt.gz
Theta_e
312 312 312 312 312 313 313 313 313 314 314 315 315 316 316 317 317 317 328 324 322 319 319 324 326 326 327 329 339 341 346 346 340 340 339 339 342 339 340 343 345 345 347 350 352
312 312 312 312 313 313 313 313 313 314 314 314 315 316 317 317 321 329 328 322 318 318 324 327 325 326 328 337 340 342 346 344 337 337 337 337 337 339 342 344 345 349 350 351 352
312 312 312 312 312 313 313 313 314 314 314 315 315 316 317 321 335 335 323 320 319 319 326 326 326 328 332 338 340 338 341 339 336 335 335 336 338 339 341 344 338 348 351 352 352
312 312 312 312 312 313 313 313 314 314 314 315 315 316 317 324 340 329 320 320 319 319 326 327 327 329 334 339 339 341 339 335 334 334 335 336 335 337 339 344 346 350 352 352 352
312 312 312 312 312 313 313 314 314 314 314 315 315 316 317 334 336 325 321 319 320 325 325 328 328 329 332 337 337 338 336 334 335 335 336 336 336 338 337 344 344 351 353 353 352
311 311 312 312 312 313 313 314 314 314 315 315 316 316 319 330 333 326 325 322 327 324 327 328 329 330 332 334 336 337 337 336 336 336 336 336 337 338 341 341 345 350 353 354 353
311 311 311 312 312 313 313 314 314 314 315 316 316 316 324 326 331 329 327 326 325 324 328 329 329 329 330 333 334 335 335 336 337 336 334 337 339 340 339 343 345 347 350 352 353
310 311 311 312 312 312 313 313 314 314 315 316 317 316 328 325 327 329 327 326 324 323 327 329 328 328 329 332 332 333 335 335 336 337 335 333 341 338 338 342 343 346 348 350 353
309 310 311 311 312 312 313 313 314 315 315 316 326 329 327 326 322 328 327 327 325 324 327 328 327 328 329 329 330 332 333 334 337 335 334 332 333 338 338 341 344 348 348 350 354
309 309 310 310 311 312 313 314 315 315 316 316 317 327 327 326 324 328 328 327 325 325 327 327 328 329 329 329 328 330 330 330 335 333 334 333 333 334 337 338 345 349 350 352 355
308 309 309 310 311 312 313 315 327 330 322 325 327 323 325 326 325 328 328 325 325 325 327 329 329 328 328 330 331 330 331 330 331 331 332 332 332 333 334 335 339 353 352 353 356
308 308 309 310 310 311 313 322 322 321 323 325 325 326 325 327 326 326 327 326 326 327 327 331 328 329 331 330 329 328 328 329 331 331 333 332 332 333 333 336 339 350 355 353 355
307 308 308 309 310 312 316 322 321 320 322 323 323 323 324 324 327 326 327 326 328 327 329 329 330 330 329 328 327 328 329 330 331 332 333 333 333 335 334 336 337 336 354 352 355
307 307 308 309 311 318 317 322 319 321 323 324 325 324 323 324 326 328 327 326 329 329 329 330 330 330 329 327 329 329 332 330 330 330 332 333 333 338 337 338 339 340 345 350 356
306 307 308 308 317 317 321 319 318 321 325 326 326 324 323 325 327 328 328 327 330 331 332 331 329 329 327 328 329 329 333 333 330 331 331 331 331 340 338 335 340 340 343 348 356
305 307 307 311 310 316 315 317 319 323 323 326 325 325 325 324 326 327 329 327 330 332 332 332 331 330 330 329 329 330 331 331 331 331 332 334 331 334 340 338 337 338 344 352 353
305 306 307 310 316 316 315 317 322 324 324 326 326 326 325 325 326 329 330 330 332 332 333 331 331 330 330 330 331 330 331 331 332 333 335 336 336 339 335 337 336 340 344 348 351
305 306 308 308 313 315 316 321 324 323 324 326 327 326 325 326 325 328 330 331 331 332 331 332 331 331 330 330 330 332 332 332 335 332 337 337 338 337 336 336 336 337 345 347 348
306 312 308 311 309 314 317 322 324 326 325 326 326 326 325 326 326 327 330 331 331 331 333 332 333 332 331 331 330 330 330 331 331 332 331 331 337 338 335 335 338 339 345 346 348
307 316 317 315 314 314 318 321 323 325 324 324 325 325 326 326 326 327 330 330 331 331 331 333 333 331 331 330 330 330 331 331 333 335 335 332 339 343 338 336 340 342 345 346 347
308 318 319 317 315 315 317 320 322 323 322 323 324 326 326 327 327 326 329 330 330 331 331 331 332 332 331 330 330 330 332 330 330 333 334 337 344 343 339 336 343 342 342 344 346
318 320 318 314 315 315 317 319 321 323 321 322 323 325 326 328 328 327 328 329 329 330 331 331 331 332 331 331 331 330 330 332 334 337 335 338 339 336 338 340 341 338 340 343 345
321 320 317 314 315 317 318 319 320 323 322 322 322 324 325 327 328 327 328 327 327 328 332 332 331 330 332 332 331 330 330 330 332 339 341 341 343 334 337 338 335 339 342 347 349
321 319 316 314 315 319 322 320 321 320 321 322 322 323 324 325 326 331 327 326 325 325 326 329 334 332 331 332 333 333 332 331 331 334 334 333 339 339 341 341 340 340 347 351 351
320 323 321 317 315 318 321 323 322 322 319 321 321 322 323 326 326 327 327 327 324 324 326 329 333 332 330 330 331 332 333 331 331 331 333 333 338 339 338 336 336 339 351 353 353
317 320 320 320 321 321 318 322 322 322 322 321 322 323 323 324 326 327 326 327 326 326 328 331 334 332 332 331 331 330 329 329 329 330 332 331 335 336 334 331 335 336 351 354 354
313 315 318 320 320 322 321 320 321 322 322 323 324 323 323 324 326 328 329 331 332 332 333 335 334 335 334 332 332 332 330 329 330 330 330 333 339 339 339 337 338 348 352 352 353

GFSSW_850_thetae_027.txt.gz
Theta_e
312 312 312 312 313 313 313 313 313 314 314 314 315 315 316 317 317 318 328 325 323 320 319 323 326 326 326 327 327 338 345 348 344 344 341 340 342 344 344 345 348 350 350 350 351
312 312 312 312 313 313 313 313 314 314 314 314 315 316 316 318 322 320 328 328 321 319 320 330 327 325 326 327 339 341 343 344 341 335 334 336 342 342 340 338 345 352 351 351 351
312 312 312 313 313 313 313 314 314 314 314 315 315 316 316 320 334 334 332 320 320 319 326 325 326 327 328 330 339 337 335 335 337 334 334 334 342 341 341 340 340 352 352 352 352
312 312 312 313 313 313 313 314 314 314 315 315 316 316 317 322 339 329 320 320 319 319 325 327 327 328 329 330 339 337 336 337 334 334 335 334 335 342 343 342 340 351 350 352 352
311 312 312 312 313 313 313 314 314 315 315 315 316 316 317 328 335 329 322 320 321 324 326 326 328 328 328 331 337 336 337 336 334 335 335 335 337 337 345 346 349 352 351 352 352
311 311 312 312 312 313 313 314 314 314 315 316 316 316 317 331 331 329 323 322 325 325 326 327 329 329 330 331 333 336 335 335 335 335 336 335 337 342 345 347 350 352 352 352 352
311 311 311 312 312 313 313 314 314 315 315 315 316 316 317 321 331 330 323 326 326 324 324 328 329 328 328 327 332 334 333 331 333 335 335 335 336 338 343 350 352 353 352 352 352
310 311 311 312 312 313 313 314 315 315 315 315 316 319 320 326 326 329 328 327 326 324 324 329 328 328 328 328 330 330 330 330 334 335 334 334 334 337 339 345 350 353 354 354 352
310 310 311 311 312 313 314 314 315 315 315 315 326 332 330 327 325 326 328 327 326 324 324 327 326 327 328 326 324 326 326 329 336 334 334 331 335 337 339 342 346 350 350 354 352
309 310 310 311 312 313 314 315 315 316 316 317 316 325 325 327 326 324 327 327 326 324 325 327 327 325 324 323 323 326 328 330 337 335 333 331 330 336 340 342 347 348 350 354 352
308 309 310 311 311 312 314 316 325 329 324 327 326 322 325 326 324 326 328 327 325 324 323 326 325 324 324 324 327 327 326 327 331 331 330 331 330 330 334 339 349 349 351 354 353
308 308 309 310 311 312 313 323 321 320 320 322 324 326 327 326 326 326 328 327 325 325 325 324 325 325 328 329 327 326 325 326 327 331 330 331 330 329 331 335 351 350 353 355 356
307 308 309 310 311 312 317 319 321 320 321 321 321 323 326 325 327 326 326 327 326 325 325 324 328 329 329 327 326 325 325 326 329 329 327 329 331 331 331 337 353 352 352 355 356
307 307 308 310 311 318 317 321 319 320 320 322 322 323 324 324 324 325 326 327 326 326 326 326 328 330 329 329 326 324 329 330 329 327 326 330 327 329 333 336 336 355 353 356 356
306 307 307 309 315 317 317 319 318 321 327 325 323 324 324 323 325 325 326 327 326 326 329 329 329 328 329 327 327 327 331 331 331 327 327 328 326 331 334 338 338 346 351 358 357
305 306 307 309 310 315 315 316 319 322 326 325 324 323 321 323 323 325 327 326 326 327 330 328 330 330 328 328 328 329 329 330 329 325 326 332 331 334 335 337 338 341 343 357 357
305 305 307 308 314 316 315 317 320 323 323 323 323 322 321 322 322 324 328 325 325 329 331 332 330 330 330 328 328 329 326 327 328 328 331 332 332 334 335 336 335 333 355 355 358
306 306 307 308 311 315 316 318 323 323 321 323 324 324 323 323 322 324 328 328 326 328 329 331 331 328 328 327 330 328 325 326 332 330 332 334 333 336 335 335 336 349 352 355 357
306 308 310 309 309 315 316 319 322 325 324 324 323 325 323 323 323 322 326 328 329 327 329 331 333 333 329 329 328 328 327 327 327 329 328 328 338 335 336 338 338 339 339 353 353
307 308 315 315 311 312 316 319 320 322 323 323 323 325 326 324 322 322 325 327 329 329 329 328 332 330 330 330 330 329 329 325 326 333 334 332 339 338 339 337 337 339 339 349 352
310 319 316 316 313 315 316 317 320 321 322 322 321 323 325 326 325 323 324 328 328 329 328 326 330 331 332 329 328 328 326 328 323 325 327 330 332 337 337 337 337 335 337 348 351
311 322 319 316 315 316 314 317 318 319 320 321 322 323 325 326 328 325 326 329 328 329 329 328 328 330 331 330 329 328 327 330 331 331 332 331 337 336 335 335 337 339 342 346 349
316 322 317 315 314 314 316 316 316 317 319 322 322 322 322 326 328 331 329 325 326 328 330 329 328 328 327 328 329 332 331 329 327 329 328 332 336 335 338 336 338 340 343 346 349
316 323 316 315 314 315 318 321 321 319 320 321 322 322 322 325 326 328 328 326 325 326 326 330 333 334 327 333 331 332 331 331 328 329 328 330 336 337 339 334 332 335 336 349 350
318 323 319 317 315 315 316 320 321 321 321 320 322 322 322 326 327 326 327 327 325 324 326 329 331 332 330 329 328 329 331 332 330 330 330 327 337 338 336 335 335 333 336 342 352
316 315 315 318 321 317 320 317 322 322 322 320 322 322 322 325 325 331 331 332 333 327 326 326 331 331 332 331 330 331 330 331 329 328 328 334 340 333 336 332 333 335 336 338 348
312 311 314 319 320 321 321 322 320 321 322 323 322 324 323 329 328 327 327 328 332 332 334 330 331 330 330 332 331 331 331 332 332 333 333 329 336 335 335 338 333 331 333 338 346

GFSSW_850_thetae_030.txt.gz
Theta_e
312 312 312 313 313 313 313 313 314 314 314 314 315 315 316 317 318 318 323 323 321 320 320 322 326 325 325 326 327 339 337 342 340 341 340 341 343 345 347 349 349 350 347 350 352
312 312 312 313 313 313 313 314 314 314 314 314 315 315 317 318 324 321 326 326 321 319 320 326 325 326 327 326 332 338 337 338 339 338 339 341 344 341 346 351 351 349 349 351 351
312 312 312 312 313 313 313 314 314 314 315 315 315 316 317 321 334 335 328 320 319 319 323 325 327 327 327 328 338 338 340 337 341 341 337 341 341 341 341 346 350 350 351 351 351
312 312 312 312 313 313 314 314 314 314 315 315 316 316 317 322 337 329 320 320 319 320 325 327 327 327 326 327 331 335 334 335 336 333 334 338 342 341 339 342 348 349 350 351 351
311 312 312 312 313 313 314 314 314 314 315 315 316 316 317 323 332 333 322 320 321 325 325 325 327 328 326 328 334 336 335 336 335 335 334 336 338 341 341 340 350 350 350 350 351
311 312 312 312 313 313 313 314 314 315 315 315 316 316 316 328 330 330 323 324 325 324 324 325 326 329 328 327 328 331 333 333 333 333 335 335 339 343 343 341 351 351 351 351 351
311 311 312 312 313 313 314 314 315 315 315 315 316 317 317 320 329 329 323 325 325 324 324 327 328 327 328 325 328 329 332 329 331 332 335 334 335 341 342 349 351 351 351 351 352
310 311 311 312 313 313 314 314 315 315 315 315 316 323 319 325 325 327 325 326 325 323 323 327 327 327 328 327 326 325 324 328 328 333 333 330 328 336 345 349 350 351 351 351 352
310 310 311 311 312 314 314 315 315 315 315 315 317 328 321 326 325 325 328 325 327 325 323 326 326 325 326 324 321 320 323 325 327 333 333 328 329 334 346 348 350 351 352 352 351
309 310 311 311 312 313 314 315 317 319 320 317 316 320 322 324 326 326 326 327 327 325 324 324 326 322 320 319 322 323 325 326 332 332 332 330 329 329 340 350 352 352 353 352 352
308 309 310 311 311 313 314 323 322 325 321 322 323 319 322 325 326 324 327 327 327 325 321 323 322 322 322 321 323 324 324 324 326 331 330 328 329 328 335 343 346 350 354 353 351
308 308 309 310 311 312 315 322 321 320 319 320 322 323 324 325 326 325 327 327 325 323 323 321 321 322 324 325 324 325 324 323 324 329 328 328 329 327 329 345 347 353 352 352 351
307 308 309 310 311 312 316 318 319 319 319 320 319 321 324 326 327 326 326 328 325 323 323 322 323 326 327 326 324 322 324 324 324 327 325 328 327 326 329 345 348 353 353 351 351
306 307 308 310 311 317 318 318 318 319 315 319 320 320 322 325 323 325 326 327 325 323 324 323 324 326 327 327 325 323 324 329 329 324 324 325 324 324 328 346 348 353 354 353 352
305 306 307 309 313 317 316 318 318 320 315 324 321 322 322 323 324 323 324 326 325 324 326 326 327 326 327 327 324 322 327 328 328 323 323 323 324 325 336 343 342 351 354 355 354
305 305 307 308 310 315 316 318 319 317 319 323 322 320 319 322 322 324 324 326 326 325 325 325 329 328 326 326 325 327 325 323 323 320 323 324 328 327 332 337 346 350 354 356 357
305 305 306 307 311 315 316 317 314 319 320 321 321 319 318 318 320 321 325 324 323 325 325 327 329 327 328 327 325 324 320 322 324 326 326 327 328 329 331 335 343 342 356 358 357
306 306 306 308 309 315 316 313 319 319 318 319 320 320 318 318 318 320 325 324 322 325 326 327 329 329 328 325 326 325 321 322 327 326 327 326 329 335 334 335 337 352 342 335 351
306 306 307 308 308 315 316 314 315 320 322 321 319 320 320 321 320 319 323 324 324 322 325 327 329 329 328 326 324 325 325 323 323 324 324 325 335 331 334 337 346 346 344 343 351
306 307 310 309 309 315 312 314 315 319 320 319 320 320 320 321 319 318 320 324 327 324 324 325 327 326 328 327 326 324 323 323 319 327 330 328 334 333 335 334 340 337 339 340 350
312 319 317 315 309 314 310 311 315 318 318 318 318 320 322 324 323 317 319 325 326 326 323 322 323 326 329 326 325 325 323 321 319 320 322 325 326 330 334 335 335 335 337 338 341
309 317 316 313 313 311 309 313 315 315 316 316 318 320 321 323 325 328 319 321 326 326 325 321 322 324 329 327 327 324 325 320 325 325 323 324 329 333 332 333 333 334 338 339 342
309 320 316 315 309 307 310 313 314 314 314 315 318 320 319 322 323 326 325 324 327 325 326 324 321 324 325 323 325 329 329 323 319 319 323 324 324 330 333 336 338 336 333 335 338
312 318 317 316 314 312 313 314 317 320 316 317 317 320 318 321 322 323 323 325 324 325 326 327 324 322 323 325 327 328 327 327 322 323 324 324 331 333 333 336 339 332 333 332 332
317 318 315 314 312 311 313 313 315 317 320 319 318 319 319 321 321 326 326 326 326 324 324 322 326 327 326 328 327 328 329 328 328 327 328 328 329 331 333 332 338 332 331 330 331
313 312 312 313 317 314 310 312 315 316 319 317 318 319 323 325 326 326 327 327 330 327 321 318 324 327 325 330 329 330 329 329 330 333 328 333 335 333 333 333 337 335 339 339 343
309 309 311 314 313 314 316 318 319 318 320 326 324 322 325 325 325 326 324 323 326 328 328 329 323 322 324 329 331 328 328 330 333 337 335 331 329 332 335 332 334 339 335 339 346

GFSSW_850_thetae_033.txt.gz
Theta_e
312 312 312 312 312 313 313 313 314 314 315 315 315 316 316 317 318 318 321 322 322 320 320 323 326 325 326 328 327 340 334 336 337 339 339 339 342 347 348 348 349 349 346 343 353
312 312 312 312 313 313 313 313 314 314 315 315 315 316 317 319 328 322 326 322 320 320 320 325 325 326 326 325 328 330 334 335 336 336 338 341 342 347 348 350 349 348 349 352 352
312 312 312 312 313 313 313 314 314 314 315 315 316 316 317 323 334 326 321 320 319 319 323 325 327 327 326 327 337 335 336 336 338 339 339 338 341 340 349 349 349 349 351 352 352
311 312 312 312 313 313 313 314 314 314 315 315 316 316 317 324 335 330 320 319 319 320 325 325 327 327 325 325 328 337 335 335 337 335 339 335 341 339 343 343 345 344 349 351 351
311 311 312 312 313 313 314 314 314 314 314 315 316 317 317 320 331 331 322 320 324 325 324 324 326 328 326 325 327 333 333 334 335 333 333 335 340 339 338 342 346 348 350 349 350
311 311 312 312 313 313 314 314 314 314 314 315 315 316 317 321 330 329 323 324 324 324 324 324 326 327 327 326 327 329 328 330 332 332 333 334 337 340 342 347 348 349 350 349 347
311 311 311 312 313 314 314 314 315 314 314 315 315 316 318 319 327 328 323 325 324 324 324 324 327 327 327 325 326 327 329 327 329 330 333 339 339 341 343 348 349 350 350 349 349
310 311 311 312 313 314 314 314 315 315 315 315 315 317 321 324 324 324 324 324 324 323 323 325 325 325 327 327 324 323 322 325 327 328 329 331 329 338 345 349 351 351 350 349 350
310 310 311 311 312 313 314 315 315 315 315 315 315 322 321 325 324 324 326 324 326 325 324 324 325 324 325 321 320 318 323 323 323 326 330 328 327 337 347 349 350 351 351 351 351
309 310 310 311 312 313 314 315 316 322 322 321 317 316 319 324 325 326 325 325 327 326 324 324 324 319 317 319 321 323 323 322 324 329 331 328 326 339 345 349 349 350 351 351 351
309 309 310 311 311 312 315 322 322 323 321 321 321 317 319 324 325 325 324 326 326 324 320 321 320 321 320 321 322 323 322 321 323 326 330 328 327 326 343 347 348 350 351 351 351
308 309 309 310 311 312 318 319 316 317 316 319 321 322 323 323 324 324 327 327 324 322 322 319 319 319 322 323 323 322 321 321 322 325 327 327 327 326 335 346 349 350 351 351 351
307 308 309 310 311 311 317 316 317 318 317 319 319 321 323 323 324 325 326 326 324 323 322 321 322 323 325 325 324 322 322 322 324 323 323 325 324 323 325 339 345 349 351 352 352
306 307 308 309 310 314 317 317 318 318 312 315 319 319 321 322 323 326 325 327 325 324 322 322 323 324 324 325 322 324 321 326 326 324 324 322 322 322 332 347 349 351 351 352 352
305 306 307 308 310 315 317 318 318 318 312 318 319 320 321 324 323 323 326 325 324 323 322 323 325 326 326 325 323 323 325 326 325 322 322 323 321 322 336 349 351 351 351 352 352
305 305 306 308 309 314 316 320 318 314 314 319 320 319 320 321 322 323 324 324 325 324 323 322 325 327 326 325 323 324 324 320 320 318 322 322 323 325 338 341 343 351 353 354 357
305 306 306 307 309 313 316 318 311 315 316 319 320 318 318 318 320 321 323 323 322 322 323 325 327 327 327 326 324 321 319 320 321 323 325 324 327 325 330 334 346 355 356 356 352
306 306 306 307 308 314 315 313 313 313 316 317 319 317 318 318 319 319 322 322 322 324 323 325 327 328 327 325 325 323 319 320 325 324 325 323 328 331 333 336 352 356 354 350 341
306 307 307 307 308 314 315 311 312 316 320 319 318 319 318 318 319 319 319 320 322 322 322 325 328 327 327 326 324 324 323 320 319 320 322 323 331 330 344 348 347 337 335 333 335
306 309 308 310 308 315 310 310 312 315 318 317 319 319 320 318 318 317 317 321 323 322 322 323 326 325 327 325 323 322 319 322 317 325 327 324 326 332 343 345 338 340 336 336 336
311 317 315 310 312 315 309 309 313 316 316 317 317 318 319 322 317 315 317 320 323 323 321 321 322 324 326 325 324 323 322 317 316 318 321 323 324 324 334 335 336 338 340 341 342
311 314 315 310 310 306 308 311 313 313 314 314 314 315 318 320 323 325 317 319 324 323 322 321 319 323 324 325 324 323 322 318 321 324 320 321 323 329 329 331 333 333 339 339 343
309 318 315 312 310 306 307 311 313 313 312 314 315 317 318 319 323 324 323 323 324 321 321 320 320 323 323 322 324 326 325 319 316 316 321 322 323 329 331 333 334 337 339 338 344
314 317 315 314 312 309 311 311 314 317 315 315 314 316 317 320 320 322 322 324 323 327 325 323 317 322 324 324 325 327 327 324 320 321 322 321 324 332 332 334 338 337 333 333 337
316 314 312 313 312 311 310 311 313 314 317 317 316 317 318 320 321 325 326 326 326 326 321 320 325 325 323 325 326 327 329 327 327 324 327 326 326 327 331 333 337 333 333 333 332
312 310 311 312 314 313 311 311 312 312 314 317 316 322 322 325 324 325 324 325 328 325 320 317 324 324 325 328 328 329 327 328 331 335 329 332 332 328 332 335 335 333 335 340 341
308 309 310 312 311 311 312 312 314 316 318 325 324 323 324 323 324 325 324 321 323 326 329 327 319 319 322 328 326 323 329 332 338 338 336 329 329 332 331 333 334 335 336 335 335

GFSSW_850_thetae_036.txt.gz
Theta_e
311 312 312 312 312 313 313 313 314 314 314 315 315 316 317 317 318 319 319 321 321 321 320 321 325 325 326 327 326 337 332 336 336 338 338 339 344 344 347 348 349 349 345 348 352
311 312 312 312 312 313 313 313 314 314 314 315 316 316 317 319 326 322 323 323 321 320 320 324 325 326 326 326 331 328 329 333 332 335 336 340 344 346 347 348 349 349 346 350 352
311 312 312 312 312 312 313 314 314 314 315 315 316 316 317 325 330 325 320 319 319 319 323 326 327 327 326 326 336 332 331 335 336 337 339 340 342 343 347 349 349 347 346 351 351
311 312 312 312 312 313 313 314 314 314 315 315 316 317 317 324 333 331 320 318 319 324 325 326 328 327 324 325 326 332 334 335 336 334 338 336 342 340 347 343 345 341 340 350 351
311 312 312 312 313 313 313 314 314 314 315 315 316 316 318 319 330 332 324 320 324 324 324 325 327 327 326 325 326 332 331 332 332 333 334 334 339 338 347 341 344 343 345 347 348
311 311 312 312 313 313 313 314 314 314 315 315 315 316 317 317 329 328 323 323 324 324 323 324 327 326 326 325 325 326 326 327 329 331 331 334 336 340 341 345 345 345 345 347 347
310 311 311 312 313 313 314 314 314 315 315 315 315 316 317 318 325 327 323 323 325 324 324 324 324 325 326 325 325 324 324 325 328 329 331 336 337 337 340 347 347 347 348 347 347
310 310 311 312 312 313 314 314 315 315 315 315 315 315 318 321 322 322 323 324 324 325 323 323 324 324 326 326 323 321 320 322 324 328 330 331 328 333 343 348 350 349 349 348 346
309 310 310 311 312 313 313 314 315 315 316 315 315 316 319 321 323 324 324 323 325 326 324 324 323 324 324 321 319 317 321 322 322 325 327 329 329 328 346 349 349 350 350 349 347
309 309 310 310 312 313 313 315 316 321 322 321 320 316 317 324 324 325 325 324 326 326 323 324 324 318 317 318 321 323 322 321 321 324 329 329 326 338 347 349 349 349 350 350 348
309 309 309 310 311 312 316 321 321 321 321 321 320 316 317 322 324 325 325 324 326 324 319 320 318 318 320 321 321 322 321 321 320 321 328 328 326 326 343 347 348 350 350 350 349
307 308 309 309 311 311 318 317 314 315 316 319 319 320 321 321 322 324 323 326 324 322 320 317 318 318 321 321 322 322 322 319 320 322 325 324 326 325 340 344 346 348 349 350 350
306 307 309 309 310 311 316 315 316 317 315 318 318 319 322 322 322 324 324 326 322 321 320 319 320 321 322 323 324 321 320 321 324 322 322 323 323 322 324 333 337 345 349 350 350
306 306 308 309 310 311 317 316 317 318 309 313 317 318 320 323 323 324 325 326 324 323 320 321 321 323 324 323 322 323 321 323 326 324 325 320 323 321 324 343 346 348 349 350 350
305 306 307 308 309 312 316 317 318 318 311 315 317 319 320 322 322 323 325 326 323 322 320 322 324 324 324 325 322 323 322 325 323 321 321 320 319 320 332 345 345 349 349 351 352
305 306 306 307 309 311 316 318 318 311 312 316 319 318 319 321 321 322 324 325 325 323 322 321 323 324 324 325 322 321 321 318 317 317 321 323 321 323 331 331 331 353 356 354 353
306 306 306 307 308 311 316 318 311 311 313 318 317 317 317 318 320 320 321 322 321 320 322 323 325 326 327 325 323 319 318 319 320 321 322 321 326 325 326 332 340 354 355 355 354
306 306 307 307 307 313 316 312 311 311 313 315 318 316 317 317 319 319 320 320 321 321 320 323 324 326 325 325 323 321 318 318 322 322 323 320 328 331 336 338 353 354 354 351 351
306 306 307 307 307 314 315 311 311 311 318 317 316 318 317 317 318 318 317 318 319 320 322 324 326 326 326 324 324 323 322 318 317 318 321 321 329 329 345 348 345 340 342 337 333
306 312 308 311 308 313 309 309 310 313 315 316 318 317 319 319 317 316 316 317 320 320 321 322 325 324 326 323 322 323 318 322 317 324 325 322 322 330 340 346 341 338 334 335 339
309 316 314 308 308 314 308 306 311 314 314 315 316 316 317 319 315 314 316 318 319 320 320 320 322 324 324 324 322 321 320 315 315 316 320 322 323 320 334 340 338 340 336 337 335
312 311 313 310 310 304 306 309 312 312 313 312 314 314 316 318 320 315 316 317 321 320 321 320 319 322 323 323 322 322 320 317 320 323 318 319 322 322 329 336 338 338 339 339 341
312 316 310 312 309 305 306 309 311 312 312 312 313 314 316 317 319 322 321 321 322 320 320 319 319 322 323 322 323 325 322 317 314 315 321 323 324 324 329 331 335 334 332 336 339
316 313 314 312 310 308 311 310 311 314 313 313 312 314 315 317 319 321 324 323 324 324 324 323 315 320 322 323 323 326 325 320 319 322 320 320 324 324 331 330 332 334 336 335 338
314 311 310 312 310 312 310 311 312 311 314 315 314 313 316 318 322 325 326 325 325 323 320 319 321 320 321 322 324 325 326 324 325 322 326 326 322 323 324 329 332 335 332 334 336
312 310 310 310 312 311 310 312 312 312 311 315 316 315 316 320 321 325 323 325 327 324 319 317 322 323 326 327 327 327 327 326 329 325 325 329 327 322 331 331 335 334 334 336 335
307 310 310 310 310 310 310 312 312 312 316 317 324 322 323 323 324 324 324 319 321 325 328 322 319 319 324 328 323 323 328 332 337 337 334 329 327 330 330 332 334 334 333 334 335

GFSSW_850_thetae_039.txt.gz
Theta_e
311 311 312 312 312 313 313 313 314 314 314 315 315 316 317 318 319 319 319 320 321 322 321 320 325 325 325 325 332 337 340 343 341 341 341 342 346 345 346 348 349 350 350 349 350
311 312 312 312 312 313 313 313 314 314 315 315 316 316 317 323 324 322 322 322 321 320 320 322 325 326 325 326 333 331 339 338 336 338 340 342 344 345 349 348 351 352 348 347 349
311 312 312 312 312 313 313 314 314 314 315 315 316 316 317 328 327 328 319 319 319 319 322 325 327 327 327 327 335 334 337 337 338 337 338 342 344 346 348 350 349 352 346 349 350
311 311 311 312 312 313 313 314 314 314 315 315 316 317 318 327 330 333 321 318 319 323 325 326 327 327 328 329 327 332 334 336 336 336 338 342 343 345 348 346 344 347 341 346 350
311 311 312 312 313 313 313 314 314 315 315 316 316 316 318 319 330 330 323 322 324 324 324 326 327 327 330 328 328 334 332 331 332 333 336 338 342 344 346 346 343 346 345 343 348
311 311 312 312 312 313 313 314 314 315 315 316 316 316 317 318 328 327 323 322 324 324 323 324 326 326 327 328 328 326 326 327 329 331 333 334 337 341 343 345 346 343 343 346 344
311 311 311 312 312 313 313 314 314 315 315 316 316 316 317 318 323 327 323 323 324 324 324 323 323 324 325 329 325 325 329 331 330 331 333 335 339 341 344 349 352 351 347 350 344
310 310 311 311 312 313 313 314 315 315 315 316 316 316 317 318 319 324 323 323 324 324 324 323 323 324 325 325 325 326 328 331 327 328 330 336 335 337 344 349 352 352 353 351 345
309 310 310 311 312 313 313 314 315 315 316 316 316 316 318 319 321 323 324 324 325 325 324 324 323 323 324 327 329 327 332 327 328 328 328 333 334 332 347 348 350 351 352 352 352
309 310 310 310 311 313 313 315 316 317 320 320 319 318 317 322 324 324 324 324 326 325 323 323 323 326 325 328 334 329 327 326 327 327 329 333 333 336 347 349 350 350 351 351 351
308 309 310 310 311 312 314 319 319 320 321 320 319 316 317 321 324 324 325 325 326 325 323 321 324 324 327 325 325 325 326 326 327 325 329 332 333 330 345 348 349 350 351 351 352
307 308 309 310 311 311 317 318 316 315 317 318 319 319 319 320 321 324 322 325 325 325 322 323 323 323 323 323 325 326 327 327 326 326 329 329 330 329 339 346 346 349 351 351 353
306 307 309 310 310 311 316 316 317 317 316 317 318 318 319 320 322 323 323 325 325 324 323 322 323 322 323 325 326 326 325 325 329 327 326 329 331 329 329 343 349 341 349 351 351
306 307 308 309 309 311 316 316 317 317 317 317 317 318 319 322 322 323 324 326 325 324 323 323 323 324 326 327 326 329 325 324 328 329 330 326 330 335 329 346 350 350 349 352 349
305 306 307 308 309 312 315 316 317 317 317 316 318 318 319 322 322 323 324 325 327 325 324 323 325 326 326 328 326 328 325 328 327 329 328 332 331 333 339 341 341 352 352 350 349
305 306 306 308 309 311 316 317 317 317 316 318 319 319 321 321 321 322 324 325 325 325 324 325 323 325 326 325 324 325 326 326 327 327 328 331 330 333 337 339 339 354 353 351 349
306 306 307 307 308 310 316 317 318 316 316 319 319 319 319 321 322 323 325 325 326 327 326 325 326 327 327 327 325 326 329 328 327 327 328 328 332 335 333 339 339 353 355 352 347
307 307 307 307 307 312 315 317 317 316 316 316 319 319 319 319 322 321 324 325 323 325 325 325 326 328 328 330 329 327 329 327 328 328 330 328 333 334 336 345 348 355 357 353 350
307 307 307 307 307 312 315 319 318 315 318 318 319 320 320 319 320 322 323 324 325 325 327 329 327 328 328 326 327 327 330 326 329 326 330 330 335 336 340 345 351 349 350 353 352
306 313 308 309 307 311 316 315 315 312 316 317 319 319 322 321 320 321 322 322 322 323 325 328 329 327 327 325 324 328 325 329 329 333 330 331 332 333 338 344 352 346 346 342 338
311 315 312 310 308 313 316 315 312 313 314 316 318 319 320 321 320 320 322 321 321 323 323 327 328 329 327 328 329 326 328 325 328 328 330 330 331 334 336 339 347 348 340 338 339
315 317 308 311 313 307 313 311 311 313 312 313 315 317 319 319 321 320 321 321 320 322 324 326 328 329 328 326 324 325 329 331 330 334 329 331 329 327 333 336 344 346 344 342 339
316 314 309 312 312 312 310 311 311 313 313 313 315 317 318 319 321 325 322 321 321 323 326 326 329 329 330 328 326 329 325 325 329 332 335 332 331 329 333 336 339 344 339 336 335
317 317 313 311 309 313 315 315 314 313 312 314 315 316 317 319 322 326 327 324 324 323 323 326 329 332 328 331 330 331 327 326 331 333 332 332 333 335 334 338 336 337 338 335 337
313 314 311 317 314 315 315 314 315 315 314 314 318 317 318 321 325 328 328 328 326 323 323 329 333 328 327 325 328 329 329 326 331 333 332 333 332 335 333 335 335 337 336 338 338
311 312 310 312 312 313 312 316 315 316 315 316 318 319 318 320 326 327 327 328 330 328 325 325 332 329 329 327 328 329 329 328 330 328 331 332 335 335 335 334 337 336 338 339 337
308 310 310 311 313 314 314 314 314 314 317 315 318 324 324 321 324 324 324 321 325 330 333 329 329 331 332 330 329 332 331 333 338 338 336 335 335 336 337 337 338 337 336 337 337

GFSSW_850_thetae_042.txt.gz
Theta_e
312 312 312 312 312 313 313 314 314 315 315 315 316 316 317 318 320 319 321 320 322 322 321 321 324 325 334 331 331 337 343 342 340 341 340 343 345 346 346 350 346 351 348 349 356
312 312 312 312 313 313 313 313 314 315 315 315 316 317 317 326 323 327 323 322 321 320 320 325 327 327 330 328 334 337 343 340 339 340 340 341 344 346 348 349 350 353 353 354 354
311 312 312 313 313 313 313 314 314 315 315 315 316 317 318 328 329 329 319 319 320 319 320 324 327 328 329 331 336 339 341 339 338 337 338 340 343 346 347 348 345 351 352 353 352
312 312 312 312 313 313 314 314 314 315 315 316 316 316 318 329 330 332 321 319 319 321 325 327 328 328 332 335 332 338 337 338 336 337 338 341 343 346 346 345 344 349 350 351 352
311 312 312 312 313 313 314 314 315 315 315 316 316 317 317 324 332 331 321 321 324 324 326 328 329 330 334 334 333 337 336 334 335 335 337 339 342 344 345 345 348 350 350 351 351
311 311 312 312 313 313 314 314 315 315 315 316 316 316 319 323 328 326 322 323 324 326 326 327 328 328 331 332 334 332 332 333 334 335 336 337 338 342 343 347 351 350 349 350 351
310 311 311 312 313 313 314 314 315 315 316 316 316 316 319 321 321 326 323 323 324 326 327 325 325 328 330 333 330 331 335 336 334 333 335 336 339 341 340 348 351 350 348 348 350
310 311 311 312 312 313 314 314 315 315 316 316 316 316 321 318 318 325 323 325 324 326 326 325 325 327 329 330 331 335 336 336 333 330 332 336 337 337 343 348 350 349 349 349 350
310 310 311 311 312 313 314 314 315 315 316 316 317 320 322 319 321 324 325 325 326 326 324 324 326 327 328 333 336 336 338 334 333 330 331 337 337 337 341 346 349 350 351 350 350
310 310 310 311 312 313 314 315 315 316 317 318 319 321 320 323 324 324 324 325 326 325 325 326 327 329 331 334 336 336 335 334 332 330 330 333 335 336 342 345 348 351 352 352 351
309 309 310 311 311 312 314 316 320 323 320 322 322 320 319 322 323 325 326 325 326 325 326 326 327 327 332 333 331 332 334 333 331 330 331 334 336 336 341 345 348 351 352 352 353
307 308 310 311 311 312 314 319 317 316 320 320 319 320 320 321 323 325 325 325 325 326 326 325 325 327 327 328 329 331 333 333 330 332 331 332 334 334 340 344 344 347 352 352 354
307 308 309 311 311 311 317 317 317 317 321 321 319 320 320 320 323 325 325 325 326 325 325 325 326 325 326 327 329 332 333 331 330 332 332 332 333 334 334 346 350 346 347 351 354
306 307 308 310 310 311 317 317 317 317 322 322 320 320 320 322 323 324 325 325 326 326 325 325 325 326 327 327 329 330 330 329 329 330 332 332 331 336 337 343 350 347 347 349 353
306 306 307 309 309 312 316 317 318 317 321 320 320 319 320 322 324 324 325 326 327 326 325 325 325 325 327 327 328 330 328 329 330 330 330 333 330 334 338 340 346 352 350 352 355
306 306 307 307 309 310 315 317 317 322 320 321 322 321 322 322 323 324 325 326 327 327 326 326 326 327 328 330 329 329 330 331 330 329 329 333 330 333 334 341 344 351 355 355 354
306 307 307 307 312 309 315 317 321 321 320 321 323 323 323 323 323 325 326 327 327 328 328 326 327 327 328 330 329 330 330 330 329 329 330 333 330 333 335 343 345 346 356 355 354
307 307 307 307 307 310 315 321 321 321 320 320 322 322 323 323 323 324 326 327 327 327 327 327 326 328 329 331 330 330 330 329 331 328 330 333 330 336 339 346 350 351 358 357 355
307 307 307 307 307 311 317 321 320 320 320 321 322 322 324 323 322 324 325 326 327 327 327 327 326 328 330 330 331 331 330 331 331 330 328 331 333 332 340 347 352 354 358 359 357
306 314 312 307 307 311 319 320 320 317 319 320 321 322 324 324 323 324 324 325 325 326 327 329 329 328 330 329 329 332 331 330 330 332 331 331 333 332 333 343 351 352 354 355 352
312 316 311 310 307 315 319 319 318 316 317 319 321 322 323 324 324 324 325 324 325 325 326 327 330 330 331 331 331 331 332 332 332 333 332 332 332 333 335 339 347 350 350 347 343
316 318 309 307 314 316 318 318 313 316 315 317 318 320 321 323 325 325 325 325 324 325 327 328 330 330 328 330 330 331 332 333 333 335 331 334 333 333 338 340 346 349 346 344 345
319 317 310 311 315 316 316 315 314 315 316 317 317 319 321 323 325 325 327 324 323 325 326 328 329 331 330 331 330 331 331 333 336 336 334 332 334 335 336 339 345 349 347 346 343
320 319 313 313 315 316 317 316 316 314 314 315 317 317 319 321 324 326 328 326 326 325 324 328 328 331 329 330 331 333 332 331 333 333 335 332 334 334 340 340 342 346 345 343 344
317 319 317 316 316 318 319 318 317 316 315 317 318 318 319 322 323 325 329 330 328 326 326 328 331 330 329 330 330 332 331 331 333 333 333 332 333 339 341 341 340 342 342 343 344
317 318 316 319 319 319 316 321 320 319 318 317 318 320 320 321 324 328 329 331 330 330 330 329 332 330 329 328 328 330 331 331 332 333 333 332 334 340 339 340 340 341 343 342 343
310 311 315 316 319 320 320 320 319 318 319 317 319 321 323 324 322 326 328 329 332 334 333 332 330 334 328 329 329 330 331 331 332 333 333 334 342 340 342 343 342 341 340 341 342

GFSSW_850_thetae_045.txt.gz
Theta_e
312 312 312 313 313 313 314 314 314 315 315 316 316 316 317 319 320 320 327 324 323 322 322 329 327 337 334 340 338 335 342 344 340 341 342 342 342 342 343 342 346 346 346 351 354
312 312 312 313 313 313 314 314 314 315 315 316 316 317 317 326 321 329 328 321 321 321 322 325 327 329 331 335 334 340 342 343 339 339 339 339 343 343 345 343 348 349 349 352 353
312 312 312 313 313 313 314 314 315 315 315 316 316 317 318 326 331 331 322 320 320 320 321 325 327 331 332 334 337 340 342 338 337 336 337 340 340 342 343 343 344 349 351 351 351
312 312 312 313 313 313 314 314 315 315 315 316 316 317 318 326 336 332 321 319 319 320 324 326 328 331 334 336 337 339 340 337 337 336 337 339 340 341 341 342 342 349 349 350 351
312 312 312 313 313 313 314 314 315 315 315 316 316 317 318 327 333 328 321 319 321 325 326 328 330 332 335 337 337 340 339 336 336 335 336 337 338 340 340 345 345 348 348 349 350
311 312 312 313 313 313 314 314 315 315 316 316 316 317 324 326 330 330 322 323 325 326 327 327 330 332 333 336 337 338 337 336 335 336 335 336 337 338 339 342 348 348 348 349 350
311 311 312 313 313 313 314 314 315 315 316 316 316 317 323 324 323 329 325 324 326 327 328 327 328 330 334 336 336 336 337 337 336 335 335 335 337 337 338 342 349 349 347 348 350
311 311 312 312 313 314 314 314 315 315 316 316 317 317 325 322 322 325 327 325 325 326 327 328 327 328 332 334 335 338 337 337 336 333 333 334 339 339 339 343 348 350 348 348 350
310 311 312 312 313 314 314 315 315 315 316 316 320 327 325 321 321 323 326 326 326 326 327 326 326 329 332 335 337 337 338 340 335 333 332 334 336 338 336 341 344 349 349 349 350
310 311 311 312 313 313 314 315 315 316 317 317 319 324 323 322 324 325 325 326 326 327 326 326 326 330 333 335 337 337 337 340 335 334 332 333 334 335 338 339 342 348 350 350 350
309 310 311 312 312 313 314 319 323 326 323 323 325 323 322 322 323 323 325 325 326 327 328 327 328 329 332 334 335 334 336 336 335 333 332 334 334 336 338 338 341 346 350 351 351
308 309 310 312 312 312 314 321 320 318 322 322 322 322 322 323 325 325 325 326 326 327 327 328 327 329 330 332 334 333 334 334 334 332 332 333 334 335 337 339 338 340 347 351 352
307 308 309 311 312 312 319 320 318 319 322 323 322 322 322 321 323 325 325 326 327 327 328 328 328 329 328 329 332 332 333 334 334 334 333 332 333 336 336 339 343 344 344 351 352
306 307 308 310 312 314 319 318 318 318 324 325 323 322 322 323 323 324 326 327 327 327 327 327 328 327 327 328 331 332 333 332 332 331 332 334 333 338 338 340 344 346 346 350 353
306 306 307 309 316 315 319 317 318 320 324 325 324 322 323 323 325 324 325 326 328 327 328 327 326 326 327 328 329 329 332 331 331 331 332 332 333 336 337 340 341 347 349 352 357
306 307 307 311 310 314 315 317 319 324 323 323 324 323 324 324 324 326 325 326 327 328 328 327 327 327 327 328 329 330 331 331 332 331 332 332 332 332 338 339 338 349 355 355 356
306 307 307 307 316 314 315 318 323 324 325 324 324 325 325 325 325 326 327 327 328 329 330 328 327 328 328 329 331 330 331 332 332 331 331 334 333 332 336 340 341 350 356 356 355
306 307 308 307 313 312 317 322 324 325 325 324 324 325 325 326 325 326 327 327 328 328 328 329 328 328 329 329 331 329 330 332 333 332 333 334 331 333 337 341 344 351 356 357 356
307 311 314 314 311 312 319 322 324 325 324 323 324 324 325 326 325 326 326 328 328 328 329 329 329 329 329 330 331 333 330 331 331 332 333 332 333 335 335 342 345 350 356 357 356
308 315 316 314 311 313 320 321 323 322 322 323 323 325 324 326 325 325 326 327 328 329 328 329 330 329 329 331 331 332 333 331 331 331 334 332 334 337 336 341 345 349 353 358 358
310 318 316 312 312 315 321 323 322 321 320 321 323 324 325 327 326 326 326 327 327 328 328 329 330 330 330 331 331 331 332 333 332 334 334 335 336 335 337 339 344 345 352 353 347
316 320 315 312 315 317 321 323 317 320 318 320 321 323 324 326 326 327 327 327 326 326 327 328 329 330 332 331 331 332 333 332 333 335 334 332 335 332 337 340 342 347 350 346 346
320 319 314 313 317 319 320 321 319 319 319 320 320 321 323 324 326 327 327 326 325 326 327 328 328 332 331 331 331 331 333 334 334 335 337 335 334 335 338 341 343 347 347 348 348
321 320 315 313 316 320 320 320 319 317 318 318 319 320 321 323 325 327 327 328 325 325 325 328 330 331 331 331 332 333 331 331 332 335 335 334 337 337 339 343 347 349 349 349 346
319 321 321 318 317 318 320 320 320 320 318 317 319 319 321 323 324 325 326 328 329 326 326 328 331 331 330 330 332 332 333 332 331 333 334 335 336 337 342 342 342 347 348 346 346
320 319 317 321 321 319 317 321 321 321 321 321 319 320 321 322 324 327 329 329 330 330 330 329 331 331 330 330 330 331 332 332 331 332 333 333 338 335 338 342 343 344 345 345 346
315 317 319 319 321 321 321 321 322 321 321 321 321 320 321 323 324 324 326 330 332 336 333 333 332 332 332 330 330 330 331 333 332 333 334 335 343 341 343 344 344 344 343 343 344

GFSSW_850_thetae_048.txt.gz
Theta_e
312 312 312 313 313 313 314 314 315 315 315 315 316 317 317 318 319 320 324 329 328 324 325 333 336 334 339 336 338 340 343 345 342 344 343 340 340 340 340 342 342 342 346 351 353
312 312 312 313 313 314 314 314 315 315 315 316 316 317 317 322 323 329 328 326 325 323 324 327 328 330 332 334 336 341 341 342 342 338 341 344 340 342 343 340 347 347 349 352 353
312 312 312 313 313 313 314 314 315 315 315 316 317 317 318 322 326 329 329 329 326 323 323 325 327 329 333 335 335 341 343 342 343 336 337 340 342 340 339 339 343 348 350 352 353
312 312 312 312 313 313 314 314 315 315 315 316 317 317 318 322 337 332 326 322 321 322 323 325 328 330 333 336 336 339 340 339 337 336 337 339 341 341 340 340 342 349 350 350 351
312 312 312 313 313 313 314 314 315 315 315 316 317 318 318 329 332 327 322 320 320 320 327 329 330 331 334 335 336 337 340 338 336 336 335 337 338 340 341 343 343 349 349 350 350
311 312 313 313 313 313 314 314 315 315 315 316 317 317 320 328 330 330 324 322 324 326 327 328 330 331 333 335 337 338 339 337 336 336 335 335 336 337 338 344 344 348 349 349 350
311 312 312 313 313 314 314 315 315 315 316 316 316 317 323 324 324 329 326 324 326 326 328 329 329 330 332 335 336 337 337 337 336 336 335 335 338 337 337 339 343 348 348 349 350
311 311 312 313 313 314 314 315 315 316 316 316 316 317 325 325 324 324 328 327 325 326 327 329 329 329 330 333 335 336 337 338 337 338 334 333 339 338 337 338 343 348 348 348 350
311 311 312 313 313 314 314 315 315 316 316 316 318 329 327 325 322 322 325 327 327 327 327 327 327 328 331 333 335 336 337 339 337 337 333 332 340 339 338 339 342 346 348 348 350
310 311 312 312 313 314 315 315 316 316 317 318 317 325 325 324 324 325 326 326 327 327 327 327 326 327 331 332 335 337 338 339 340 338 333 332 334 338 338 338 339 344 348 349 350
309 310 311 312 313 313 315 317 325 329 323 324 326 324 324 324 324 324 325 326 326 327 329 328 327 327 330 332 333 334 339 341 339 339 332 332 334 335 337 336 338 341 350 350 350
308 309 311 312 313 313 315 324 322 320 322 323 325 324 325 324 325 324 325 326 326 327 328 328 329 329 330 331 333 334 335 338 338 336 333 332 333 335 336 337 335 335 346 350 357
307 308 310 312 313 314 319 321 320 320 321 322 322 323 323 323 323 325 326 326 327 327 327 328 329 330 329 329 331 333 333 333 333 335 334 333 332 334 336 336 339 341 341 350 357
306 307 308 311 312 318 317 321 319 320 323 324 324 324 323 323 324 324 326 326 328 327 328 328 329 329 329 328 329 330 331 332 332 333 331 334 334 337 336 340 342 344 344 351 363
306 307 307 310 316 317 322 320 319 321 323 327 326 324 323 324 325 324 325 327 328 328 328 328 328 327 327 328 328 330 331 332 332 331 331 332 332 341 339 341 345 347 349 357 361
306 307 307 312 311 316 316 318 320 323 323 326 325 325 324 324 325 326 325 326 327 328 329 328 328 328 328 328 329 330 329 331 331 331 332 333 333 341 339 342 348 352 354 357 358
305 306 307 309 317 317 316 318 322 323 325 325 325 326 325 325 325 327 327 327 327 328 329 329 328 329 328 327 329 329 329 331 332 332 332 334 332 340 341 339 346 355 354 356 357
305 306 308 308 314 316 316 321 323 324 324 327 326 326 325 325 326 326 327 327 327 327 328 329 329 327 329 328 329 331 329 332 336 334 337 337 339 338 341 339 349 353 354 356 357
306 311 310 314 309 314 317 321 323 325 326 326 326 325 326 326 326 326 326 327 328 328 329 329 329 330 329 329 329 331 330 330 331 332 333 337 336 337 338 342 347 352 355 356 356
307 315 318 316 315 315 319 321 322 324 324 325 324 325 325 326 326 326 326 327 327 329 329 329 330 330 330 329 330 330 333 332 331 336 336 333 339 341 340 344 350 351 353 355 356
307 319 319 317 315 316 320 321 322 323 323 323 324 324 325 326 327 327 326 327 328 328 329 329 329 331 330 329 330 331 331 334 333 333 336 339 341 338 338 339 345 347 352 355 356
317 321 318 315 315 316 320 323 323 324 322 322 322 323 325 326 327 328 327 327 328 328 328 329 328 330 330 331 331 331 331 331 333 338 336 338 338 336 337 338 343 348 352 350 346
320 320 318 314 316 318 319 322 324 324 323 323 321 322 324 325 326 328 328 327 327 327 328 329 329 329 330 331 332 331 331 332 335 339 340 340 338 338 340 340 340 347 347 347 349
322 321 318 315 315 319 322 322 323 322 321 321 322 322 322 323 325 327 328 328 327 326 325 327 330 333 328 332 331 333 331 331 334 337 336 337 342 343 341 336 338 347 348 350 349
319 323 323 318 317 318 321 322 322 322 321 320 321 321 321 322 324 325 326 328 328 327 326 329 336 330 330 330 331 331 333 332 331 331 333 338 342 340 337 334 333 349 349 349 348
321 322 322 322 322 320 317 320 322 322 322 322 321 321 321 322 323 325 325 327 328 330 329 328 334 332 331 330 330 330 333 335 336 332 331 333 340 335 333 332 333 345 346 346 347
317 317 318 321 320 322 321 321 321 322 322 322 323 322 322 323 322 322 325 326 332 334 338 335 333 337 333 330 330 331 330 331 331 333 331 335 339 336 337 336 336 345 345 345 345

GFSSW_850_thetae_051.txt.gz
Theta_e
312 312 312 313 313 313 314 314 314 315 315 316 316 317 317 318 319 320 321 326 330 329 327 326 329 330 333 338 338 337 338 341 342 342 342 339 340 342 341 342 343 349 350 351 350
312 312 312 313 313 313 314 314 314 315 315 315 316 316 317 318 322 321 323 327 327 327 327 328 328 327 329 331 335 338 336 337 338 339 341 340 339 339 336 341 344 352 352 352 351
312 312 313 313 313 314 314 314 315 315 315 315 316 317 317 318 322 325 330 330 328 329 325 325 327 326 328 329 335 340 338 338 338 339 341 340 340 339 340 338 342 351 352 352 352
312 312 313 313 313 314 314 314 315 315 315 316 316 317 317 320 335 331 331 330 328 325 322 324 325 328 329 328 333 340 338 339 339 338 343 342 341 341 340 339 341 350 352 353 353
312 312 312 313 313 314 314 315 315 315 316 316 316 317 317 325 328 330 323 321 320 321 321 324 328 330 328 330 332 335 340 339 340 335 337 342 342 342 341 341 344 350 351 353 353
311 312 312 313 313 314 314 314 315 315 316 316 316 317 317 326 331 329 326 321 323 325 326 328 328 329 329 331 331 334 337 337 336 336 335 336 338 340 340 338 341 348 350 351 352
311 311 312 312 313 314 314 315 315 316 316 316 316 317 317 320 324 328 329 323 325 325 326 327 328 329 329 328 331 332 334 335 337 336 336 335 336 338 341 336 340 341 349 350 352
311 311 312 312 313 314 314 315 315 316 316 316 316 316 319 322 324 324 327 328 326 325 326 327 328 329 329 329 329 331 332 335 336 336 336 335 335 338 337 337 337 340 348 349 352
311 311 312 312 313 314 315 315 316 316 316 316 316 329 330 326 325 325 324 326 327 326 326 327 327 327 327 325 326 334 336 336 337 337 336 336 332 337 337 337 339 340 348 352 352
310 311 312 312 313 314 315 316 317 317 317 317 318 322 323 325 325 323 323 324 326 327 327 327 327 322 321 322 326 335 337 337 337 336 335 335 333 337 337 339 340 342 349 353 353
309 310 311 312 313 314 315 318 324 328 323 324 326 321 324 325 323 325 325 326 326 326 324 328 323 321 322 323 327 330 335 338 336 336 336 333 331 336 336 338 340 342 339 354 354
307 309 311 312 313 313 315 323 321 320 320 321 323 324 325 325 324 324 324 324 326 324 325 324 323 325 326 327 328 329 337 337 337 335 335 333 329 334 334 335 339 344 356 356 355
307 308 310 312 313 313 317 319 321 320 321 321 320 321 324 324 324 324 325 325 326 325 324 323 325 328 328 326 327 327 334 336 337 334 335 332 330 330 336 342 342 351 355 356 355
306 307 308 311 312 319 317 321 319 320 319 322 322 322 322 323 323 323 324 326 326 324 325 324 326 327 327 327 326 324 327 330 329 329 329 331 328 335 341 340 338 345 360 359 357
305 306 307 309 312 317 318 320 319 320 323 325 324 324 324 323 324 324 324 324 325 325 326 325 326 325 326 326 327 324 327 328 330 327 329 327 326 337 338 340 337 343 361 360 359
305 306 307 308 311 316 317 316 319 321 325 324 325 323 322 323 324 324 324 324 327 325 325 326 328 326 326 327 326 327 327 327 328 326 325 329 330 332 338 339 338 341 363 362 362
305 305 307 307 315 316 317 317 320 322 323 323 323 322 321 322 322 323 323 323 323 325 326 326 326 327 328 326 325 325 324 325 327 327 329 330 334 333 339 337 337 343 359 361 359
305 306 307 308 309 315 317 318 322 323 322 323 324 323 322 323 322 323 324 323 324 324 324 326 326 327 326 325 324 325 324 324 330 333 334 332 334 342 339 344 353 355 356 357 358
306 307 310 309 309 316 316 319 322 323 324 324 324 324 324 323 323 323 322 324 326 324 323 325 327 329 327 326 325 323 328 325 324 325 328 334 336 336 341 345 353 356 357 358 359
306 307 314 317 315 313 317 318 321 321 322 323 324 325 325 324 324 323 323 324 325 325 325 324 326 327 329 326 326 324 327 329 325 328 333 336 338 338 343 339 339 347 348 356 356
308 315 318 317 315 315 316 318 320 321 321 323 323 323 323 324 324 324 325 325 325 325 324 324 324 325 329 328 326 326 325 328 329 328 327 335 337 338 341 336 336 333 339 355 354
315 320 319 316 316 317 317 319 320 321 322 323 322 322 322 323 325 326 327 327 327 326 324 324 327 326 327 327 328 326 328 327 329 328 333 330 336 336 336 334 342 336 332 346 356
316 320 318 315 314 314 316 318 320 322 323 322 322 322 322 322 324 327 328 328 327 325 327 328 327 324 324 325 330 332 328 329 330 330 330 333 336 337 338 337 336 330 342 349 350
317 326 319 317 315 316 317 320 320 321 323 322 322 321 321 321 322 326 326 327 327 327 326 327 329 330 323 328 331 332 331 330 330 333 331 334 342 341 335 334 337 342 346 349 349
316 324 322 320 317 315 317 319 322 322 322 321 322 321 320 323 324 324 324 324 327 330 327 326 328 332 328 328 329 328 330 332 331 333 333 336 339 338 335 338 338 338 346 349 348
318 320 319 320 323 323 319 320 321 322 323 321 321 321 320 321 322 323 323 325 330 333 334 327 327 331 328 328 328 329 329 333 333 333 331 333 340 336 336 337 338 340 348 348 347
316 316 319 319 320 321 321 322 321 321 322 322 323 323 322 324 326 326 326 324 326 330 332 338 331 333 331 331 330 329 330 332 335 333 333 332 335 334 334 332 334 346 345 347 346

GFSSW_850_thetae_054.txt.gz
Theta_e
312 312 312 313 313 313 314 314 315 315 315 316 316 316 317 318 319 320 323 327 328 330 329 326 328 328 334 338 339 341 337 342 341 342 342 340 339 341 342 350 350 350 345 345 350
312 312 312 313 313 313 314 314 314 315 315 315 316 316 317 318 321 321 323 326 327 328 326 326 327 326 327 330 331 336 332 334 337 340 339 339 339 340 337 346 352 350 347 349 350
312 312 312 313 313 313 314 314 314 315 315 316 316 316 317 318 322 325 323 325 328 328 328 325 325 324 324 327 328 337 333 335 337 339 340 340 339 339 336 336 348 350 349 349 350
312 312 312 313 313 314 314 314 315 315 315 316 316 316 317 318 331 332 331 330 330 329 328 324 324 325 326 326 329 333 335 337 337 339 338 339 339 340 339 340 347 351 351 350 350
312 312 312 313 313 314 314 314 315 315 315 316 316 316 316 318 325 330 328 322 321 321 322 322 323 327 327 327 327 334 333 336 337 338 340 340 341 341 340 342 351 351 350 351 351
311 312 312 313 313 314 314 315 315 315 315 316 316 316 316 319 330 330 329 324 321 322 322 322 328 328 327 327 327 329 329 330 335 340 341 341 341 341 340 347 352 352 352 353 352
311 312 312 312 313 314 314 315 315 315 316 316 316 316 317 319 322 328 327 327 324 324 325 326 326 327 328 326 329 328 331 332 334 335 338 339 340 339 340 344 351 352 353 353 353
311 311 312 312 313 314 314 315 316 316 316 316 316 316 319 320 322 323 323 325 327 327 325 326 326 327 328 327 326 330 331 332 333 335 334 334 332 335 338 340 347 351 351 351 352
310 311 312 312 313 314 314 315 316 316 316 316 316 321 323 325 324 324 323 323 326 327 326 326 326 326 326 322 319 324 333 334 333 335 335 334 333 333 336 339 341 350 350 345 349
310 310 311 312 312 313 314 315 316 319 319 317 317 318 319 323 324 324 324 322 325 325 326 326 326 320 317 317 320 323 334 333 334 335 334 333 332 332 336 336 339 349 350 349 348
309 310 311 312 312 313 315 322 323 325 320 323 324 319 319 323 324 324 324 322 324 325 323 325 321 321 321 319 321 324 330 334 334 334 334 332 332 331 335 336 340 351 350 350 348
307 309 311 312 312 313 314 320 320 320 319 319 320 320 324 324 323 324 324 324 324 323 323 320 320 322 323 322 322 323 327 333 334 335 333 331 332 336 334 336 339 351 351 350 348
306 308 309 311 313 313 315 318 320 319 319 319 319 319 324 323 323 324 324 324 323 323 322 320 321 324 325 324 324 324 329 333 334 332 333 332 331 341 341 346 339 345 351 351 351
305 306 307 311 312 315 318 318 318 318 314 319 320 321 320 322 321 324 324 323 322 322 322 321 323 323 323 324 322 323 328 335 335 331 326 329 329 337 339 338 357 357 354 353 352
305 306 307 308 311 315 317 318 319 319 315 322 322 323 322 321 322 323 323 323 322 323 322 322 324 323 324 324 325 323 324 324 326 326 324 324 323 335 336 337 341 357 358 355 354
304 305 306 307 310 314 317 317 319 316 320 323 323 320 320 321 322 323 323 323 323 322 322 322 325 324 323 325 325 324 325 321 321 320 323 324 329 329 338 337 336 354 361 358 355
305 305 306 306 311 316 316 317 314 318 320 320 322 320 318 318 319 320 321 320 318 322 321 322 323 323 326 325 322 321 317 319 322 322 324 325 332 335 331 336 336 360 363 360 358
305 305 306 308 309 312 316 312 317 319 318 319 320 319 320 319 319 320 320 319 319 321 320 323 323 324 326 323 322 322 317 318 323 327 328 326 330 339 340 337 349 354 353 359 361
306 306 307 309 308 313 315 313 314 318 321 320 319 321 321 319 320 319 318 319 320 319 320 319 322 325 326 325 322 322 323 319 320 321 323 325 335 347 348 354 345 338 337 343 356
306 307 308 313 309 314 311 313 315 318 319 318 320 321 320 320 321 321 320 319 322 322 320 320 321 321 324 326 323 321 321 322 318 324 324 328 334 346 347 350 345 340 339 345 357
311 314 317 316 310 313 311 312 316 317 318 319 319 320 320 320 321 322 322 323 322 321 320 318 319 323 326 324 321 322 322 321 320 321 323 328 331 334 344 342 338 339 346 351 352
309 316 318 316 314 313 311 314 317 317 319 318 319 318 320 319 321 322 324 325 325 322 319 318 318 320 322 324 327 322 322 318 321 323 325 326 335 334 335 337 336 338 338 340 342
309 317 317 315 310 310 311 314 316 316 317 319 318 319 319 319 319 321 323 324 324 323 323 322 319 321 321 320 322 329 328 324 321 320 325 327 335 334 338 335 332 331 331 333 332
310 320 321 315 314 312 314 313 316 319 317 318 319 319 317 317 318 319 320 323 324 330 330 324 320 318 320 320 326 330 328 327 324 326 327 327 340 339 334 335 332 332 331 331 336
311 317 320 317 314 312 312 312 314 317 319 320 319 319 318 318 317 319 320 320 321 327 329 319 321 326 325 325 326 327 328 327 328 326 328 331 341 339 338 332 330 334 333 340 348
312 317 317 318 318 314 311 311 316 318 319 319 318 319 318 318 318 318 321 321 322 323 325 325 324 326 326 326 327 328 328 329 329 331 329 334 336 334 334 334 334 336 341 345 354
315 314 316 318 315 316 316 319 320 320 320 321 321 320 323 324 325 325 325 323 321 324 323 330 330 327 323 327 327 324 327 329 332 331 330 333 333 333 333 334 335 337 341 348 351

GFSSW_850_thetae_057.txt.gz
Theta_e
312 312 312 313 313 313 313 314 314 314 315 316 316 316 317 318 318 319 322 325 328 329 329 324 325 335 342 344 345 344 339 341 341 340 340 338 338 343 344 349 349 348 346 347 351
312 312 312 313 313 313 313 314 314 315 315 315 316 316 317 318 319 320 322 323 324 328 328 325 324 325 328 335 336 335 333 337 337 338 339 337 338 339 343 350 350 349 348 351 352
312 312 312 312 313 313 314 314 314 315 315 315 316 316 317 317 323 329 322 322 325 327 327 326 324 322 323 324 326 332 331 332 334 338 339 338 338 339 338 344 349 348 349 352 352
312 312 312 312 313 313 314 314 314 315 315 315 316 316 317 317 329 332 329 327 326 329 328 327 322 323 324 325 328 328 328 329 334 336 340 337 339 338 335 337 347 346 349 352 352
311 312 312 312 313 313 314 314 315 315 315 315 316 316 316 317 324 328 330 326 323 326 326 323 321 324 326 326 326 328 328 329 329 330 338 338 338 339 340 342 348 348 349 351 351
311 311 312 312 313 313 314 314 315 315 315 315 315 316 316 316 327 331 329 327 322 320 320 320 322 327 326 326 325 327 327 327 333 339 339 339 339 340 340 347 349 349 349 349 350
311 311 312 312 313 313 314 315 315 315 315 315 315 315 316 319 320 327 329 326 326 325 324 324 325 325 326 325 326 326 330 330 333 337 340 340 339 339 343 350 350 350 349 349 349
310 311 311 312 312 313 314 314 315 315 316 315 315 315 316 319 320 323 325 323 325 326 326 326 326 324 326 326 323 328 329 330 330 332 338 336 333 335 347 351 351 352 350 350 349
310 311 311 312 312 313 314 314 315 316 316 316 315 316 318 321 322 323 323 323 323 324 325 325 325 324 324 320 318 320 326 331 332 332 333 332 332 331 341 350 351 352 352 351 350
309 310 311 312 312 313 314 314 316 319 323 319 318 317 318 321 323 324 324 324 323 323 324 325 324 319 316 316 319 323 328 330 330 332 332 331 332 330 337 345 350 351 351 351 350
308 309 311 311 312 313 314 321 321 322 320 321 321 319 321 321 321 324 323 324 324 321 321 322 320 321 320 318 320 322 323 323 325 327 331 330 329 330 334 337 343 349 351 351 346
307 308 310 311 312 312 313 317 316 315 316 319 320 320 323 323 321 324 324 323 323 322 321 319 318 319 321 321 321 320 321 321 322 328 333 330 334 338 333 334 339 348 351 350 348
305 307 309 310 312 312 313 317 316 317 316 318 319 319 320 320 321 324 324 323 321 321 321 319 320 322 322 322 322 320 321 322 324 330 330 331 329 337 339 342 337 348 349 350 349
305 306 307 310 311 312 316 317 316 318 312 316 318 320 320 319 321 323 324 323 320 319 319 320 321 322 322 321 320 319 321 326 332 330 326 326 326 332 337 338 351 350 350 349 348
304 305 306 307 309 311 316 317 318 318 313 317 320 321 320 320 322 322 323 323 319 321 320 320 322 322 322 322 321 321 322 328 327 324 322 324 323 329 335 343 345 355 352 351 349
304 304 305 306 308 310 316 317 318 315 315 318 321 319 318 319 320 322 321 323 322 320 320 320 322 323 321 323 322 322 320 318 318 318 321 323 327 327 339 335 343 354 352 352 351
304 304 305 306 308 313 316 317 313 315 316 318 319 318 317 317 318 320 319 318 317 318 318 320 321 322 324 324 321 318 315 316 319 320 321 323 330 332 339 352 348 337 332 331 331
305 305 306 307 307 310 314 312 315 315 316 317 318 318 320 319 318 319 318 317 317 318 317 320 320 322 324 323 323 321 316 316 320 321 322 323 328 348 347 348 335 333 333 337 332
305 306 307 308 307 308 314 311 312 315 319 318 318 319 318 318 317 318 316 316 317 317 318 318 319 321 323 323 322 322 320 316 316 317 320 322 344 351 344 339 335 335 335 335 345
305 307 308 308 309 309 310 311 313 314 316 316 318 319 318 318 320 320 317 319 319 317 318 318 320 320 322 324 322 321 318 320 316 323 323 322 337 352 351 340 340 340 337 338 352
306 315 314 312 309 314 310 310 313 316 316 317 318 318 318 319 319 319 321 323 322 321 317 316 317 322 323 322 322 320 319 318 316 318 321 324 328 327 350 345 343 340 336 338 338
307 314 315 313 311 308 309 311 315 315 317 316 317 316 316 317 319 319 322 323 324 322 319 316 315 318 319 320 322 320 320 318 319 320 322 324 327 332 338 338 338 337 334 332 340
306 312 315 312 310 309 309 312 314 313 313 315 318 318 318 317 318 319 321 322 324 326 326 319 316 318 318 318 320 327 324 319 316 316 325 327 327 333 334 337 337 338 338 338 345
308 318 318 315 312 310 312 312 313 316 315 316 316 317 316 317 316 318 319 321 321 325 326 321 316 317 318 319 322 327 327 324 321 323 323 323 330 337 336 336 335 335 335 336 337
309 313 317 314 313 312 311 313 313 313 317 316 316 316 317 317 317 317 320 319 320 323 325 320 318 323 322 323 324 326 326 325 326 323 327 325 334 334 335 335 335 334 333 331 333
310 316 315 316 316 314 312 312 314 315 316 319 317 317 316 316 317 322 323 320 321 320 320 322 327 323 323 325 327 327 326 327 328 327 328 334 336 330 334 336 333 334 332 331 332
315 314 314 315 315 314 313 316 317 317 319 320 320 318 321 323 323 323 324 323 321 322 321 325 323 327 328 325 326 321 325 327 329 330 329 334 331 332 334 335 333 333 332 335 345

GFSSW_850_thetae_060.txt.gz
Theta_e
312 312 312 312 312 313 313 313 313 314 315 315 316 316 317 318 318 319 321 324 327 327 327 324 330 342 344 346 345 343 341 338 339 339 338 338 337 346 346 348 344 346 348 344 350
312 312 312 312 313 313 313 313 314 314 315 315 316 316 317 318 319 321 321 322 324 326 328 325 324 331 335 335 338 336 333 334 334 336 337 337 337 345 347 348 349 349 347 346 350
311 312 312 312 313 313 313 314 314 314 315 315 316 316 317 317 325 330 327 321 323 325 326 324 323 323 326 325 326 332 330 329 332 333 337 337 337 338 346 349 349 349 347 347 349
311 312 312 312 313 313 313 314 314 315 315 315 315 316 317 317 330 331 328 321 321 325 327 325 322 321 321 324 326 327 329 330 329 330 334 336 337 336 345 344 345 348 344 345 348
311 311 312 312 313 313 314 314 314 315 315 315 315 316 317 317 321 329 329 325 325 327 329 327 320 321 324 325 325 324 326 326 328 333 330 337 337 337 339 338 341 346 348 347 347
311 311 312 312 312 313 314 314 314 315 315 315 315 315 316 315 320 329 329 328 325 321 320 319 320 325 325 325 324 326 325 326 332 337 338 337 339 339 339 342 347 347 350 349 347
310 311 311 312 312 313 314 314 314 315 315 315 315 315 315 318 319 324 328 329 326 323 323 324 323 323 324 324 325 325 326 328 330 334 338 339 339 338 339 345 348 349 351 350 349
310 310 311 311 312 313 314 314 315 315 316 315 315 315 316 319 319 321 323 325 324 325 325 325 324 323 323 324 322 324 326 327 327 332 335 335 333 333 343 347 348 349 349 350 350
309 310 311 311 312 312 313 314 315 315 316 317 316 315 317 319 320 322 322 322 323 323 323 323 323 323 322 318 316 317 324 327 330 330 332 333 330 329 341 349 349 349 349 349 349
309 309 310 311 311 312 313 314 315 318 321 321 318 316 318 320 322 324 324 324 323 323 322 323 322 317 315 316 318 321 321 322 325 326 330 332 330 329 339 349 350 350 350 349 349
307 309 309 310 311 312 313 319 320 319 320 321 321 319 320 321 321 322 323 323 323 321 318 320 319 320 320 318 319 320 320 320 321 322 326 328 328 327 332 341 349 350 351 350 350
306 307 309 310 310 312 312 316 314 314 315 318 319 319 321 321 321 323 323 322 321 319 320 318 318 319 320 320 320 320 320 319 320 325 327 329 330 338 332 335 340 348 349 349 350
305 306 307 309 310 311 312 316 315 315 315 317 318 318 319 320 320 322 323 322 320 320 319 318 320 320 321 321 321 319 320 320 321 325 328 326 324 329 337 340 345 349 349 348 347
304 305 306 308 310 310 312 316 315 317 310 314 316 319 318 319 319 322 323 323 319 318 318 318 319 321 321 321 318 320 318 321 323 329 326 324 324 324 334 348 351 350 349 348 346
304 304 305 305 307 309 313 316 316 317 311 316 317 319 318 318 319 320 323 323 319 319 317 318 321 321 321 321 319 320 320 321 326 324 321 322 322 322 336 349 353 350 341 339 339
304 304 305 305 307 309 311 316 317 313 313 315 319 317 317 318 318 320 320 321 321 319 319 317 320 321 320 322 320 320 319 315 315 315 319 320 325 325 336 348 348 338 336 336 336
303 304 305 305 307 310 312 315 313 313 314 317 317 317 316 316 317 318 318 317 317 317 316 317 319 320 322 322 320 317 315 316 318 317 319 321 326 326 339 338 345 337 337 341 333
304 304 305 306 306 307 310 311 314 313 314 315 317 316 318 316 317 317 316 316 316 315 314 315 317 320 321 321 321 320 315 315 319 317 319 320 325 333 346 346 343 342 344 339 336
304 305 306 307 307 306 311 311 313 313 317 316 316 316 316 317 317 317 315 315 315 315 316 317 318 319 321 321 321 320 319 316 314 315 317 319 344 343 344 338 334 334 336 339 336
304 306 310 309 307 306 309 310 311 312 315 314 317 317 317 317 317 318 317 319 318 315 316 317 317 318 321 322 319 320 317 319 314 320 321 320 337 341 349 343 336 335 336 336 336
305 309 314 308 309 310 309 308 311 314 315 316 317 317 317 318 317 318 320 321 321 321 315 313 315 318 322 321 319 317 318 315 314 315 320 321 324 326 348 344 337 336 335 335 350
306 310 312 309 309 305 308 310 314 314 315 315 316 316 317 317 317 318 320 322 321 322 317 315 313 315 318 319 320 319 318 316 317 319 319 320 324 328 336 342 339 337 338 338 342
304 309 311 311 308 307 308 311 313 312 313 313 315 315 314 316 317 317 319 321 320 326 326 316 314 316 317 316 319 324 319 315 313 316 323 324 324 332 332 339 344 342 341 338 336
306 316 314 312 311 309 311 312 312 314 313 312 314 315 316 316 316 317 318 319 321 323 321 319 312 315 316 317 319 327 325 321 320 322 321 322 324 327 335 336 340 344 341 337 338
307 311 316 312 312 310 311 312 313 314 314 314 313 314 314 314 316 317 321 319 319 320 323 316 321 321 321 318 323 325 325 324 324 322 326 325 325 326 330 338 339 339 336 336 336
309 314 315 313 315 313 312 314 314 314 313 315 315 315 313 314 313 316 322 320 320 319 320 319 324 324 323 321 325 326 325 325 325 323 327 329 330 326 331 333 337 341 336 332 333
312 313 313 313 313 313 313 314 316 316 317 316 319 318 317 319 320 322 322 321 320 321 318 320 320 324 326 325 324 322 321 325 327 327 329 331 328 327 331 334 333 334 335 334 333

GFSSW_850_thetae_063.txt.gz
Theta_e
311 312 312 312 313 313 313 314 314 314 315 315 316 316 317 317 318 319 320 323 326 326 326 327 335 340 346 345 345 343 344 337 334 337 336 339 343 345 347 348 347 347 349 347 346
311 312 312 312 313 313 313 314 314 314 315 315 315 316 317 317 319 324 321 321 324 327 327 327 328 334 341 338 339 341 340 333 333 334 334 337 339 345 348 348 349 350 348 346 344
311 311 312 312 313 313 313 314 314 314 314 315 316 316 317 317 325 330 327 320 322 323 327 324 323 327 331 328 331 336 334 331 330 331 332 335 338 342 346 350 348 350 348 345 344
311 311 312 312 312 313 313 314 314 314 315 315 316 317 317 317 332 328 326 322 321 325 326 323 323 322 323 326 326 331 330 330 330 328 330 336 337 339 342 343 347 346 345 341 343
311 311 311 312 312 313 313 314 314 314 315 315 316 317 317 317 319 326 327 322 322 325 326 326 321 322 324 327 326 327 327 327 327 332 334 336 337 339 339 340 338 347 344 342 343
310 311 311 312 312 313 313 314 314 315 315 315 316 316 316 316 319 321 329 326 324 324 323 323 320 321 325 326 326 326 326 326 330 337 338 337 339 338 340 343 343 346 347 344 345
310 310 311 311 312 312 313 313 314 315 315 315 316 316 316 318 318 319 328 328 325 322 320 322 322 322 324 326 325 325 328 329 333 335 340 339 341 341 343 348 351 353 351 350 345
309 310 311 311 311 312 313 313 314 315 315 316 316 315 316 318 318 319 323 325 327 325 325 324 324 322 323 323 323 326 329 332 331 333 337 339 339 337 345 348 351 353 353 352 346
309 309 310 311 311 312 313 313 314 315 315 316 317 316 317 318 319 319 320 321 322 323 323 323 323 322 322 325 326 325 328 329 330 329 334 334 330 334 344 348 350 351 353 353 348
308 309 309 310 311 312 313 313 315 316 318 320 319 318 318 319 322 323 323 323 323 322 321 322 321 324 323 325 330 326 325 325 327 329 327 328 330 331 338 347 349 350 351 351 349
306 307 309 309 310 311 313 314 318 318 320 320 320 318 318 320 321 322 323 323 323 321 322 320 324 326 326 325 324 324 325 326 327 325 326 330 332 333 335 344 350 350 352 351 350
305 306 307 308 310 311 311 316 314 313 315 317 318 319 320 320 320 322 322 322 322 323 322 323 325 325 322 322 323 324 325 326 326 327 328 331 333 341 342 343 343 351 352 351 350
304 305 306 307 308 310 311 315 315 314 315 317 318 318 318 319 320 321 322 322 323 323 323 324 324 321 322 324 324 325 325 326 326 326 330 329 330 337 346 349 346 349 352 351 350
304 304 305 306 308 308 311 314 314 315 317 318 317 318 318 318 320 320 321 323 321 323 322 323 322 322 323 324 324 326 324 324 324 327 328 328 327 334 352 354 351 350 350 350 350
303 304 304 305 306 307 311 312 314 315 316 318 317 318 318 318 318 320 320 322 324 322 322 323 323 323 324 324 323 325 323 324 326 330 328 328 328 332 342 354 353 350 350 350 350
303 303 304 304 306 307 309 311 315 318 316 317 319 318 318 318 318 318 320 321 322 322 321 322 320 323 324 324 323 323 323 323 324 326 327 328 331 331 342 349 354 350 349 350 350
303 303 304 305 305 307 310 313 319 318 316 318 319 319 318 318 318 320 320 322 323 323 324 323 322 322 322 323 322 322 325 327 325 326 326 328 332 333 340 342 345 350 346 340 340
304 304 305 306 306 306 308 316 320 318 317 317 319 319 320 319 318 319 320 321 319 321 323 323 323 321 323 324 325 325 326 326 326 325 325 327 330 329 344 348 350 345 347 342 339
304 305 306 306 307 306 310 318 318 318 317 317 318 320 321 320 319 319 320 321 322 321 323 323 322 321 322 323 325 324 326 323 326 324 326 326 334 341 346 349 346 348 347 344 341
303 305 309 312 307 306 313 317 317 313 316 316 318 319 321 321 321 322 320 321 320 319 320 323 322 322 323 323 321 325 323 326 326 331 329 328 333 333 346 350 350 347 345 344 341
303 307 314 308 307 308 313 315 315 314 315 316 318 317 319 319 320 321 322 323 324 321 318 321 324 323 324 326 326 324 325 324 326 327 328 328 329 338 344 349 351 348 346 342 339
304 309 312 307 309 307 313 314 313 315 314 316 317 317 316 317 320 321 323 324 321 323 322 321 324 325 323 322 322 325 327 329 327 331 329 330 327 329 334 341 348 347 346 341 337
302 306 310 311 312 313 311 313 313 314 315 315 317 317 318 319 321 320 321 320 321 327 327 321 324 325 326 323 323 326 324 325 327 330 335 331 329 334 337 338 347 346 344 341 338
304 319 312 309 310 311 314 316 316 314 314 313 314 316 318 319 319 320 321 321 320 323 321 321 323 327 325 326 325 330 326 324 329 332 333 331 333 335 336 341 341 347 345 343 341
306 313 315 316 314 313 314 315 316 316 315 314 316 315 318 321 319 320 323 323 321 321 326 326 332 327 326 324 325 327 329 327 330 332 332 333 333 336 336 336 339 343 346 341 340
310 315 314 314 315 316 314 318 317 318 317 318 317 318 317 320 322 321 324 325 324 324 326 327 335 331 330 327 329 328 327 328 328 328 331 334 334 334 334 335 336 338 342 341 340
308 311 312 315 316 316 317 317 317 317 318 316 317 319 316 318 318 322 322 322 323 325 327 330 331 335 328 331 329 329 327 327 331 333 336 335 337 339 340 340 336 336 337 338 340

GFSSW_850_thetae_066.txt.gz
Theta_e
312 312 312 313 313 313 314 314 315 315 315 315 316 316 316 317 318 318 319 322 324 327 326 330 346 348 349 344 345 343 342 337 336 336 337 339 342 344 346 348 349 348 350 347 352
312 312 312 313 313 313 313 314 314 315 315 315 316 316 316 317 319 324 323 320 323 326 327 336 342 346 343 339 338 341 338 335 334 334 336 335 339 342 347 347 350 350 353 349 352
311 312 312 312 313 313 313 314 314 315 315 315 315 316 317 317 325 330 328 322 321 324 334 336 336 339 335 331 334 336 336 334 333 333 333 335 337 339 346 348 347 350 353 350 351
311 311 312 312 313 313 313 314 314 315 315 315 316 316 317 318 330 329 326 326 322 327 335 329 334 332 331 333 331 334 333 332 332 332 336 337 338 340 343 344 346 347 351 350 350
311 311 311 312 312 313 313 314 314 314 315 315 316 316 316 320 322 326 326 321 321 326 330 327 329 330 333 332 331 332 333 331 331 333 339 338 339 340 341 341 344 348 350 350 348
310 311 311 311 312 313 313 314 314 315 315 316 316 316 317 320 319 321 327 322 322 327 326 327 327 325 327 330 331 331 331 332 333 336 341 340 340 341 344 343 346 349 349 350 349
310 310 311 311 311 312 313 313 314 315 315 316 316 316 317 319 318 318 329 326 328 326 324 322 322 324 328 331 329 329 332 334 335 335 336 339 340 342 341 346 349 350 349 350 352
309 310 310 311 311 312 312 313 314 315 315 316 316 316 319 318 318 318 323 326 326 325 322 323 324 325 326 328 329 330 333 334 335 334 335 334 335 335 343 347 350 351 350 351 354
308 309 310 310 311 312 312 313 314 315 315 316 317 318 320 318 318 319 320 323 323 323 323 323 324 326 326 328 332 333 332 334 332 332 334 332 332 335 342 346 350 352 352 352 354
306 308 309 310 311 312 313 313 314 315 316 318 319 321 320 320 322 322 322 323 323 324 324 323 325 327 328 328 329 332 333 331 330 332 332 333 332 335 338 344 348 351 354 353 354
305 306 307 308 310 311 313 313 320 321 319 321 324 322 320 321 321 323 323 324 324 324 326 326 327 328 328 329 329 329 329 330 330 330 330 333 332 336 339 341 347 350 352 353 353
304 305 306 307 309 310 311 317 315 313 317 319 319 320 320 321 322 323 322 324 324 325 325 326 326 327 327 327 327 328 328 329 329 329 330 332 333 341 346 344 343 349 351 352 353
305 305 305 306 308 309 310 315 314 314 319 320 320 319 320 320 321 322 323 324 325 326 326 326 327 326 326 327 327 328 328 328 328 329 330 331 332 339 344 349 346 344 348 350 352
305 305 305 306 308 307 313 314 314 315 321 322 320 320 319 320 322 322 323 324 326 326 326 326 326 325 325 325 326 327 328 327 327 328 330 331 331 337 344 351 351 347 347 350 352
304 305 304 305 305 307 309 312 312 315 319 322 321 319 320 321 322 322 322 323 326 326 326 327 325 324 324 325 326 327 327 327 328 329 331 331 330 335 347 345 352 352 351 350 352
304 304 305 305 305 306 308 309 314 319 319 320 321 321 321 321 322 322 322 322 324 326 326 327 325 326 326 326 326 327 327 328 329 329 331 331 331 331 333 335 344 353 352 351 351
304 305 305 304 307 306 306 312 320 320 319 320 321 322 323 324 323 323 324 324 325 326 327 326 326 325 325 325 326 326 328 329 330 329 329 333 330 331 331 339 345 349 352 351 351
304 305 306 305 306 306 307 318 320 320 320 320 321 321 322 324 323 323 323 325 325 327 327 328 328 327 326 326 327 328 328 329 330 329 329 332 328 330 332 338 348 347 350 348 347
304 305 306 306 306 306 311 319 320 320 319 319 320 320 322 324 323 323 323 324 325 325 326 327 327 326 325 326 326 327 328 329 329 329 328 328 329 332 331 338 345 348 350 349 344
303 305 310 311 309 307 313 317 320 319 319 320 319 321 322 324 324 324 324 324 324 325 326 326 326 325 326 326 326 327 329 328 329 330 330 329 331 330 335 338 348 349 351 352 348
304 309 314 312 310 309 313 316 317 318 318 319 321 321 322 323 324 325 325 327 326 324 325 326 326 326 326 326 327 327 327 328 329 331 330 330 330 331 331 337 346 348 348 352 351
305 311 312 307 312 311 313 316 315 317 317 318 318 319 320 320 322 325 326 327 326 328 324 325 326 326 326 327 327 328 328 329 329 331 330 331 330 330 330 337 345 347 348 350 347
305 309 314 310 314 314 312 314 315 316 317 318 318 319 319 320 322 324 324 324 325 327 328 327 325 327 327 326 326 326 327 328 329 333 332 331 330 334 339 341 343 349 351 349 343
307 316 317 311 313 316 315 315 315 315 316 316 318 318 319 321 321 323 323 324 323 328 324 325 330 330 327 328 328 327 327 328 329 330 330 332 330 340 341 341 342 345 350 350 345
309 315 319 319 316 314 316 319 319 319 318 317 319 318 319 320 321 322 323 324 324 325 330 333 334 331 329 328 327 328 328 327 329 330 332 333 332 343 342 342 341 342 349 350 349
314 317 318 319 319 319 317 321 322 321 321 320 319 320 320 320 321 322 322 324 325 326 329 332 333 333 332 328 329 329 329 330 330 331 333 335 338 341 341 341 342 342 341 345 348
306 312 315 319 321 320 321 321 321 321 321 320 321 321 322 322 320 321 324 327 328 327 327 329 332 331 330 330 330 329 330 330 332 333 336 334 344 342 344 343 347 346 345 343 341

GFSSW_850_thetae_069.txt.gz
Theta_e
312 312 312 313 313 313 313 314 314 314 315 315 316 317 317 317 318 318 322 326 327 326 327 340 347 347 348 348 343 343 348 338 336 337 338 337 340 342 344 348 348 347 347 348 349
312 312 312 313 313 313 314 314 314 314 315 316 316 316 317 318 318 324 325 322 321 323 331 342 344 344 346 340 338 340 340 337 336 336 336 336 336 340 345 346 350 349 347 350 349
312 312 312 312 313 313 314 314 314 315 315 315 316 316 317 317 322 331 329 326 321 323 338 340 336 341 340 336 336 338 339 337 336 335 335 337 337 338 342 345 348 350 349 350 350
311 312 312 312 313 313 313 314 314 315 315 315 316 316 317 317 331 334 328 326 321 324 338 338 334 338 338 337 336 336 337 336 336 335 335 339 337 338 339 342 344 348 350 350 351
311 311 311 312 312 313 313 314 314 315 315 315 316 316 316 326 324 325 329 324 321 332 335 335 334 336 337 335 336 336 337 335 335 335 338 338 339 339 340 341 344 348 350 350 351
311 311 311 312 312 313 313 314 314 315 315 316 316 316 320 323 326 322 328 321 329 331 332 331 331 333 331 332 334 335 335 335 335 336 338 338 338 339 343 343 346 349 350 350 351
310 311 311 312 312 312 313 313 314 315 315 316 316 316 320 321 322 330 330 329 332 331 329 329 329 328 330 334 332 333 334 336 335 336 337 336 336 342 342 344 348 349 349 350 351
310 311 311 311 312 312 313 313 314 315 315 316 316 316 323 321 322 328 334 333 332 330 327 325 325 327 329 330 332 333 333 334 336 336 335 335 336 338 340 346 349 349 349 350 352
307 309 311 311 312 312 313 313 313 314 315 315 317 325 322 321 320 322 328 330 330 327 327 325 325 327 327 329 330 332 334 333 335 335 334 335 335 336 338 343 348 349 349 350 354
306 307 308 310 312 312 313 314 314 314 316 316 319 323 322 322 322 322 322 324 326 325 325 326 325 328 329 329 329 330 333 334 334 334 334 334 334 335 337 339 344 350 350 350 353
306 306 306 308 310 312 313 315 320 326 322 322 325 323 323 322 323 323 323 323 324 325 327 326 328 328 329 330 330 330 331 333 334 333 333 332 334 335 337 337 341 349 351 351 351
305 307 307 307 308 310 312 318 317 314 318 321 321 322 324 324 324 324 324 325 326 327 327 327 328 329 329 329 329 329 329 330 330 331 331 332 333 335 336 340 340 347 349 350 351
305 306 309 307 308 313 312 316 315 315 319 320 321 322 322 322 323 324 325 325 328 328 328 328 328 329 328 329 328 328 329 330 330 330 331 332 334 334 336 343 344 342 346 349 351
305 306 307 308 311 310 316 316 313 316 320 322 323 323 323 323 324 323 324 325 328 329 329 329 329 328 327 327 327 328 329 329 329 329 329 332 333 336 336 339 344 344 344 348 350
304 305 306 307 306 312 312 312 313 317 320 324 324 323 324 323 324 325 324 325 328 329 329 329 328 328 327 327 327 327 329 329 329 330 330 330 334 334 336 337 339 341 347 347 350
304 304 305 308 309 311 311 312 315 320 321 323 324 324 324 324 326 325 325 324 326 329 330 330 329 329 328 328 327 328 328 329 329 330 330 331 333 334 335 337 336 344 347 349 351
305 304 305 305 310 310 310 313 320 321 323 323 323 324 324 325 327 327 326 326 326 327 328 329 329 329 328 327 328 328 328 329 331 332 330 332 333 334 333 333 336 339 349 351 351
305 305 306 306 310 310 311 316 321 323 323 324 323 324 324 325 325 327 327 328 328 328 328 329 330 329 329 328 328 328 328 329 332 333 333 334 333 332 332 332 335 345 347 352 351
305 308 310 313 312 311 313 317 321 323 324 323 323 322 323 324 325 326 326 327 328 329 329 329 329 330 330 329 329 328 330 330 330 332 332 333 332 332 332 332 333 344 348 351 350
304 309 312 315 314 313 314 317 320 322 322 322 322 323 323 324 325 325 326 326 326 327 328 328 329 330 329 328 328 328 329 329 330 332 333 332 332 332 333 333 337 345 347 351 347
307 311 317 315 316 313 314 317 319 319 321 321 322 322 323 324 325 326 326 326 326 327 328 328 329 329 328 327 328 328 328 329 331 331 331 332 332 336 333 334 337 346 347 353 348
308 314 316 313 316 315 316 317 317 319 319 321 321 321 323 324 324 325 326 327 328 327 326 327 328 328 329 329 329 329 329 329 330 331 331 333 331 331 332 337 340 344 347 352 352
310 310 315 313 318 319 317 316 317 318 319 320 320 321 321 321 323 324 327 326 328 329 329 328 327 328 328 328 329 328 329 330 331 331 333 333 334 335 337 340 344 346 349 352 349
309 316 318 315 316 318 320 318 317 316 317 318 320 320 321 321 323 324 326 326 326 329 325 331 329 328 327 329 329 329 328 329 329 332 331 331 331 337 342 343 345 346 352 352 346
312 316 321 323 319 318 318 319 321 321 319 319 320 319 320 322 322 323 324 325 325 324 329 330 331 330 329 328 330 329 328 328 329 330 330 334 343 343 346 345 344 346 351 352 350
314 318 320 320 322 323 319 321 322 324 324 323 323 321 322 322 322 322 324 325 326 327 328 331 334 335 331 329 329 328 328 329 329 329 329 330 338 335 343 344 344 343 343 347 351
308 309 315 319 322 324 322 320 322 322 323 322 323 323 323 323 322 321 322 325 327 328 329 330 332 335 331 329 329 329 328 328 329 329 330 338 346 344 344 348 347 346 348 348 345

GFSSW_850_thetae_072.txt.gz
Theta_e
312 312 313 313 313 313 314 314 314 315 315 316 316 316 317 317 318 318 323 326 328 329 328 333 344 349 347 348 347 342 344 343 336 337 337 336 339 341 341 346 347 347 348 350 350
312 312 312 313 313 313 314 314 314 315 315 315 316 316 317 317 318 320 323 326 324 324 325 342 345 346 345 346 341 339 341 338 336 336 336 337 336 337 342 349 349 348 350 350 350
311 311 312 312 313 313 314 314 314 315 315 315 316 316 317 317 320 327 329 326 326 321 327 341 342 339 342 341 338 337 338 338 336 335 335 336 338 338 340 346 348 350 350 349 351
311 311 311 312 312 313 313 314 314 315 315 315 316 316 317 317 330 337 333 327 325 321 329 339 340 338 339 340 336 337 337 337 337 335 336 338 337 338 339 342 347 351 350 350 351
311 311 312 312 312 312 313 314 314 315 315 315 316 316 317 323 327 331 326 329 325 321 336 340 339 337 337 337 335 336 336 337 336 336 336 337 338 340 337 341 342 351 350 351 351
312 312 312 312 312 313 313 313 314 315 315 315 316 316 317 324 328 327 323 329 323 325 336 336 338 335 334 333 334 334 334 335 335 336 336 338 337 339 341 342 345 351 350 350 352
311 312 313 313 313 313 313 313 313 314 315 315 316 316 320 321 323 332 333 330 329 331 331 332 334 332 333 333 332 333 334 333 335 336 336 336 336 339 341 343 345 349 350 350 352
308 309 310 313 314 314 313 314 314 314 315 315 315 316 322 322 323 323 333 335 332 332 331 330 328 327 328 329 330 332 332 332 334 336 336 335 335 340 341 342 347 348 349 350 351
308 308 309 310 312 315 314 314 315 315 314 315 315 320 326 323 323 323 328 334 333 332 330 329 327 327 328 328 328 330 329 332 334 335 336 335 335 336 336 342 345 347 348 349 352
308 308 308 308 310 313 316 314 315 316 315 316 316 323 323 324 323 323 324 331 332 331 328 327 327 327 328 328 328 330 330 332 334 335 336 334 334 335 336 337 340 347 349 349 352
307 309 309 309 309 311 316 315 321 325 322 323 325 323 323 324 324 324 323 324 327 327 329 327 328 328 328 329 330 330 330 331 332 334 334 333 333 333 335 337 337 345 350 349 351
307 308 309 310 309 311 314 318 320 317 318 319 321 324 324 325 324 324 325 324 325 327 328 328 328 329 329 330 330 330 330 331 331 331 331 331 332 333 335 336 338 340 349 350 350
307 306 307 310 309 316 315 316 318 316 318 319 319 320 323 324 325 325 325 325 326 327 328 329 329 329 329 329 328 329 329 329 330 331 331 331 331 333 335 335 338 338 346 349 351
306 306 306 309 313 314 315 317 315 316 319 321 322 321 321 323 325 324 325 326 327 329 330 330 330 329 329 328 328 329 329 329 329 330 329 331 330 339 336 336 339 339 339 348 350
307 306 306 304 309 311 315 314 314 316 321 323 325 324 323 323 325 325 324 325 327 328 329 329 330 329 329 329 329 328 328 328 329 330 330 330 330 334 337 338 342 341 340 343 349
314 306 306 307 309 313 313 313 314 319 322 323 324 325 324 324 325 326 326 325 325 327 329 330 330 330 330 330 329 329 327 328 329 329 330 332 331 334 337 338 337 343 343 343 349
319 311 305 306 309 312 312 313 318 320 323 323 323 325 324 325 325 326 327 327 327 328 329 329 329 330 330 329 329 328 326 327 330 330 330 333 331 334 337 338 339 344 344 347 349
318 317 308 309 311 313 314 316 319 322 323 324 324 325 324 324 325 325 326 327 327 327 327 329 328 329 330 329 329 329 328 328 332 331 333 337 332 335 335 333 336 338 349 350 351
317 314 311 313 314 314 314 317 320 322 323 324 324 324 324 324 325 325 325 327 327 328 329 329 328 330 330 330 330 329 330 329 329 330 330 332 336 334 334 333 333 342 347 350 351
316 312 314 315 316 314 316 316 319 321 322 323 324 324 324 324 324 325 325 326 327 328 330 329 330 329 330 331 331 330 329 328 330 334 335 332 336 334 339 337 336 344 345 350 351
314 313 318 317 317 316 317 318 320 320 321 322 323 323 324 324 324 325 326 326 327 327 328 328 331 330 330 331 330 330 329 329 329 331 331 334 334 338 338 337 342 345 345 350 350
311 315 317 316 318 319 319 319 318 319 320 322 322 322 323 323 324 326 326 327 327 329 326 327 327 329 328 330 331 329 330 329 330 333 333 336 333 331 335 335 337 338 347 351 348
311 314 313 315 316 320 321 321 319 319 320 320 321 322 323 322 323 324 324 325 327 328 331 332 327 327 329 329 330 328 328 329 333 335 335 336 333 338 343 343 344 348 349 353 350
310 316 316 318 315 318 320 321 321 319 319 318 320 321 322 322 323 323 323 324 326 327 324 330 331 337 328 330 331 332 329 329 331 335 334 331 346 350 346 347 347 349 353 353 352
313 316 317 322 323 323 322 320 321 322 322 318 321 320 320 321 322 322 323 324 325 323 326 330 337 333 329 328 328 329 330 329 329 330 331 334 349 346 337 337 341 350 354 351 348
314 314 317 318 320 323 322 322 321 321 324 325 324 323 322 323 322 323 323 324 326 328 327 331 336 334 332 330 331 329 330 331 330 328 328 330 344 339 336 339 344 344 351 352 351
311 310 310 314 319 324 324 324 321 322 322 323 325 325 324 322 325 324 322 323 325 329 331 333 336 336 335 332 332 331 330 335 330 331 335 338 346 346 348 349 348 348 349 348 346

GFSSW_850_thetae_075.txt.gz
Theta_e
312 312 312 313 313 314 314 314 314 315 315 315 315 316 317 317 318 318 319 321 325 327 329 329 333 341 348 348 347 347 347 339 335 334 333 339 340 345 347 346 345 349 350 351 352
312 312 312 312 313 313 314 314 314 315 315 316 316 316 317 317 318 320 321 322 325 325 326 326 334 344 346 344 342 340 336 337 335 333 333 334 337 344 348 345 341 351 351 351 352
311 311 312 312 312 313 313 314 314 315 315 315 316 316 317 317 318 334 330 325 325 326 322 324 341 341 342 338 339 339 334 334 335 335 335 334 336 345 347 346 344 351 350 350 351
312 312 312 312 312 312 313 313 314 314 315 315 316 316 316 317 325 333 331 329 327 326 322 325 338 340 339 336 337 337 334 335 335 336 335 336 337 339 343 345 349 350 349 350 351
312 313 313 313 313 313 313 313 314 314 315 315 315 316 316 317 321 322 331 326 328 328 322 328 338 340 338 336 334 331 332 333 334 335 335 336 336 339 343 348 350 350 349 350 351
311 311 312 314 315 314 314 314 314 314 314 315 315 315 315 321 321 326 326 325 325 326 322 333 339 339 338 334 332 332 330 331 332 333 334 335 336 340 341 350 350 350 350 351 351
310 311 312 313 314 316 316 315 315 315 314 314 315 314 315 318 321 331 330 325 328 327 328 334 333 334 335 330 332 330 328 329 331 332 332 334 334 339 340 350 350 351 350 351 351
309 310 311 312 314 316 318 318 316 315 316 314 314 314 315 319 320 322 325 329 331 330 330 331 330 331 327 327 327 326 325 326 329 330 331 333 332 338 341 344 351 350 350 351 352
308 310 311 312 312 314 318 320 319 316 315 315 314 316 321 323 323 322 323 328 335 333 332 332 330 329 326 324 323 323 324 325 327 329 331 333 333 335 340 345 347 350 350 350 352
308 308 309 312 312 312 316 321 320 320 317 317 315 321 320 322 326 323 323 325 333 334 332 332 328 324 322 322 322 324 325 325 327 330 332 333 331 331 334 344 347 348 350 351 352
307 308 308 310 312 311 314 319 319 323 320 323 324 318 320 322 324 324 323 324 327 333 330 330 323 323 323 323 325 326 326 326 328 329 328 328 332 332 332 334 342 348 349 353 353
311 308 308 309 313 312 316 317 316 319 317 317 317 318 320 322 323 324 324 323 325 326 327 325 325 325 327 327 327 326 326 328 328 329 328 327 328 329 330 330 336 348 349 352 356
319 313 307 308 311 315 316 317 316 316 315 316 317 318 319 320 321 324 324 324 322 323 324 324 325 327 327 327 327 324 326 327 327 326 326 327 328 329 329 331 336 349 349 350 356
319 319 311 308 311 313 314 315 315 314 314 318 319 320 319 320 320 322 324 324 324 323 324 324 326 327 328 327 326 324 327 328 327 325 324 327 325 326 329 328 335 339 351 350 357
319 319 318 309 307 310 313 314 314 315 318 322 322 323 322 320 320 321 323 325 323 325 324 325 326 328 328 328 327 325 326 326 326 323 326 327 325 325 329 329 335 334 347 351 357
319 317 319 317 307 312 312 312 313 316 320 321 322 322 322 322 321 321 323 325 324 323 325 325 327 327 327 329 328 328 326 325 323 321 323 325 327 327 327 330 339 338 340 352 360
318 317 318 317 309 308 311 313 315 317 321 321 321 321 323 322 322 322 321 323 322 321 321 324 326 327 328 327 327 327 324 321 322 323 325 324 326 327 332 337 341 340 346 353 361
317 317 319 311 311 311 314 314 317 320 320 321 321 322 323 323 323 323 322 322 324 323 322 322 324 326 327 327 327 326 323 321 324 327 327 327 329 329 332 333 342 342 347 352 361
317 318 313 311 313 315 314 315 318 320 321 321 320 321 323 324 323 323 323 322 324 324 324 323 324 327 327 328 327 327 325 324 324 323 324 325 328 333 335 340 342 349 349 351 359
316 316 315 315 314 314 315 315 317 317 318 319 320 321 323 323 323 323 324 325 325 325 325 324 324 325 327 327 328 326 326 325 322 326 328 329 332 334 336 337 350 350 350 351 358
315 315 316 317 317 317 316 316 318 318 318 319 320 321 321 322 322 322 324 325 325 326 326 326 325 326 326 326 325 328 327 325 323 324 325 328 328 334 334 334 342 345 351 351 355
311 315 318 318 318 318 318 319 319 319 318 319 319 320 321 322 322 322 322 324 325 324 324 329 328 325 325 326 328 327 327 326 325 325 327 326 326 341 333 336 342 344 336 346 352
309 313 315 316 316 315 316 319 320 321 319 318 319 319 320 321 321 323 323 323 324 324 328 327 329 329 327 325 325 326 328 327 326 324 324 327 332 345 344 343 346 349 343 350 352
307 315 316 315 318 319 318 319 320 320 322 322 319 318 318 319 320 322 323 323 323 323 326 326 328 334 331 330 329 328 329 327 324 327 326 327 339 346 343 344 346 348 346 350 347
311 317 315 319 317 319 322 323 322 321 320 324 325 321 320 319 320 320 321 322 323 323 326 327 329 333 329 330 329 328 328 328 327 327 331 329 346 339 337 338 351 346 334 338 348
310 312 311 312 314 317 320 323 325 322 323 324 323 324 324 324 323 323 321 320 322 324 326 331 333 334 335 332 330 332 333 333 336 339 336 339 344 335 336 346 348 336 342 351 353
313 311 311 311 313 316 321 324 325 324 323 323 323 323 324 325 326 327 326 325 322 321 330 332 330 331 335 333 332 332 345 345 345 339 344 348 346 345 348 348 349 350 352 353 355

GFSSW_850_thetae_078.txt.gz
Theta_e
312 312 312 313 313 313 313 314 314 314 315 315 315 316 316 317 318 318 319 320 321 325 326 329 328 329 344 347 348 350 346 349 345 333 332 341 341 342 346 349 349 349 349 349 349
312 312 312 312 313 313 313 314 314 314 315 315 315 316 316 317 318 320 327 321 322 324 324 324 324 327 342 342 340 339 337 337 336 332 331 339 343 344 345 346 352 350 350 349 348
313 313 313 313 313 313 313 314 314 314 315 315 315 316 316 317 318 330 331 329 326 327 325 325 322 333 339 340 338 335 336 334 332 334 333 332 344 346 344 343 351 351 350 349 349
313 314 314 315 314 314 314 314 314 314 314 315 315 315 316 317 316 329 321 328 327 326 327 325 321 334 337 337 339 332 332 330 329 330 330 332 339 347 344 344 349 351 352 351 350
313 313 314 315 316 317 316 315 315 315 314 314 315 315 316 316 318 320 321 330 326 326 328 325 323 335 337 337 336 331 329 329 328 329 330 332 333 335 345 345 350 351 351 350 350
312 313 314 315 316 317 318 319 318 316 315 315 314 314 315 318 319 320 326 329 326 325 327 322 329 339 338 335 330 331 327 327 327 328 329 330 331 337 344 347 350 350 350 350 351
308 310 312 314 315 316 318 320 320 319 316 315 315 314 313 318 319 320 329 331 329 325 327 321 327 335 334 329 329 326 324 325 326 327 327 330 328 335 346 350 349 349 349 350 351
308 308 309 310 314 316 316 317 321 320 319 316 314 314 313 319 320 320 319 320 326 330 327 330 332 332 329 327 324 323 323 322 325 325 327 328 327 330 348 349 349 349 350 350 351
316 312 309 309 310 315 317 316 320 320 319 317 314 314 315 318 321 324 320 321 324 330 329 331 331 331 327 322 319 319 321 322 324 326 325 327 327 330 349 349 349 349 350 350 351
319 319 318 312 309 312 316 317 318 320 320 321 316 318 316 318 321 322 324 322 325 333 334 333 331 323 319 318 321 321 321 321 323 326 325 325 328 329 345 349 350 349 350 351 351
320 319 319 319 309 310 316 317 316 319 316 316 317 319 319 320 320 321 324 323 324 333 330 331 326 323 322 320 322 322 322 322 324 325 326 324 325 327 332 349 349 349 350 351 351
319 319 319 319 314 312 315 314 314 313 312 315 316 316 318 320 317 322 323 322 323 326 327 327 325 327 324 324 324 323 323 323 323 325 325 323 325 325 325 331 344 347 349 352 353
319 319 319 319 314 313 313 314 314 313 312 314 317 317 318 320 318 319 320 322 319 322 324 325 328 327 325 325 325 323 322 323 324 325 323 325 324 324 325 328 340 347 350 352 354
319 319 318 319 314 310 313 313 314 314 309 314 316 319 318 318 318 320 321 320 320 320 321 321 323 323 324 325 324 322 324 324 325 324 322 323 322 322 323 325 337 346 352 354 355
319 318 318 317 318 314 311 313 313 315 315 319 320 320 321 319 321 321 321 319 320 321 319 320 322 322 323 324 325 325 325 324 324 322 321 321 322 322 323 326 326 343 350 355 355
317 318 317 317 318 310 311 312 314 312 316 319 320 319 319 320 319 321 321 320 321 320 320 321 323 323 323 325 326 325 324 321 319 316 319 319 323 323 323 324 327 333 348 355 356
317 316 316 317 318 311 309 313 311 313 316 318 318 317 318 319 321 320 319 318 317 319 319 320 320 322 324 324 324 325 319 320 321 319 321 319 323 323 323 324 325 330 347 355 357
316 315 317 315 311 311 313 310 314 316 317 318 317 317 318 319 321 321 319 317 317 317 318 320 321 320 323 322 323 323 319 319 321 320 321 323 324 326 325 327 328 334 347 356 358
315 316 314 312 313 313 314 310 312 316 318 317 316 317 318 319 320 319 321 322 319 320 318 319 319 322 322 323 323 323 324 320 319 320 321 321 322 327 332 337 341 346 356 359 360
316 316 315 313 315 315 310 311 312 315 315 316 316 317 317 318 318 318 319 322 323 324 323 324 323 321 323 324 324 323 323 323 318 323 323 323 325 328 333 341 347 348 359 360 360
315 312 316 317 316 315 311 310 314 317 317 316 316 315 316 317 318 318 319 321 321 322 322 324 323 324 325 324 323 323 324 323 320 319 322 323 324 327 334 331 341 347 355 359 361
312 309 316 316 315 313 312 316 318 317 317 317 315 315 317 317 318 318 320 320 321 321 324 325 323 323 324 325 325 324 324 323 325 322 321 322 323 337 341 345 343 347 354 358 359
309 310 317 316 310 308 309 313 318 318 319 318 317 319 316 316 317 318 319 319 320 323 323 323 323 323 328 324 324 323 324 323 320 319 326 324 323 340 344 344 345 349 350 352 356
307 307 315 315 315 315 315 317 320 321 320 322 322 320 319 316 317 317 318 319 320 322 324 323 322 325 327 329 326 327 327 327 324 323 323 321 325 342 345 340 341 344 348 350 352
309 312 310 308 310 309 312 316 319 322 321 320 320 321 321 321 320 320 320 322 323 321 322 321 324 327 327 330 329 330 329 336 330 331 326 324 333 338 341 335 334 338 341 339 335
311 311 311 311 310 309 311 317 320 323 321 320 320 321 319 321 323 324 323 322 319 319 321 323 323 328 331 331 343 347 344 342 340 339 341 339 337 337 338 336 336 335 334 337 337
311 311 311 310 307 308 310 312 316 316 322 322 320 321 322 322 324 324 324 323 321 321 321 326 324 325 328 329 332 344 345 342 342 340 339 345 339 340 343 343 345 345 341 348 351

GFSSW_850_thetae_081.txt.gz
Theta_e
312 312 312 312 312 313 313 313 313 314 314 315 315 315 316 317 318 318 319 320 319 321 325 326 328 329 338 344 347 348 347 347 347 342 330 338 340 342 346 348 349 348 348 345 349
313 314 314 314 314 313 314 314 314 314 314 315 315 315 316 316 318 320 329 322 320 323 325 325 325 324 334 345 345 344 342 340 337 333 330 337 340 342 347 348 351 349 348 347 348
315 316 316 316 316 316 315 315 314 314 314 314 315 315 316 316 317 329 329 327 324 324 324 325 325 324 335 339 337 333 333 333 329 328 328 331 339 344 345 349 350 349 348 347 348
313 315 316 317 318 318 318 318 317 316 315 315 315 315 315 316 316 332 326 321 328 327 325 325 324 326 335 337 337 335 334 331 328 327 326 327 340 346 346 342 349 348 346 348 348
309 310 312 314 316 318 319 320 319 319 318 316 315 315 315 315 317 319 319 319 329 325 325 326 325 328 335 335 335 333 330 327 326 329 328 329 340 345 344 343 349 348 348 348 347
309 308 308 309 311 313 315 316 318 320 320 319 316 314 314 315 319 319 322 328 328 327 325 326 325 327 336 335 331 331 328 325 327 328 327 327 327 339 344 348 349 349 349 349 346
319 319 317 313 309 310 313 315 316 317 320 320 319 314 314 317 319 319 320 319 330 330 329 326 324 331 333 331 328 325 323 322 325 326 324 327 325 327 341 350 350 350 349 349 346
320 320 320 320 318 312 311 314 316 316 320 320 319 315 314 320 319 319 319 320 319 319 326 329 325 330 330 329 322 322 320 323 324 323 324 325 323 325 343 351 351 350 350 349 348
320 319 319 319 319 319 311 315 317 318 319 320 318 314 315 319 318 319 323 322 322 319 324 332 330 330 329 320 319 317 321 321 321 324 324 325 323 325 341 349 350 350 350 350 349
320 319 318 318 319 319 312 316 317 319 318 319 317 318 318 319 318 319 320 321 322 321 324 333 331 323 317 318 322 320 321 320 322 322 322 322 323 323 345 348 349 349 349 349 349
320 319 318 318 318 314 314 316 315 315 315 313 314 314 317 321 320 321 321 320 320 330 330 331 327 326 324 319 322 321 321 320 321 322 323 322 322 323 348 348 348 348 349 349 350
320 319 318 318 318 312 311 313 311 310 310 315 315 316 316 317 316 320 319 319 324 325 327 327 327 328 327 322 322 321 321 321 321 322 320 321 321 322 341 348 348 348 348 349 349
319 319 318 317 317 314 311 312 312 312 311 315 316 315 318 317 315 318 318 319 319 320 324 328 327 328 326 325 323 321 321 322 321 323 321 321 322 322 323 338 347 348 348 349 350
318 318 316 316 318 318 311 312 312 313 309 312 317 317 319 317 316 320 321 319 318 318 318 321 322 325 324 324 322 321 322 322 323 321 322 321 320 320 321 321 330 345 348 349 350
317 317 317 316 316 317 311 312 313 313 314 317 318 318 319 318 320 321 322 318 317 318 317 319 320 320 322 323 322 322 323 322 323 321 320 321 318 319 321 322 323 340 346 348 351
317 317 316 316 317 315 311 311 314 311 314 317 317 316 316 317 318 321 320 319 319 317 317 317 320 319 320 321 321 323 324 319 316 314 317 318 318 319 319 321 322 338 346 349 353
316 315 315 316 317 316 309 313 310 313 314 316 316 314 314 316 317 319 319 316 315 316 316 318 318 319 321 321 322 323 318 322 320 318 320 317 319 320 320 321 322 323 343 349 353
314 315 315 312 313 310 311 309 314 314 315 316 315 314 317 316 317 318 318 318 316 315 315 317 318 319 319 320 319 319 316 318 322 321 322 319 321 322 322 323 329 333 329 344 354
314 316 311 313 312 311 313 309 312 313 316 314 313 315 315 316 316 316 317 319 320 320 317 315 318 319 319 320 320 320 320 318 320 317 318 319 320 323 324 327 343 342 333 348 354
315 316 313 313 314 314 307 310 310 312 313 314 315 315 315 315 315 315 317 319 319 320 320 322 324 321 322 321 321 320 321 322 318 322 321 320 323 323 323 329 344 352 341 349 354
314 315 315 313 314 315 309 308 311 315 316 315 315 315 315 314 316 316 318 318 318 319 320 321 320 322 324 323 322 321 321 321 320 319 320 320 321 320 329 336 333 347 354 355 356
314 311 314 314 314 308 311 313 316 316 320 315 314 315 314 315 315 317 317 319 319 319 322 321 318 322 322 322 322 321 321 320 324 324 316 318 320 328 340 344 342 349 358 359 358
310 310 315 314 311 307 309 313 314 319 319 318 319 320 317 315 317 315 318 319 321 320 324 322 319 321 323 325 324 325 321 322 318 317 321 322 324 336 342 341 348 351 357 358 359
309 308 313 313 312 311 311 312 316 319 320 320 320 319 319 319 318 316 321 322 324 323 323 321 318 322 324 325 326 328 328 321 321 320 321 321 320 339 337 336 334 338 351 355 353
309 310 309 306 308 307 308 312 316 316 321 319 318 319 319 320 320 323 322 322 324 322 320 319 322 320 325 327 335 330 335 328 333 328 329 336 342 344 338 335 334 336 339 342 341
311 310 310 309 308 306 307 311 313 313 317 320 320 319 319 321 323 323 323 321 322 321 320 317 321 327 327 327 335 344 342 341 342 339 343 345 346 342 341 342 341 340 348 344 341
311 310 309 309 305 306 307 309 311 310 315 319 320 320 321 322 321 321 322 322 321 322 318 319 321 321 322 325 331 336 343 341 340 339 342 344 340 340 339 340 340 341 344 347 344

GFSSW_850_thetae_084.txt.gz
Theta_e
314 314 314 314 314 314 314 314 314 314 314 315 315 315 316 316 317 318 319 319 319 319 319 321 329 332 343 349 350 351 346 348 344 342 330 330 339 340 345 348 348 348 349 344 346
315 315 316 316 317 317 317 317 316 315 315 315 315 315 316 316 317 319 327 325 320 319 325 326 328 331 337 342 346 344 343 342 336 335 327 326 339 343 347 348 349 348 347 346 346
310 312 313 315 316 317 318 318 318 318 318 316 315 315 315 316 317 325 323 327 321 323 324 325 326 326 335 339 341 339 335 332 333 330 328 326 335 343 346 348 349 348 347 347 346
309 309 309 310 311 313 315 317 318 319 319 319 318 316 316 315 315 330 324 320 320 322 323 324 324 323 330 334 337 333 332 334 330 327 325 325 335 343 346 346 347 348 347 346 346
319 319 319 317 313 311 311 312 314 315 318 319 319 318 316 315 318 321 319 320 319 324 324 325 324 325 331 333 335 333 333 329 327 326 326 327 334 342 344 345 343 348 347 344 345
320 320 320 320 320 320 318 311 312 314 315 319 320 319 317 312 319 319 319 319 323 327 326 327 325 325 326 334 332 332 330 326 324 324 327 325 325 341 342 344 344 347 347 344 344
320 319 319 318 318 319 320 318 312 314 315 315 320 320 318 319 319 319 318 318 319 319 330 327 327 325 331 330 329 327 322 321 323 325 324 324 325 334 330 343 347 349 347 345 344
320 320 319 317 317 317 319 316 314 316 317 318 320 319 317 319 320 320 318 317 320 322 320 323 327 326 327 329 321 320 319 322 322 322 324 324 322 324 332 348 348 349 349 347 346
319 320 319 317 317 318 319 314 315 316 318 319 318 316 316 317 318 320 320 319 321 322 319 324 331 329 327 321 320 317 321 320 320 321 323 323 322 322 324 345 349 348 348 349 348
317 318 319 318 317 317 312 315 316 316 319 316 318 318 319 318 318 318 319 320 319 320 321 324 330 322 317 320 326 322 321 319 320 322 320 321 320 320 324 344 349 349 349 349 349
317 316 319 317 316 314 312 316 315 314 314 314 315 314 317 317 317 318 318 319 319 323 327 329 325 324 326 321 322 321 320 320 319 320 322 320 320 321 324 347 348 349 349 349 349
316 316 316 314 315 314 312 312 309 309 310 315 314 314 318 316 314 318 317 318 322 322 326 325 326 326 327 322 322 321 321 320 320 321 321 321 320 321 327 346 347 348 348 348 348
317 316 315 315 315 317 312 310 310 311 310 314 315 316 317 315 315 318 318 318 318 321 324 322 324 327 327 326 325 322 321 321 321 320 319 320 319 320 321 336 346 347 347 348 348
317 316 316 315 315 317 311 310 310 312 308 312 316 317 318 317 316 319 320 319 317 316 317 320 324 325 325 326 324 324 322 322 321 320 320 320 320 319 319 323 337 346 346 347 348
315 316 315 314 316 317 312 311 313 312 312 314 317 318 317 317 318 320 320 317 316 316 316 317 319 320 323 323 321 323 322 321 322 320 319 320 318 318 318 319 319 324 345 347 347
314 314 314 316 316 317 314 311 313 310 312 314 316 314 313 316 317 319 319 317 317 315 316 316 318 318 319 320 320 322 321 318 313 313 318 318 318 318 318 320 320 324 328 340 347
311 313 315 314 314 316 310 313 310 311 313 315 314 313 312 314 315 316 317 316 314 315 314 315 316 318 319 319 319 320 317 318 319 319 320 316 316 317 319 319 319 320 330 332 339
314 315 312 312 311 310 312 309 314 314 314 314 314 312 314 314 315 315 316 316 317 314 313 314 316 317 318 318 318 318 315 317 320 319 319 317 319 322 321 320 321 323 325 327 334
315 314 313 314 312 312 313 310 312 312 314 313 312 314 314 315 315 314 315 317 318 318 318 315 317 317 318 318 318 318 318 317 318 315 317 318 318 319 320 321 326 337 345 336 335
315 314 312 314 314 314 306 309 310 310 313 313 315 314 314 314 314 313 315 317 317 318 316 318 322 321 322 319 319 318 318 319 318 327 324 321 320 322 323 321 330 336 338 339 336
315 315 314 313 315 315 308 308 310 315 314 314 314 314 314 315 314 314 316 316 317 318 317 319 319 321 322 322 321 321 319 319 320 319 322 323 322 318 325 340 343 343 344 350 347
315 310 313 313 313 306 311 312 315 315 318 316 314 313 315 314 314 315 315 316 319 322 319 319 316 320 323 322 321 320 320 318 321 322 319 319 323 339 338 338 336 341 350 356 355
310 311 313 313 311 307 309 312 313 316 318 319 318 319 317 317 319 317 318 322 322 323 320 320 316 320 322 323 325 326 324 319 318 318 321 322 323 337 336 333 337 341 345 351 355
311 308 312 313 310 309 308 310 314 316 318 319 318 318 318 319 317 316 322 322 323 324 323 319 319 323 322 324 325 329 328 329 317 317 319 320 323 340 337 336 337 344 342 346 346
311 308 307 307 308 307 307 309 314 313 314 318 318 319 318 320 321 322 321 321 322 323 320 318 319 321 323 323 327 331 339 340 330 321 322 325 337 342 338 339 341 342 340 341 344
311 310 310 308 307 306 306 310 311 311 311 318 319 318 318 320 321 321 321 320 321 320 320 315 320 325 325 325 327 336 331 332 340 341 345 344 343 341 339 341 343 344 342 339 335
311 310 309 308 305 306 306 309 310 309 312 314 317 318 317 318 319 319 319 319 319 319 318 316 317 318 321 323 328 337 338 337 339 337 339 342 341 339 339 338 340 340 341 341 340

GFSSW_850_thetae_087.txt.gz
Theta_e
313 314 315 316 317 318 318 318 318 317 316 316 316 315 316 317 317 317 318 318 318 318 330 328 331 335 346 348 352 353 350 348 343 339 335 331 331 342 345 348 347 346 349 346 341
309 309 310 310 312 314 316 318 318 319 319 318 317 316 316 316 319 319 323 326 321 318 322 322 329 339 345 342 347 348 351 344 341 337 333 330 329 342 347 349 350 350 347 346 340
316 316 315 314 313 311 311 312 315 317 319 319 319 319 317 316 318 325 321 322 318 320 324 327 329 331 336 339 345 347 344 342 337 336 330 329 328 341 346 350 349 350 350 345 341
320 320 320 320 320 320 319 316 312 313 316 318 319 319 319 317 321 328 324 322 319 320 325 328 328 329 327 332 336 339 340 338 336 328 326 329 331 341 344 343 346 347 347 345 341
320 319 319 319 319 319 319 320 320 313 313 314 316 319 319 317 317 319 319 322 321 319 323 324 324 325 327 330 335 337 336 336 335 327 325 327 328 335 342 343 344 346 347 345 343
320 320 319 318 317 316 316 317 319 319 314 315 314 317 318 318 319 318 318 319 320 323 325 325 326 325 326 327 332 333 332 332 327 325 325 328 329 331 337 342 345 346 347 347 343
316 317 318 318 317 314 315 316 318 317 316 316 316 317 318 319 319 318 318 317 316 316 317 326 328 326 330 332 331 329 329 330 329 328 328 326 327 333 331 329 348 350 350 349 344
315 315 315 317 317 314 315 318 318 315 316 317 318 318 318 319 318 318 318 318 319 321 319 318 328 327 327 327 325 326 324 329 328 325 326 325 328 331 330 340 345 350 350 350 347
314 314 313 315 316 315 317 315 316 316 316 318 319 317 317 317 317 319 319 319 319 320 321 325 327 328 327 327 330 327 330 328 327 324 324 325 326 328 329 327 338 349 351 350 350
314 315 315 315 313 315 315 315 315 315 318 315 317 317 318 317 317 317 318 318 319 319 323 326 328 329 328 330 328 329 327 324 326 327 326 326 326 327 326 326 336 346 350 352 350
316 315 314 314 314 315 315 315 314 314 314 315 314 314 318 317 317 317 317 318 318 321 322 327 326 327 330 330 329 328 328 328 327 325 324 326 327 328 327 328 340 347 349 350 351
316 315 314 315 314 316 312 311 309 311 312 315 315 316 317 316 316 318 317 317 320 322 327 326 326 328 330 331 329 329 330 330 328 324 326 329 328 328 327 330 337 344 349 350 350
314 314 314 315 315 316 311 310 310 311 312 314 315 316 317 315 316 318 318 318 320 322 323 322 323 326 329 330 330 331 332 332 330 329 325 325 327 329 329 326 332 342 346 349 350
312 314 314 314 314 316 311 311 311 312 315 316 318 317 317 316 317 319 319 318 319 321 321 323 324 325 327 327 330 330 329 330 329 329 332 324 326 328 329 327 329 333 344 347 349
312 312 313 313 316 316 313 313 312 311 317 317 318 317 317 317 318 320 319 317 320 320 320 322 322 325 325 326 326 325 325 325 325 328 325 325 325 327 328 328 329 329 331 342 346
312 313 313 315 314 317 316 310 312 316 316 317 316 316 317 317 317 318 318 317 316 318 319 319 318 320 324 325 325 324 325 323 321 323 325 326 326 327 328 329 329 328 326 330 340
314 314 314 311 311 314 310 313 316 316 316 317 317 317 316 317 318 318 319 321 320 321 321 321 320 320 320 321 322 323 323 323 324 325 326 324 324 327 329 328 328 328 327 327 329
315 314 312 312 311 310 312 316 317 315 316 316 317 316 317 317 318 317 319 321 320 321 321 321 322 320 320 321 323 323 324 324 325 325 326 324 324 327 328 326 326 328 335 339 340
315 312 313 314 313 312 313 318 318 316 315 317 318 319 319 318 317 318 318 319 320 322 324 323 323 324 319 321 322 323 323 324 324 323 323 324 326 327 329 330 337 344 346 349 346
315 313 313 315 315 314 314 313 314 312 314 316 319 317 320 321 318 318 319 319 320 322 323 323 325 326 325 321 321 323 323 323 324 325 326 326 328 327 331 336 344 345 348 355 354
315 314 314 313 315 315 316 315 314 315 314 317 318 319 319 320 318 318 318 321 322 325 324 323 324 326 326 326 326 323 323 323 325 326 326 327 327 330 335 345 346 348 352 358 356
313 316 314 314 316 309 316 314 314 317 318 318 317 317 319 319 322 318 319 324 323 324 326 323 324 326 326 325 324 325 327 327 326 328 327 327 328 341 342 342 345 349 349 354 357
311 312 313 314 317 315 313 314 314 318 319 321 321 321 320 321 323 322 322 323 323 324 326 326 325 325 325 326 327 329 330 335 332 327 329 327 328 340 341 346 345 349 350 349 353
311 315 312 312 309 312 313 314 316 316 317 319 321 321 322 323 321 324 323 323 322 323 323 322 325 327 325 327 327 328 330 338 335 332 328 328 328 342 343 345 344 344 347 348 345
311 311 308 314 312 310 310 312 315 317 315 318 321 321 321 323 323 324 323 323 322 322 324 324 328 325 325 326 327 328 330 336 336 341 338 332 329 343 341 345 342 341 341 343 344
311 311 309 310 308 309 309 313 313 314 313 320 320 319 320 323 323 324 323 324 324 323 324 324 327 327 327 325 326 329 331 331 334 336 338 343 343 340 338 341 342 343 342 341 340
312 311 310 309 309 312 313 312 312 310 313 313 316 315 319 321 317 317 318 320 322 324 324 324 326 327 327 325 326 328 339 339 332 333 339 342 342 340 342 340 338 339 340 339 339

GFSSW_850_thetae_090.txt.gz
Theta_e
312 312 312 312 312 313 314 315 317 318 319 319 319 317 317 316 318 320 319 319 318 318 323 342 343 345 349 347 347 351 348 345 342 340 339 335 335 337 345 345 348 348 350 349 351
318 318 318 318 318 316 315 313 313 315 317 318 319 319 319 318 318 320 323 325 322 318 329 338 338 342 344 341 343 347 345 343 341 340 340 336 335 335 345 347 349 349 352 352 351
320 320 320 320 320 320 320 319 317 314 313 315 317 318 319 319 320 324 321 320 319 318 335 332 334 338 336 334 335 340 344 340 339 339 338 335 336 335 341 345 349 351 353 353 350
320 320 319 319 318 317 318 319 319 319 318 313 314 315 318 319 324 326 323 318 319 322 331 332 333 333 331 329 329 335 334 333 336 337 335 334 334 335 336 337 344 347 352 352 350
319 318 317 317 317 316 315 315 316 317 319 318 314 314 316 321 321 319 318 320 320 329 330 330 331 330 328 328 328 330 331 330 333 335 333 331 332 334 334 335 345 348 353 352 350
315 314 312 313 314 315 315 313 314 315 317 318 316 315 317 321 320 318 317 321 329 329 326 328 327 327 328 328 328 328 330 331 331 332 332 331 331 332 333 338 346 350 352 352 350
313 312 312 312 312 314 313 314 316 317 317 316 317 317 319 319 320 321 318 326 325 324 323 325 328 329 328 330 330 331 331 331 330 329 330 329 330 330 330 336 339 348 350 351 351
311 312 313 313 312 313 313 316 316 316 316 316 317 318 320 319 318 318 318 318 319 321 322 321 323 328 328 329 329 330 331 331 331 329 328 328 328 329 331 333 333 342 346 350 352
312 314 313 313 312 312 315 315 315 316 316 317 319 319 321 318 319 320 320 320 320 324 325 326 325 326 326 328 327 329 331 331 331 329 328 328 328 329 329 329 329 331 347 349 353
312 314 314 313 314 314 316 315 315 315 316 315 317 322 321 319 318 318 318 320 320 323 326 328 328 329 329 329 329 328 330 331 330 330 330 329 329 328 328 329 330 331 343 348 351
311 313 313 314 314 316 315 314 317 318 317 317 318 318 319 318 318 318 318 319 320 321 324 326 328 328 327 329 329 328 328 330 330 331 330 330 329 330 329 330 330 333 343 349 350
311 311 312 314 314 316 313 313 311 312 318 316 316 316 317 316 319 320 318 320 321 322 324 326 328 326 326 327 328 329 330 329 330 331 329 330 331 330 330 330 330 332 340 347 350
310 312 312 314 315 317 312 312 311 312 318 318 318 318 318 317 320 321 320 321 323 324 324 324 325 325 325 327 327 328 329 330 330 331 332 332 333 330 330 330 330 331 336 344 348
311 311 311 313 317 316 315 312 312 312 322 320 321 320 320 320 321 320 320 321 324 324 324 325 325 324 324 325 326 326 327 328 331 331 332 331 333 331 330 331 331 330 333 342 347
313 313 313 314 315 317 315 314 312 312 325 320 320 318 320 321 321 322 320 321 323 324 323 324 324 324 325 324 325 326 326 327 328 328 329 329 331 330 330 330 331 331 330 332 341
314 314 314 312 313 316 315 311 312 322 324 320 319 320 321 321 321 321 322 321 320 323 323 323 323 323 324 325 325 326 326 326 326 326 327 329 329 330 330 331 331 331 330 330 331
314 315 312 311 314 313 311 314 322 323 320 321 320 321 320 321 321 322 323 324 324 326 327 326 326 325 323 323 324 325 326 326 327 326 326 327 329 330 330 330 331 331 332 336 337
314 313 314 312 311 311 312 320 323 319 320 321 321 321 321 320 321 321 323 324 324 326 326 327 327 325 326 324 324 325 325 325 327 326 327 329 328 329 330 329 335 339 341 342 347
314 312 314 315 315 312 316 322 323 319 320 321 322 322 322 322 321 321 322 323 323 326 328 328 327 326 327 327 324 324 325 325 326 326 326 327 328 329 328 329 331 336 339 342 347
314 313 316 315 316 314 319 317 320 320 320 321 322 322 323 323 322 322 321 322 323 324 325 326 327 326 327 327 327 324 325 326 325 326 326 326 327 328 330 330 332 337 342 348 354
314 317 315 315 316 318 320 320 320 321 320 322 322 322 323 323 323 322 321 322 324 324 325 327 327 327 327 327 328 328 327 327 324 324 328 328 327 329 332 333 342 342 350 353 357
314 320 315 315 320 318 320 320 317 321 322 323 322 322 323 323 323 323 323 323 323 324 325 326 327 327 326 326 327 330 329 330 334 331 329 327 327 337 340 341 345 348 352 352 356
315 316 315 316 321 320 318 318 319 321 323 324 324 323 324 324 324 324 324 322 322 323 324 326 327 328 327 326 327 330 329 329 333 333 339 332 330 342 342 345 349 350 351 350 349
315 319 317 316 316 319 319 319 320 319 321 322 324 323 324 324 324 325 324 323 323 322 322 325 326 328 327 327 327 328 327 329 334 331 331 335 337 341 344 347 347 348 348 345 344
315 318 314 320 319 318 318 318 319 320 320 321 324 324 324 324 324 324 324 325 324 323 324 326 329 327 327 327 326 327 327 327 332 334 339 337 340 344 345 346 345 346 348 347 346
316 316 315 316 316 317 313 319 318 318 319 322 323 323 322 324 325 325 324 325 324 324 326 327 329 328 328 326 325 326 326 326 332 334 334 334 335 343 342 344 343 342 343 343 342
313 313 314 315 317 317 318 318 317 316 317 317 320 321 321 322 321 320 320 321 322 326 328 329 329 330 328 327 326 327 327 335 337 336 338 338 343 342 344 341 342 342 340 341 340

GFSSW_850_thetae_093.txt.gz
Theta_e
318 318 318 318 318 318 317 317 316 314 315 316 318 319 319 319 318 319 326 326 323 319 318 338 345 345 345 346 347 345 351 347 344 342 340 338 337 336 343 344 348 348 350 352 352
320 320 320 320 320 319 319 319 319 318 317 315 315 317 318 320 320 322 325 324 321 318 324 340 341 340 340 342 342 346 348 345 343 341 341 339 337 336 339 344 349 349 352 351 351
320 319 319 318 318 318 317 317 317 319 319 318 315 313 316 318 322 328 322 322 322 318 336 337 335 337 337 337 337 339 342 342 341 340 339 339 337 337 338 339 343 349 353 353 352
316 316 314 314 313 315 315 315 314 315 317 318 319 314 314 317 328 329 323 320 320 326 336 333 332 335 336 333 331 333 332 333 334 334 336 339 338 336 336 337 337 341 353 354 353
314 313 311 311 310 311 313 314 314 313 314 316 318 316 315 325 325 326 323 320 319 334 331 333 333 334 334 331 330 330 331 330 330 331 333 336 336 335 335 335 336 341 353 354 353
311 311 310 311 311 311 311 313 313 314 316 317 317 317 316 323 321 326 331 320 329 334 331 331 331 331 331 331 331 330 330 330 329 329 330 332 333 333 334 335 338 345 350 352 352
310 311 311 311 311 312 312 312 314 316 316 316 316 317 323 322 323 327 330 330 331 331 329 328 328 329 329 331 331 331 333 332 332 331 331 331 331 332 332 333 334 343 348 350 351
310 310 311 312 311 311 312 314 315 315 316 316 317 318 324 321 320 320 322 327 325 322 323 325 324 326 328 329 330 331 331 332 332 333 331 330 330 330 330 331 334 336 343 348 350
310 310 310 312 312 312 314 315 315 316 316 317 325 326 325 320 321 322 322 321 321 322 324 325 324 324 325 329 330 330 329 330 331 333 332 331 330 331 330 330 331 332 332 343 348
310 310 310 312 313 313 316 316 316 317 316 319 322 325 324 322 321 321 321 322 322 322 326 327 327 328 328 329 329 330 331 331 331 333 333 332 332 332 331 330 330 330 331 335 346
310 310 310 313 314 315 316 320 321 322 321 321 322 322 322 321 321 322 321 321 321 323 325 326 329 329 329 330 331 331 330 331 330 331 332 332 332 332 331 331 331 331 331 333 345
311 310 310 313 314 316 317 318 316 316 322 320 320 321 321 320 323 323 322 323 323 324 325 326 327 328 329 329 328 328 329 330 331 331 331 331 332 332 332 333 331 331 332 335 343
311 312 311 313 315 320 317 316 316 316 321 322 321 322 322 321 323 324 323 324 326 327 327 327 327 327 327 327 327 328 329 329 329 330 331 331 332 333 333 332 330 330 331 334 343
313 313 312 314 321 319 319 316 316 315 327 325 324 323 322 322 324 323 323 323 325 326 326 326 327 326 326 326 326 327 328 328 328 329 330 332 332 334 333 333 332 332 331 333 342
312 313 314 314 313 321 320 317 316 317 332 323 324 321 322 322 323 324 322 323 325 326 325 326 326 326 326 326 326 326 327 327 328 328 330 331 332 332 333 332 332 332 332 332 338
312 314 313 315 318 318 317 316 317 325 329 324 322 323 324 324 323 322 324 324 324 326 328 327 327 327 326 325 325 326 326 327 328 328 329 329 329 330 331 333 332 332 332 333 335
312 314 314 311 319 315 315 318 326 328 324 325 324 324 323 324 324 324 325 327 326 328 329 328 329 328 326 326 327 326 326 327 328 328 328 328 328 329 330 331 332 333 336 339 339
313 314 315 314 313 315 318 324 328 326 324 324 324 324 324 323 324 323 324 326 327 327 329 329 329 329 328 328 328 327 326 327 329 328 328 329 328 329 330 331 332 335 337 338 340
313 318 317 319 316 316 319 326 328 325 323 323 324 325 325 325 323 324 325 325 325 326 328 328 328 328 327 328 328 328 326 326 326 327 326 327 329 331 331 331 331 332 335 339 345
313 318 319 317 318 318 322 324 324 322 322 323 325 324 325 325 325 325 324 324 324 326 326 327 328 328 328 327 328 330 329 327 326 328 328 327 329 329 334 331 331 331 333 345 349
317 320 320 317 317 320 324 325 323 322 322 324 325 325 325 326 325 325 325 324 325 326 325 326 327 330 328 327 328 329 330 329 331 332 334 329 328 331 333 335 335 337 344 350 352
317 322 319 317 321 323 324 323 319 322 323 323 324 324 325 325 326 326 325 326 324 324 325 326 327 328 328 328 329 328 333 332 333 338 336 336 336 334 337 335 341 345 351 353 356
319 319 319 317 324 325 323 321 320 322 324 325 326 325 326 326 327 326 326 325 324 325 326 326 326 326 327 328 330 331 329 331 333 332 337 337 338 332 331 333 348 350 350 351 352
318 323 322 320 320 322 323 323 322 321 321 322 325 325 326 326 327 327 327 326 324 325 322 324 326 328 329 329 328 328 328 329 330 332 336 336 334 333 330 331 346 349 351 350 351
321 322 320 323 323 322 321 321 321 322 322 322 324 325 326 327 327 326 326 327 325 325 324 326 329 329 329 328 327 327 327 326 328 329 336 335 336 336 332 331 341 347 348 346 345
319 321 320 319 320 320 317 321 321 321 320 321 324 324 325 325 325 326 327 326 325 324 325 326 330 329 330 327 327 327 326 326 327 327 332 331 333 339 342 343 344 345 345 344 343
319 317 317 319 321 321 321 321 321 320 319 319 320 322 323 323 323 323 322 321 322 324 327 330 331 331 331 328 328 329 327 329 328 332 332 335 341 340 341 342 341 341 340 340 341

GFSSW_850_thetae_096.txt.gz
Theta_e
320 320 319 319 319 319 319 319 319 318 317 316 315 316 318 320 320 320 322 329 327 325 319 324 336 347 346 345 346 347 350 348 347 347 345 340 338 337 339 344 344 347 352 353 351
318 317 317 317 316 316 316 317 317 317 318 318 317 316 315 317 319 320 323 325 325 322 319 333 341 343 342 340 341 343 346 346 342 345 343 340 340 337 338 339 347 351 353 352 351
315 315 315 313 313 312 312 314 315 315 314 317 318 318 314 315 320 326 326 325 325 325 327 336 338 338 338 336 336 339 340 339 337 336 336 337 337 338 337 337 344 352 353 353 351
311 312 312 312 311 311 311 312 313 314 313 314 316 319 316 315 328 329 325 322 321 320 337 337 336 334 335 336 333 333 332 332 331 331 331 332 334 338 338 336 336 351 353 353 352
311 311 311 311 311 311 312 312 312 313 314 314 315 317 317 323 323 327 324 323 322 324 341 336 334 333 334 335 333 332 331 331 331 330 330 331 333 335 336 336 335 348 353 354 352
310 310 311 311 312 312 312 312 313 314 315 316 316 317 317 323 324 327 330 324 324 326 336 332 333 333 333 332 332 331 331 331 330 331 331 331 330 330 332 334 335 345 354 354 353
311 311 311 311 312 313 312 313 313 315 315 316 316 317 323 325 324 326 329 332 328 331 331 331 331 330 330 331 330 331 332 332 333 332 332 332 331 331 331 332 333 335 346 352 353
312 312 312 312 312 312 313 314 315 316 316 316 316 317 327 323 323 322 325 329 330 332 330 328 327 327 326 327 329 330 330 330 331 331 332 332 331 332 331 330 331 333 341 347 352
313 312 312 311 312 313 314 316 316 316 317 317 324 324 329 323 321 322 322 322 324 326 325 324 324 325 326 326 326 328 330 331 331 332 333 333 333 333 331 331 330 331 334 340 348
312 312 311 311 313 314 316 317 318 319 317 320 323 327 327 324 323 323 323 323 324 324 324 324 327 328 328 327 327 328 329 330 331 332 332 332 333 333 332 332 332 331 331 332 333
312 312 311 312 314 316 319 322 323 325 324 324 324 325 324 323 323 324 323 323 323 324 325 326 329 330 330 330 330 330 330 330 330 331 331 331 332 333 333 333 332 331 332 331 331
312 313 312 313 314 317 320 320 319 319 320 323 322 322 323 322 324 325 323 324 324 325 326 326 326 328 329 329 329 329 329 329 329 329 330 331 331 331 332 333 332 332 332 332 331
313 312 313 313 317 322 321 318 319 319 322 326 323 323 324 323 324 325 324 325 326 327 328 328 328 329 328 328 327 328 327 327 328 329 330 330 330 333 332 332 333 333 332 331 332
313 312 314 314 323 322 323 320 319 318 325 326 324 324 323 324 325 325 324 324 325 326 327 327 327 327 327 327 327 327 328 327 327 327 327 329 330 335 332 333 335 332 332 331 332
314 313 313 315 314 324 321 319 318 320 333 326 326 323 323 324 325 325 324 324 325 326 326 326 327 327 327 327 327 326 326 326 327 327 327 328 328 332 334 335 335 334 333 332 333
314 313 313 317 322 321 318 318 320 326 330 326 325 325 325 325 325 324 324 325 326 327 329 329 329 329 329 328 327 327 326 326 326 327 329 328 328 330 331 333 333 334 332 335 338
314 313 314 315 321 318 319 321 327 330 327 327 326 326 325 325 325 325 325 326 328 328 330 329 330 330 328 328 328 329 329 329 329 328 329 329 329 332 332 331 332 336 339 338 337
314 314 314 316 316 319 320 325 330 330 328 326 326 325 325 326 326 325 325 326 328 327 328 330 330 329 329 329 328 329 329 328 330 327 326 330 330 330 333 332 331 332 335 337 338
315 318 320 321 319 319 322 327 330 328 326 325 324 326 328 326 325 325 326 326 326 327 328 328 328 327 328 329 328 328 328 330 330 328 328 326 329 331 336 333 334 331 335 339 343
315 320 322 321 319 320 324 324 326 325 324 324 325 327 327 328 326 327 326 326 325 326 327 327 327 326 328 329 328 328 329 332 332 334 332 334 334 343 341 340 339 333 339 341 340
319 323 323 321 318 320 325 327 326 324 324 325 326 327 327 327 327 326 327 326 326 326 326 326 327 328 327 327 328 330 333 333 333 331 337 338 334 336 334 334 335 331 331 333 333
320 325 323 321 321 325 327 326 322 323 324 325 325 325 325 326 327 328 327 327 325 325 325 327 326 327 326 326 328 329 333 331 331 330 332 336 332 335 333 331 330 330 331 328 336
321 323 323 320 323 326 327 325 323 322 323 325 327 327 326 327 328 328 328 327 325 325 327 326 326 326 326 328 329 329 329 331 332 331 332 338 337 332 334 332 329 329 329 329 347
321 326 325 323 323 324 324 325 325 323 323 322 324 325 326 327 327 328 329 327 326 326 324 324 327 329 330 330 329 329 328 328 329 330 332 336 335 333 334 332 330 330 329 332 345
323 326 324 325 324 325 325 324 324 323 323 323 324 325 325 327 327 328 328 328 328 326 325 326 327 327 328 328 328 328 328 327 327 327 330 329 334 335 336 334 332 334 337 337 345
323 323 322 322 322 323 322 323 322 323 323 323 323 323 326 327 328 326 326 328 328 325 325 324 327 329 331 329 329 329 328 328 328 328 326 331 341 336 336 337 338 342 342 342 342
323 322 321 321 322 324 325 324 323 323 322 321 321 321 322 324 323 323 323 323 323 323 325 327 329 332 332 330 330 330 336 334 334 331 335 336 341 336 336 340 342 342 341 341 341

GFSSW_850_thetae_099.txt.gz
Theta_e
316 315 316 315 314 314 314 314 315 317 318 318 317 316 316 317 319 320 320 323 327 327 325 322 320 326 344 348 346 344 344 348 348 346 342 339 340 339 343 345 348 352 350 349 348
313 313 313 314 313 312 312 312 312 314 315 315 317 318 316 316 317 319 322 321 324 325 325 322 331 337 343 345 342 337 338 342 343 344 343 342 342 336 337 345 353 353 351 349 349
312 311 312 312 312 311 311 311 312 312 313 314 314 317 318 315 316 324 326 325 326 325 324 323 335 341 342 339 337 335 334 335 333 333 339 332 329 331 333 336 353 352 350 349 349
313 312 312 312 311 312 312 312 312 312 313 313 314 315 318 316 327 327 326 324 322 321 322 331 334 337 334 332 334 333 332 331 329 330 329 327 330 329 332 336 342 352 351 350 350
314 313 312 312 312 312 313 313 313 313 313 314 314 315 317 319 318 325 325 323 323 323 329 339 341 336 332 331 332 331 330 330 330 330 330 330 329 329 329 331 334 352 351 351 351
317 315 314 313 313 313 314 313 313 313 314 315 316 316 317 321 328 327 325 326 323 324 326 338 338 333 333 332 329 330 329 329 330 330 331 330 330 330 330 329 338 352 352 352 352
317 316 315 314 314 314 314 314 314 315 315 315 316 316 318 320 325 326 327 329 329 327 328 332 332 331 331 328 329 328 327 328 328 329 328 330 329 329 331 330 331 354 353 352 352
314 315 314 313 313 314 314 315 316 316 316 316 316 316 319 325 324 324 323 328 330 328 329 331 328 324 324 326 325 323 322 323 326 328 329 328 327 330 332 331 330 336 354 353 352
313 313 313 313 313 314 316 317 318 317 317 317 323 325 330 324 323 322 321 321 323 328 330 327 324 323 324 322 321 322 321 323 326 329 329 329 327 330 332 332 331 330 346 354 353
313 313 313 313 313 315 320 318 321 320 320 320 326 326 328 326 323 323 323 323 323 323 323 324 324 323 324 322 322 323 323 324 326 328 328 327 327 328 331 331 331 331 331 349 353
314 313 313 313 314 318 320 322 321 325 321 326 325 326 325 324 323 324 323 323 323 323 322 324 321 324 326 326 326 326 326 327 327 327 325 325 326 328 329 330 330 332 332 330 331
314 313 313 313 317 321 321 319 319 318 319 319 323 323 323 323 323 324 324 323 323 322 322 322 321 323 325 326 326 326 326 325 326 327 325 324 326 327 327 328 330 331 332 332 331
315 314 313 314 321 323 324 320 320 319 319 322 324 323 324 323 323 325 324 325 325 324 324 323 325 327 326 325 325 323 323 323 323 324 324 324 325 326 327 328 329 331 332 332 332
317 314 313 314 320 324 323 321 320 319 320 327 324 324 323 323 323 325 324 324 324 323 324 324 326 326 325 325 324 323 325 324 324 323 322 324 323 323 326 326 328 330 331 332 332
318 315 313 315 318 322 319 319 319 320 332 325 324 324 323 324 324 325 324 324 323 324 325 324 325 326 327 327 327 325 325 323 323 321 320 322 322 323 324 325 329 329 333 332 333
319 315 314 314 320 320 319 319 321 324 330 325 325 324 322 323 325 325 325 324 325 325 325 326 328 327 326 328 327 326 326 326 325 321 320 322 324 325 325 329 332 334 335 341 341
320 317 314 314 317 319 319 321 325 328 329 326 325 325 323 324 325 325 325 324 323 325 327 326 328 326 327 326 327 326 323 324 325 324 324 322 323 330 337 335 333 333 335 336 344
324 317 318 317 317 318 320 323 329 331 327 326 324 323 324 325 325 325 324 323 325 326 324 327 327 326 326 324 326 326 325 325 328 328 328 324 324 337 335 334 333 332 333 334 334
324 320 319 322 320 320 321 325 329 328 325 324 324 326 326 325 326 325 324 325 325 325 326 325 326 325 325 326 326 326 325 324 323 327 327 329 331 337 331 331 332 333 331 332 334
322 322 324 322 319 320 322 324 326 325 324 324 324 326 327 327 326 325 326 325 325 325 324 325 323 324 327 325 325 326 330 329 329 332 332 333 334 337 333 331 332 330 332 332 331
321 322 323 322 320 319 322 324 326 325 324 324 323 324 325 327 326 326 326 326 325 325 324 324 324 325 324 324 323 323 329 329 327 329 330 333 334 333 333 332 332 329 332 331 331
319 325 323 322 322 322 324 326 324 324 323 324 325 326 326 325 326 327 327 327 325 325 326 326 323 324 324 323 324 325 332 330 328 328 325 327 329 333 333 331 330 330 330 330 329
317 322 324 323 321 322 324 325 326 324 323 324 324 326 325 327 328 328 328 327 327 326 325 326 324 324 326 325 326 326 327 325 329 328 329 333 332 330 330 332 330 333 335 328 332
318 326 325 323 324 324 326 326 325 324 323 323 323 322 323 325 325 327 327 328 327 325 324 325 324 327 325 325 326 327 327 326 324 325 325 330 329 333 333 338 334 334 338 332 335
322 327 323 325 324 323 323 324 325 323 323 323 324 324 324 325 326 326 328 326 327 325 325 322 325 326 324 324 327 328 328 327 327 329 329 332 334 333 335 337 338 341 339 331 333
320 325 323 322 322 323 322 325 325 323 323 323 323 322 322 323 324 324 324 325 327 324 322 321 322 324 326 328 329 329 329 334 333 334 335 338 340 337 335 340 341 340 340 333 335
322 323 322 322 323 324 323 324 325 324 323 323 322 321 321 321 320 320 320 321 321 321 321 321 322 325 328 331 329 330 335 334 336 334 338 339 335 333 331 332 337 336 332 337 340

GFSSW_850_thetae_102.txt.gz
Theta_e
315 313 313 313 313 313 313 312 312 313 314 315 317 317 317 316 317 318 320 322 322 326 326 325 323 321 335 344 348 349 342 345 348 345 342 339 339 339 340 348 344 349 348 347 349
314 313 312 312 312 312 312 312 312 312 313 313 314 315 317 317 317 318 321 322 321 322 324 324 323 329 338 344 346 340 335 339 340 342 341 341 340 340 337 346 352 350 348 347 348
316 314 313 312 312 312 312 313 313 313 313 313 313 314 316 318 316 323 328 324 322 322 324 324 322 329 337 341 341 334 334 334 333 337 342 341 339 333 328 349 352 349 348 347 348
319 317 315 314 313 313 314 314 314 314 313 313 314 314 315 317 317 325 324 324 324 322 323 323 329 330 333 333 336 331 331 331 329 329 327 332 329 327 328 328 345 349 348 347 348
316 318 316 315 315 314 315 314 314 314 314 314 314 315 315 317 319 322 327 325 323 323 322 325 337 339 334 331 330 329 327 328 327 328 328 328 328 328 329 331 344 349 348 348 347
314 316 316 315 314 314 314 314 314 315 315 314 315 315 315 318 324 326 325 325 325 323 323 332 339 337 332 329 327 328 324 324 325 326 327 327 326 327 328 330 341 349 349 349 347
314 314 314 314 314 314 315 315 316 316 316 315 316 316 316 317 325 328 327 325 329 327 323 324 332 332 323 323 324 324 321 321 323 325 325 326 325 326 329 329 336 349 349 349 348
314 314 314 314 314 314 318 318 317 317 316 316 316 317 317 325 323 325 324 329 326 330 326 331 331 329 322 323 323 321 320 320 322 323 324 325 325 327 329 328 345 350 350 350 349
315 314 314 314 314 315 320 319 319 319 317 317 325 327 327 324 323 322 323 322 321 322 329 330 330 326 323 322 320 319 320 320 322 324 324 326 325 326 328 329 332 351 351 351 351
318 315 314 314 314 318 319 320 321 322 322 320 324 325 327 326 323 323 323 322 321 322 323 324 325 319 317 319 322 322 321 320 322 325 325 324 322 323 327 328 329 335 351 351 351
320 317 314 314 320 321 319 320 318 322 319 321 325 323 324 323 323 323 323 323 322 322 320 322 319 318 318 320 324 323 322 322 324 325 324 323 321 323 324 327 326 328 337 351 351
320 319 315 314 321 323 321 320 320 318 318 319 319 320 323 322 322 324 323 323 322 320 320 319 319 320 321 323 324 325 324 322 322 323 323 321 321 322 323 324 326 327 328 338 352
321 320 316 314 322 323 322 320 320 319 316 319 322 322 322 323 322 323 323 324 322 321 320 319 321 324 324 322 322 321 321 321 321 321 320 321 320 320 322 323 325 327 328 329 329
321 320 317 316 316 323 321 318 319 319 317 323 324 323 323 323 322 324 324 324 323 322 321 321 322 324 324 325 323 322 323 323 322 320 319 320 319 319 318 321 329 334 338 340 341
323 321 319 315 314 320 318 319 320 320 328 326 323 324 323 322 323 324 325 324 322 322 323 322 324 324 325 325 324 323 323 323 323 322 318 320 318 319 328 333 333 333 336 338 342
325 324 320 317 314 321 318 322 321 322 329 324 322 322 321 322 323 324 324 324 323 323 323 322 326 324 324 324 325 325 323 321 320 317 321 319 319 327 335 333 333 332 336 336 343
325 324 321 318 315 316 320 322 321 325 325 323 323 320 321 322 322 322 322 322 320 322 321 323 326 324 324 322 322 322 320 322 322 322 323 320 322 334 335 333 333 332 335 335 340
325 324 322 319 319 321 321 319 326 328 323 322 322 321 322 323 324 323 322 320 323 322 322 323 324 323 323 324 323 322 322 321 325 324 326 322 326 334 331 332 330 330 330 334 335
325 324 323 322 319 320 321 319 324 323 323 322 321 322 324 323 323 323 323 322 323 322 323 322 324 323 324 323 323 322 320 321 323 325 325 325 327 331 330 329 329 329 330 332 333
325 324 322 321 319 319 316 319 321 323 323 321 321 322 323 322 322 322 323 322 323 322 321 322 321 322 325 323 322 321 320 325 322 327 330 327 329 335 330 329 329 329 331 330 332
324 322 322 321 319 319 315 317 322 324 323 322 322 322 323 323 322 323 324 323 323 323 322 322 320 322 322 321 321 321 319 325 322 323 326 329 327 328 330 329 328 329 335 330 329
321 318 323 322 320 315 316 321 324 323 322 321 323 323 323 323 324 325 325 325 326 324 325 322 317 320 322 321 323 320 327 323 324 326 322 322 324 329 330 329 329 333 337 328 334
317 319 324 324 316 313 316 321 323 321 320 321 322 321 321 322 324 325 325 325 325 324 323 322 319 320 321 319 321 324 323 323 321 320 326 327 327 328 333 333 332 333 338 333 337
317 318 324 323 321 320 318 320 321 323 321 321 321 321 321 321 321 322 324 326 325 324 323 322 318 320 321 321 322 322 323 325 324 321 323 325 326 331 333 335 336 340 338 334 332
317 322 322 317 320 318 318 320 321 321 321 320 320 321 321 322 320 321 321 322 322 324 321 317 320 321 320 321 322 323 325 330 329 331 333 333 334 334 334 333 338 338 338 332 333
315 323 321 321 321 319 318 320 322 322 321 321 321 319 317 319 319 319 317 319 320 319 318 315 318 320 320 321 323 326 333 333 334 334 337 336 337 332 331 329 332 336 333 334 339
320 321 321 321 317 317 318 320 321 320 321 320 319 318 317 319 318 318 318 317 317 317 316 316 316 317 319 320 323 329 333 333 335 333 336 336 333 332 331 330 331 330 333 332 337

GFSSW_850_thetae_105.txt.gz
Theta_e
318 315 314 313 313 313 313 312 312 312 313 313 314 315 316 317 317 317 319 321 320 321 327 325 324 323 327 342 347 348 344 343 346 344 340 339 339 340 341 343 346 348 349 347 350
318 319 316 315 314 314 313 313 314 314 313 313 313 314 314 316 317 318 319 321 320 319 326 324 323 325 334 340 344 342 338 339 337 341 341 340 340 341 340 343 345 348 348 347 349
315 318 318 316 315 315 315 314 314 315 314 314 313 313 314 315 318 324 325 325 324 320 323 323 323 329 335 339 340 336 338 335 333 333 334 339 338 334 331 345 350 349 348 348 349
314 315 316 316 315 315 315 315 315 315 314 314 314 314 314 315 317 324 324 323 323 323 323 323 324 328 329 333 334 332 330 330 329 327 326 331 330 325 326 329 331 348 350 347 350
314 314 314 314 315 315 315 315 315 315 315 315 314 314 315 316 317 323 325 324 324 322 321 322 331 335 336 332 330 328 327 325 324 323 324 325 325 324 326 327 333 346 348 346 347
315 314 314 314 315 315 315 316 316 316 316 315 315 315 315 316 324 325 325 324 327 324 323 328 339 338 332 326 324 325 323 322 325 325 324 325 323 325 328 329 335 345 347 347 347
318 315 314 314 315 315 317 319 317 317 316 316 315 315 316 317 326 327 326 326 327 330 325 323 329 332 329 321 323 322 321 319 321 322 323 324 322 323 328 327 329 345 347 347 348
321 317 315 314 314 316 318 319 318 317 317 316 316 320 318 325 324 325 326 324 325 325 326 325 328 330 325 322 322 322 318 319 321 322 322 323 322 324 327 325 334 346 347 347 347
321 320 316 314 316 319 319 320 318 321 318 318 325 326 326 324 323 322 322 322 322 321 322 329 329 326 323 320 318 317 319 321 321 323 323 324 323 323 325 324 340 347 348 348 347
322 321 317 314 319 321 318 321 321 322 321 322 321 325 326 325 324 323 322 322 321 320 322 323 327 319 315 317 320 323 321 320 320 322 323 322 320 320 324 324 325 344 348 348 348
323 321 319 314 321 323 319 319 320 319 318 319 324 324 324 324 324 322 322 322 321 321 319 320 317 317 317 317 319 322 322 322 323 324 323 321 319 320 321 325 334 332 345 349 349
324 323 321 316 322 322 321 319 318 317 317 318 318 318 321 322 322 322 323 322 321 319 319 317 318 318 319 319 319 320 322 322 321 321 319 318 320 319 320 329 334 337 340 336 345
325 324 324 320 320 322 322 318 318 318 316 319 321 322 322 322 322 322 323 322 321 320 319 318 320 321 321 321 321 320 320 319 320 320 319 320 321 318 326 329 331 334 338 343 341
326 325 325 321 316 317 321 318 318 319 317 324 323 323 322 322 321 323 323 323 321 320 318 318 320 323 323 324 321 322 320 321 323 321 322 319 319 318 327 329 329 331 336 339 345
326 325 324 323 317 316 320 319 320 320 326 325 323 323 322 322 322 323 324 323 321 322 321 322 323 323 323 323 322 323 323 322 323 321 319 321 318 322 329 328 330 329 335 338 343
326 325 324 323 317 316 315 321 321 321 326 323 322 321 321 321 321 323 324 323 322 322 321 321 324 322 323 323 323 322 323 319 317 316 320 320 319 319 331 331 331 329 334 336 342
326 324 324 322 318 318 321 322 320 325 323 322 321 320 319 320 321 321 322 321 319 321 319 322 324 322 322 323 321 319 318 320 322 322 323 319 321 325 331 332 331 330 331 333 336
326 323 323 319 318 320 321 319 326 326 322 321 321 320 321 319 321 321 321 318 321 320 320 322 323 322 322 323 323 321 319 320 328 326 325 321 325 329 330 331 329 330 330 333 332
325 322 323 321 319 319 320 319 323 322 321 321 319 321 321 321 322 321 321 322 322 321 321 320 322 321 323 322 321 320 319 318 322 321 322 323 324 325 328 329 328 329 332 330 330
325 323 322 321 319 319 314 317 319 321 321 320 321 321 322 321 321 320 322 322 323 321 319 320 321 321 323 320 320 321 320 325 320 326 329 325 326 327 328 328 327 329 333 330 328
325 322 323 321 320 319 314 315 319 323 322 321 321 322 322 322 321 323 323 324 323 322 321 320 319 321 321 321 321 320 322 322 319 320 325 326 325 325 330 329 328 327 335 329 331
323 317 322 322 318 311 314 318 321 322 321 320 321 322 321 322 323 324 325 324 324 323 323 319 315 319 322 319 320 319 324 319 321 323 320 320 322 328 332 329 329 330 334 332 338
320 320 324 323 318 313 315 319 321 321 320 319 320 320 320 321 322 323 323 324 324 321 322 320 317 319 320 319 318 323 321 321 318 317 322 325 324 327 331 333 336 336 338 335 332
317 317 323 321 319 317 318 319 320 322 320 320 319 319 320 321 318 321 321 323 324 325 321 320 315 318 320 320 319 321 320 321 321 319 321 322 324 326 332 330 334 338 338 335 333
316 319 319 317 319 317 317 318 319 320 321 320 319 317 319 319 317 318 318 317 318 320 319 316 319 317 317 318 320 320 321 324 331 324 330 329 331 329 331 329 329 333 335 333 337
316 321 321 320 319 317 315 317 319 320 319 319 319 318 316 317 317 317 316 317 317 317 317 313 317 318 318 318 319 322 322 328 332 333 333 333 334 331 330 330 330 330 329 332 333
318 320 319 319 316 317 317 319 319 318 319 319 318 317 318 316 318 318 318 317 315 315 313 314 313 314 316 317 321 323 325 330 331 332 332 335 330 329 331 329 330 329 328 329 332

GFSSW_850_thetae_108.txt.gz
Theta_e
317 320 319 317 315 315 314 314 314 314 314 314 313 313 314 315 316 317 318 319 319 321 324 324 323 322 342 346 348 349 344 343 343 345 339 337 336 336 338 340 346 346 348 348 344
314 316 317 317 316 316 316 316 316 316 315 315 314 313 314 314 316 318 318 318 318 319 324 324 323 324 330 336 344 342 340 340 336 339 339 336 334 333 337 337 344 347 347 348 343
314 314 314 315 316 316 316 316 316 316 316 315 314 314 314 314 317 323 323 324 324 319 324 324 323 328 334 338 341 337 340 335 334 331 329 331 328 329 334 333 343 344 346 347 342
315 314 314 314 315 316 316 316 316 316 315 315 315 314 315 314 321 322 323 323 322 319 323 323 323 328 328 331 334 332 331 330 327 325 324 324 327 324 327 327 328 329 344 347 345
319 316 314 314 314 315 315 316 317 317 316 316 315 315 315 315 317 322 324 324 322 322 322 323 324 330 336 332 328 327 326 325 324 323 322 323 323 323 324 327 328 330 342 347 346
320 319 315 314 314 315 316 318 318 317 316 316 315 315 315 315 323 324 324 326 326 323 322 324 333 337 332 326 322 324 323 321 324 324 322 321 322 322 326 326 325 340 344 348 347
321 320 317 314 315 317 318 318 318 318 317 316 315 315 315 317 326 325 326 326 327 329 324 329 333 332 328 321 322 321 320 319 320 321 322 322 322 323 324 323 329 333 344 348 349
323 321 319 315 317 320 319 318 318 321 317 316 321 322 320 322 323 325 325 324 326 328 326 324 326 329 326 321 320 319 317 319 320 321 323 322 322 322 322 323 326 338 344 347 349
324 323 321 316 319 321 320 320 317 321 320 319 324 325 327 324 323 322 322 323 322 323 322 328 328 326 322 318 316 316 320 320 320 321 323 322 322 320 333 329 329 341 345 346 348
325 324 324 320 321 322 321 320 318 321 321 321 321 323 325 324 323 322 322 322 322 320 321 324 324 319 314 315 318 320 321 321 320 322 321 321 320 317 333 338 338 337 344 347 347
326 325 325 322 319 322 322 319 319 319 318 318 322 324 324 324 323 322 322 321 321 321 318 319 316 317 318 316 318 320 321 320 320 321 323 320 318 323 327 332 337 340 340 341 345
326 326 325 324 318 322 321 319 318 317 316 318 318 318 319 320 321 322 322 322 320 318 318 316 318 318 317 316 317 318 319 319 319 320 321 319 319 325 325 329 333 337 341 343 343
326 326 324 324 317 316 320 318 318 319 315 320 321 321 321 321 321 322 322 322 320 318 318 318 320 319 320 321 321 319 320 320 320 318 319 319 321 324 327 327 329 332 338 343 342
326 326 325 323 320 316 319 318 319 319 316 322 323 323 322 321 321 322 322 323 320 320 316 318 319 322 322 323 320 322 320 319 320 319 322 317 320 319 327 326 327 328 332 339 344
325 325 325 324 322 317 316 316 321 319 325 324 322 322 321 321 321 322 322 322 320 320 319 320 322 322 322 323 322 323 321 321 322 319 319 320 318 319 326 327 327 328 329 332 340
324 325 322 323 318 317 319 321 321 320 325 322 320 319 320 320 320 322 322 322 321 320 319 319 322 322 322 322 322 320 322 318 315 315 320 320 320 320 327 329 329 328 329 331 331
323 323 322 321 318 319 320 322 319 324 321 321 320 318 318 319 319 319 321 318 319 320 319 321 322 320 321 321 319 318 316 319 322 321 323 317 320 320 327 330 330 328 330 330 329
321 321 323 320 319 319 319 318 326 324 321 320 319 319 322 319 320 319 318 318 320 318 318 321 322 322 321 322 321 320 317 318 325 324 325 320 323 328 327 329 328 329 332 331 328
319 319 322 321 319 319 319 318 321 321 319 320 319 320 320 320 320 320 320 321 321 319 320 319 321 320 322 320 320 322 319 316 320 318 321 321 322 323 328 329 327 327 332 333 328
317 319 322 321 320 319 313 316 318 319 320 319 321 320 321 320 321 321 321 321 322 320 318 319 322 320 321 320 320 319 319 324 318 326 328 323 323 324 325 325 327 326 329 335 330
319 320 322 320 320 319 314 314 317 321 320 320 320 321 321 322 321 322 322 322 322 321 319 318 318 321 320 320 321 320 320 319 317 318 324 324 323 319 327 329 328 326 330 335 335
320 317 321 322 319 309 314 316 319 320 321 317 320 321 320 321 322 323 323 322 322 321 322 317 314 319 321 319 318 319 322 317 319 323 319 319 321 324 332 332 333 334 337 338 334
323 320 322 322 317 314 315 317 320 320 318 317 318 319 319 319 320 321 321 322 323 321 321 318 316 319 320 319 319 321 321 317 315 315 321 324 325 321 329 330 331 334 336 337 337
319 315 322 321 318 315 317 317 319 320 319 319 317 317 319 318 316 320 318 320 320 323 319 319 313 318 321 321 319 320 319 318 317 319 322 321 324 321 323 329 329 328 330 334 334
317 316 317 318 318 316 316 316 319 319 319 319 319 317 318 318 317 317 317 316 317 319 318 315 319 316 317 317 318 319 319 319 321 322 328 328 322 326 327 328 329 329 330 330 330
319 319 319 318 317 316 314 318 319 318 318 318 317 317 316 316 316 315 316 314 316 316 316 311 316 315 317 317 316 318 319 320 320 328 327 330 332 328 330 330 329 329 330 328 328
316 318 317 317 315 316 315 319 319 317 318 319 317 316 317 316 316 318 317 316 315 315 312 312 312 313 315 315 318 316 319 323 329 331 330 332 329 328 329 327 327 329 328 328 327

GFSSW_850_thetae_111.txt.gz
Theta_e
315 315 316 317 317 317 317 316 316 316 316 315 314 314 314 314 315 316 317 318 319 319 319 323 322 323 345 348 348 347 348 344 340 337 335 332 331 331 332 336 346 348 349 348 343
316 315 315 315 316 317 317 317 317 317 317 316 315 314 314 314 315 317 318 317 318 319 322 324 323 322 335 335 344 347 347 341 339 334 331 330 329 329 332 330 339 347 347 348 344
319 316 315 314 315 317 317 317 317 317 317 315 315 315 314 314 317 323 321 324 319 319 323 323 323 324 335 340 343 343 343 339 332 330 329 328 328 328 330 329 328 332 350 348 347
320 319 316 314 314 315 316 316 317 318 317 316 316 315 315 315 325 321 322 322 322 321 324 323 323 331 334 337 337 338 335 334 328 326 325 326 326 326 326 327 326 327 345 345 349
322 320 317 315 315 316 317 318 318 318 317 316 316 315 315 315 317 322 323 322 321 319 323 323 324 329 336 334 331 330 329 325 325 324 323 324 325 325 325 324 325 328 336 342 349
323 322 320 316 316 319 319 319 318 318 317 316 315 315 315 318 321 323 325 325 322 321 321 322 327 334 333 330 325 325 324 324 323 324 323 324 325 324 324 323 326 334 342 349 352
324 324 323 319 318 321 321 318 318 319 317 316 316 315 316 318 324 324 324 325 327 327 323 326 337 333 327 328 321 322 324 325 324 324 325 323 326 324 333 326 329 341 348 351 352
325 325 324 322 319 322 321 319 317 320 317 321 324 320 319 323 324 326 324 325 327 328 324 324 325 327 326 321 323 324 323 326 326 324 324 325 327 327 336 336 335 341 347 350 352
326 326 324 324 319 321 322 319 319 321 321 321 323 324 325 324 323 322 325 324 323 326 327 327 328 325 324 325 324 325 325 325 325 324 325 325 325 329 335 341 341 340 345 348 350
326 326 324 324 319 321 320 319 319 319 322 319 321 324 324 324 323 322 322 324 322 319 323 325 324 327 324 325 325 324 324 324 325 325 325 326 332 333 333 338 342 343 343 345 346
325 326 326 323 318 318 319 318 318 319 317 318 321 323 324 323 322 322 321 321 321 320 323 320 323 324 324 323 322 322 323 324 325 324 324 327 332 332 332 334 336 338 341 343 344
325 325 325 322 321 317 318 317 317 317 318 319 319 319 320 320 321 321 321 321 321 322 320 322 324 323 320 320 321 322 324 326 325 323 325 324 332 330 330 331 332 333 336 339 342
325 325 324 322 323 319 319 318 318 319 318 320 321 320 321 321 321 321 321 321 322 322 322 323 323 322 323 323 324 324 326 326 325 324 323 324 327 332 331 330 330 330 331 334 338
324 324 323 322 323 317 319 316 319 319 324 324 323 322 321 321 322 322 322 322 322 323 321 323 321 324 325 325 324 327 324 324 324 326 328 323 328 326 332 331 331 331 331 331 333
322 322 322 322 319 316 317 320 321 319 329 324 322 321 320 321 321 321 321 322 323 322 323 323 324 324 325 325 324 325 323 325 325 326 325 326 327 329 331 333 333 331 332 331 332
319 320 321 322 318 319 319 320 320 326 327 323 321 321 321 320 321 320 322 321 321 322 322 322 322 324 324 323 323 323 325 324 323 325 327 327 327 327 332 333 334 332 332 333 332
315 318 319 321 320 319 319 321 326 329 324 324 323 321 321 323 323 321 323 324 324 324 326 325 324 323 323 325 323 325 325 325 326 327 326 325 327 329 331 332 332 332 332 334 332
310 316 320 320 320 320 319 324 328 325 323 321 321 322 324 323 323 322 322 325 323 323 325 326 327 325 324 324 324 324 324 325 325 325 325 327 329 332 331 332 330 331 331 335 335
309 313 322 321 320 320 319 323 326 323 322 323 321 324 325 323 323 324 324 325 324 323 326 326 325 323 323 323 323 325 328 322 327 325 328 328 329 329 331 333 332 331 331 333 336
308 313 321 321 320 320 320 319 323 320 321 321 324 323 325 325 326 326 325 323 324 322 321 324 328 323 323 322 324 326 324 327 327 330 329 328 330 328 330 330 334 334 333 334 338
310 316 321 321 321 319 322 321 320 320 320 322 322 323 324 325 325 325 325 324 324 323 323 324 326 326 324 326 326 325 325 325 325 328 327 328 327 329 330 333 337 337 337 338 338
315 318 320 322 322 313 322 319 318 321 320 320 321 323 323 323 325 325 326 325 323 323 325 321 325 327 326 322 321 323 326 325 325 327 328 328 327 327 330 335 336 337 336 334 336
320 318 321 321 323 323 320 320 320 322 322 322 321 321 320 323 325 324 324 322 323 324 325 324 325 327 327 325 323 325 325 324 324 324 326 328 326 326 329 332 333 333 332 332 333
318 321 322 320 317 320 322 321 322 320 320 320 320 319 322 323 322 324 323 321 320 323 320 321 324 327 327 326 325 326 324 323 322 323 323 326 326 328 329 331 333 333 332 331 333
318 318 317 325 322 320 319 320 322 323 321 318 321 319 321 323 322 322 320 320 319 320 320 323 325 325 323 323 323 323 323 322 322 322 325 324 328 330 333 334 332 330 330 331 331
317 319 318 320 318 319 317 321 321 321 321 321 320 320 319 322 322 322 320 320 322 320 321 319 322 322 322 321 321 321 322 321 321 322 324 326 332 333 333 332 329 330 330 330 330
315 316 316 319 320 320 321 321 320 320 320 319 319 319 320 319 318 317 318 317 319 320 320 320 321 321 321 320 320 321 322 321 323 329 331 334 333 332 334 331 329 330 331 331 330

GFSSW_850_thetae_114.txt.gz
Theta_e
318 316 315 315 316 318 319 318 318 318 317 317 316 315 314 314 314 315 317 319 318 319 321 323 327 333 342 345 346 349 340 336 337 338 337 334 334 333 332 333 336 342 346 351 352
320 318 316 315 316 317 318 318 318 318 318 317 316 315 314 314 314 316 317 317 318 318 323 327 327 330 337 336 341 343 336 335 337 335 334 333 332 332 332 332 331 337 351 352 352
321 320 318 316 315 316 317 317 317 318 318 317 316 315 315 314 320 322 321 321 317 318 327 327 327 328 331 337 340 340 336 336 334 331 330 331 331 330 331 331 330 329 343 353 353
323 323 321 319 316 318 318 318 318 318 318 318 317 316 315 316 327 322 321 322 318 323 326 326 326 329 332 336 337 339 334 333 331 329 329 330 328 329 328 328 327 327 331 351 353
324 324 324 321 318 320 320 319 318 318 317 317 316 315 315 320 322 322 323 322 319 323 325 325 327 329 332 333 333 333 331 329 328 328 328 327 328 328 328 331 328 333 335 349 351
325 325 324 324 319 321 321 318 318 318 317 316 316 315 317 322 321 324 323 321 321 324 324 324 326 331 334 332 330 328 328 327 327 327 327 328 327 328 333 334 332 340 342 345 349
326 326 324 324 320 321 322 318 319 319 316 316 315 316 321 322 324 323 324 325 325 325 324 326 333 336 331 330 327 327 328 328 328 328 329 328 329 331 335 336 335 341 346 348 349
325 326 325 324 320 320 320 319 318 320 319 323 321 317 322 323 325 324 324 327 327 327 327 331 333 331 328 327 328 328 329 330 329 328 327 328 331 333 336 339 339 341 346 349 352
325 325 325 323 320 319 319 319 318 320 322 321 325 326 325 323 325 326 324 326 328 328 327 327 329 329 328 330 329 329 329 328 328 328 328 329 330 333 336 340 342 343 345 348 350
325 325 325 322 323 319 318 319 319 319 320 320 322 328 325 326 324 323 325 325 323 325 327 328 328 330 328 329 330 329 328 328 328 328 328 330 332 334 336 336 339 341 344 346 347
325 325 324 322 323 320 319 319 323 324 321 322 325 326 326 323 322 323 323 325 323 323 326 325 327 328 328 328 328 328 329 329 329 328 329 331 332 333 335 334 335 335 338 340 344
324 324 324 322 323 319 320 321 319 318 324 321 320 320 322 322 323 322 324 324 324 326 325 326 328 328 326 327 327 328 329 330 329 328 329 330 332 333 333 333 333 333 334 336 337
321 323 323 321 323 318 320 316 319 319 325 324 322 322 322 322 324 324 323 324 326 326 326 328 328 327 328 328 329 329 330 330 329 329 329 329 331 334 333 332 333 333 333 333 335
318 320 321 320 325 317 320 319 320 320 330 326 325 323 322 323 325 323 323 325 326 326 325 327 326 327 328 328 328 331 327 327 328 329 330 329 329 333 333 333 334 333 333 333 334
313 317 319 320 319 320 318 319 321 319 333 326 325 322 322 324 324 323 322 324 326 326 326 328 327 327 328 327 327 328 327 328 328 329 330 329 330 334 333 334 335 334 334 335 334
309 312 316 320 319 319 320 320 320 330 331 325 324 325 325 324 324 323 324 323 324 326 326 326 325 327 327 326 327 327 328 329 329 329 330 331 329 328 331 333 333 332 333 336 335
309 310 315 321 323 320 320 322 330 331 327 326 326 326 326 326 326 325 326 326 327 328 328 328 327 327 326 328 328 328 329 330 331 331 330 331 329 329 332 333 333 333 333 335 337
309 310 317 321 320 321 321 327 330 329 328 325 326 327 327 327 327 325 326 327 327 326 328 329 330 328 327 328 328 328 328 330 329 329 329 331 330 334 333 332 332 332 332 333 336
309 310 320 321 321 321 323 327 329 328 326 326 326 327 328 327 327 327 327 327 327 328 329 329 329 326 326 327 328 329 331 328 330 331 331 330 330 330 331 332 332 332 333 335 337
309 311 322 321 321 321 325 323 327 325 325 325 328 327 329 328 328 328 328 327 327 327 327 330 330 328 327 326 327 329 328 331 330 332 331 328 330 331 332 330 331 332 334 337 338
311 318 321 322 321 323 324 325 325 324 324 326 327 327 328 328 328 329 329 328 327 328 328 329 330 330 328 330 329 329 330 330 328 330 331 329 329 330 329 329 332 332 333 336 335
317 319 319 320 323 323 324 325 321 325 324 324 325 326 328 327 329 329 329 329 326 327 329 329 329 331 330 328 326 327 329 329 330 330 330 330 329 329 328 331 330 333 334 335 335
317 318 320 322 322 323 325 325 324 326 325 325 325 325 325 327 328 328 328 326 326 327 328 328 329 330 330 329 328 327 328 328 328 328 329 328 327 328 327 327 331 333 335 333 333
319 321 324 323 323 325 325 325 325 324 324 324 325 324 325 326 327 328 328 325 325 326 322 323 327 329 328 329 329 328 327 327 328 328 327 326 325 325 326 332 333 334 333 332 332
319 321 323 327 326 326 325 325 324 325 324 323 325 324 325 327 326 326 326 325 323 322 324 326 327 327 327 325 324 325 325 325 325 326 326 325 324 326 331 335 334 332 332 332 333
318 321 321 322 325 326 320 326 324 325 325 325 326 324 324 326 326 326 325 325 325 325 325 325 325 325 325 323 323 323 323 323 323 324 324 323 326 333 333 332 333 332 332 332 332
315 316 318 318 320 322 323 325 324 324 324 323 324 325 324 324 323 323 322 323 324 325 325 325 323 324 324 323 322 323 323 323 323 324 327 332 333 332 333 333 333 332 333 331 330